<?xml version="1.0" encoding="UTF-8" standalone="no" ?>
<gpx xmlns="http://www.topografix.com/GPX/1/1" xmlns:xsi="http://www.w3.org/2001/XMLSchema-instance" xsi:schemaLocation="http://www.topografix.com/GPX/1/1 http://www.topografix.com/GPX/1/1/gpx.xsd" version="1.1" creator="VisuGPX - https://www.visugpx.com">
  <metadata>
    <name>2017-08-02 - Gérardmer, Ramberchamp, le Haut du Tôt</name>
    <desc><![CDATA[2017-08-02 - Gérardmer, Ramberchamp, le Haut du Tôt - Club vosgien Colmar, 18 participants - Guides : Guy Fleury et Lucien Fesser]]></desc>
  </metadata>
  <trk>
    <name><![CDATA[AOU-02-17 17:42:38]]></name>
    <trkseg>
      <trkpt lat="48.06526" lon="6.85687">
        <ele>662.49</ele>
        <time>2017-08-02T07:42:19Z</time>
      </trkpt>
      <trkpt lat="48.06522" lon="6.85672">
        <ele>662.01</ele>
        <time>2017-08-02T07:42:52Z</time>
      </trkpt>
      <trkpt lat="48.06523" lon="6.85656">
        <ele>661.52</ele>
        <time>2017-08-02T07:43:04Z</time>
      </trkpt>
      <trkpt lat="48.06523" lon="6.85642">
        <ele>662.01</ele>
        <time>2017-08-02T07:43:12Z</time>
      </trkpt>
      <trkpt lat="48.06518" lon="6.8563">
        <ele>662.01</ele>
        <time>2017-08-02T07:43:21Z</time>
      </trkpt>
      <trkpt lat="48.06516" lon="6.85616">
        <ele>662.01</ele>
        <time>2017-08-02T07:43:30Z</time>
      </trkpt>
      <trkpt lat="48.06513" lon="6.85602">
        <ele>662.01</ele>
        <time>2017-08-02T07:43:40Z</time>
      </trkpt>
      <trkpt lat="48.06513" lon="6.85586">
        <ele>662.01</ele>
        <time>2017-08-02T07:43:50Z</time>
      </trkpt>
      <trkpt lat="48.06513" lon="6.85568">
        <ele>662.01</ele>
        <time>2017-08-02T07:44:00Z</time>
      </trkpt>
      <trkpt lat="48.06516" lon="6.85554">
        <ele>662.01</ele>
        <time>2017-08-02T07:44:08Z</time>
      </trkpt>
      <trkpt lat="48.06514" lon="6.85539">
        <ele>662.01</ele>
        <time>2017-08-02T07:44:17Z</time>
      </trkpt>
      <trkpt lat="48.06511" lon="6.85525">
        <ele>661.04</ele>
        <time>2017-08-02T07:44:26Z</time>
      </trkpt>
      <trkpt lat="48.06508" lon="6.85509">
        <ele>661.52</ele>
        <time>2017-08-02T07:44:35Z</time>
      </trkpt>
      <trkpt lat="48.06505" lon="6.85494">
        <ele>661.04</ele>
        <time>2017-08-02T07:44:43Z</time>
      </trkpt>
      <trkpt lat="48.06502" lon="6.85481">
        <ele>661.04</ele>
        <time>2017-08-02T07:44:51Z</time>
      </trkpt>
      <trkpt lat="48.06498" lon="6.85465">
        <ele>661.04</ele>
        <time>2017-08-02T07:45:00Z</time>
      </trkpt>
      <trkpt lat="48.06493" lon="6.8545">
        <ele>661.52</ele>
        <time>2017-08-02T07:45:09Z</time>
      </trkpt>
      <trkpt lat="48.06489" lon="6.85433">
        <ele>661.04</ele>
        <time>2017-08-02T07:45:18Z</time>
      </trkpt>
      <trkpt lat="48.06486" lon="6.85417">
        <ele>661.52</ele>
        <time>2017-08-02T07:45:27Z</time>
      </trkpt>
      <trkpt lat="48.06484" lon="6.85402">
        <ele>661.04</ele>
        <time>2017-08-02T07:45:36Z</time>
      </trkpt>
      <trkpt lat="48.06479" lon="6.85388">
        <ele>661.04</ele>
        <time>2017-08-02T07:45:44Z</time>
      </trkpt>
      <trkpt lat="48.06472" lon="6.85376">
        <ele>661.04</ele>
        <time>2017-08-02T07:45:53Z</time>
      </trkpt>
      <trkpt lat="48.06465" lon="6.85368">
        <ele>661.04</ele>
        <time>2017-08-02T07:46:02Z</time>
      </trkpt>
      <trkpt lat="48.06462" lon="6.85352">
        <ele>661.04</ele>
        <time>2017-08-02T07:46:12Z</time>
      </trkpt>
      <trkpt lat="48.06459" lon="6.85335">
        <ele>661.04</ele>
        <time>2017-08-02T07:46:22Z</time>
      </trkpt>
      <trkpt lat="48.06455" lon="6.8532">
        <ele>661.04</ele>
        <time>2017-08-02T07:46:31Z</time>
      </trkpt>
      <trkpt lat="48.0645" lon="6.85302">
        <ele>661.04</ele>
        <time>2017-08-02T07:46:40Z</time>
      </trkpt>
      <trkpt lat="48.06446" lon="6.85288">
        <ele>660.56</ele>
        <time>2017-08-02T07:46:49Z</time>
      </trkpt>
      <trkpt lat="48.06442" lon="6.85276">
        <ele>660.08</ele>
        <time>2017-08-02T07:46:58Z</time>
      </trkpt>
      <trkpt lat="48.06435" lon="6.85263">
        <ele>660.08</ele>
        <time>2017-08-02T07:47:07Z</time>
      </trkpt>
      <trkpt lat="48.06429" lon="6.85252">
        <ele>660.56</ele>
        <time>2017-08-02T07:47:15Z</time>
      </trkpt>
      <trkpt lat="48.06422" lon="6.85238">
        <ele>660.08</ele>
        <time>2017-08-02T07:47:23Z</time>
      </trkpt>
      <trkpt lat="48.06415" lon="6.85227">
        <ele>661.04</ele>
        <time>2017-08-02T07:47:32Z</time>
      </trkpt>
      <trkpt lat="48.06407" lon="6.85218">
        <ele>660.56</ele>
        <time>2017-08-02T07:47:40Z</time>
      </trkpt>
      <trkpt lat="48.06398" lon="6.8521">
        <ele>660.08</ele>
        <time>2017-08-02T07:47:49Z</time>
      </trkpt>
      <trkpt lat="48.06388" lon="6.85204">
        <ele>661.04</ele>
        <time>2017-08-02T07:48:00Z</time>
      </trkpt>
      <trkpt lat="48.06374" lon="6.85188">
        <ele>660.56</ele>
        <time>2017-08-02T07:48:13Z</time>
      </trkpt>
      <trkpt lat="48.06362" lon="6.85194">
        <ele>661.04</ele>
        <time>2017-08-02T07:48:25Z</time>
      </trkpt>
      <trkpt lat="48.06345" lon="6.85202">
        <ele>660.56</ele>
        <time>2017-08-02T07:48:38Z</time>
      </trkpt>
      <trkpt lat="48.06331" lon="6.85203">
        <ele>660.56</ele>
        <time>2017-08-02T07:48:49Z</time>
      </trkpt>
      <trkpt lat="48.06319" lon="6.85201">
        <ele>661.04</ele>
        <time>2017-08-02T07:49:00Z</time>
      </trkpt>
      <trkpt lat="48.06309" lon="6.85199">
        <ele>661.52</ele>
        <time>2017-08-02T07:49:09Z</time>
      </trkpt>
      <trkpt lat="48.06296" lon="6.85197">
        <ele>661.04</ele>
        <time>2017-08-02T07:49:21Z</time>
      </trkpt>
      <trkpt lat="48.06279" lon="6.85199">
        <ele>661.04</ele>
        <time>2017-08-02T07:49:31Z</time>
      </trkpt>
      <trkpt lat="48.06268" lon="6.85195">
        <ele>662.01</ele>
        <time>2017-08-02T07:49:40Z</time>
      </trkpt>
      <trkpt lat="48.06255" lon="6.85194">
        <ele>662.49</ele>
        <time>2017-08-02T07:50:12Z</time>
      </trkpt>
      <trkpt lat="48.06242" lon="6.85198">
        <ele>662.01</ele>
        <time>2017-08-02T07:50:22Z</time>
      </trkpt>
      <trkpt lat="48.06231" lon="6.85192">
        <ele>661.52</ele>
        <time>2017-08-02T07:50:37Z</time>
      </trkpt>
      <trkpt lat="48.06215" lon="6.85189">
        <ele>661.52</ele>
        <time>2017-08-02T07:50:49Z</time>
      </trkpt>
      <trkpt lat="48.062" lon="6.85186">
        <ele>662.01</ele>
        <time>2017-08-02T07:51:02Z</time>
      </trkpt>
      <trkpt lat="48.06185" lon="6.85187">
        <ele>662.49</ele>
        <time>2017-08-02T07:51:10Z</time>
      </trkpt>
      <trkpt lat="48.06172" lon="6.85183">
        <ele>662.97</ele>
        <time>2017-08-02T07:51:21Z</time>
      </trkpt>
      <trkpt lat="48.06161" lon="6.85192">
        <ele>663.45</ele>
        <time>2017-08-02T07:51:37Z</time>
      </trkpt>
      <trkpt lat="48.06153" lon="6.85184">
        <ele>663.93</ele>
        <time>2017-08-02T07:52:01Z</time>
      </trkpt>
      <trkpt lat="48.06143" lon="6.85177">
        <ele>664.89</ele>
        <time>2017-08-02T07:52:19Z</time>
      </trkpt>
      <trkpt lat="48.06113" lon="6.85186">
        <ele>665.37</ele>
        <time>2017-08-02T07:52:42Z</time>
      </trkpt>
      <trkpt lat="48.061" lon="6.85195">
        <ele>665.85</ele>
        <time>2017-08-02T07:52:55Z</time>
      </trkpt>
      <trkpt lat="48.06075" lon="6.8521">
        <ele>666.33</ele>
        <time>2017-08-02T07:53:22Z</time>
      </trkpt>
      <trkpt lat="48.06054" lon="6.85229">
        <ele>667.29</ele>
        <time>2017-08-02T07:53:48Z</time>
      </trkpt>
      <trkpt lat="48.06042" lon="6.8525">
        <ele>667.77</ele>
        <time>2017-08-02T07:54:04Z</time>
      </trkpt>
      <trkpt lat="48.06034" lon="6.85265">
        <ele>668.25</ele>
        <time>2017-08-02T07:54:17Z</time>
      </trkpt>
      <trkpt lat="48.06031" lon="6.85279">
        <ele>667.77</ele>
        <time>2017-08-02T07:54:34Z</time>
      </trkpt>
      <trkpt lat="48.06023" lon="6.85302">
        <ele>667.77</ele>
        <time>2017-08-02T07:54:46Z</time>
      </trkpt>
      <trkpt lat="48.06013" lon="6.85335">
        <ele>668.25</ele>
        <time>2017-08-02T07:54:57Z</time>
      </trkpt>
      <trkpt lat="48.06006" lon="6.85351">
        <ele>667.77</ele>
        <time>2017-08-02T07:55:06Z</time>
      </trkpt>
      <trkpt lat="48.05999" lon="6.85362">
        <ele>667.29</ele>
        <time>2017-08-02T07:55:15Z</time>
      </trkpt>
      <trkpt lat="48.05987" lon="6.85368">
        <ele>667.77</ele>
        <time>2017-08-02T07:55:23Z</time>
      </trkpt>
      <trkpt lat="48.05979" lon="6.85362">
        <ele>668.25</ele>
        <time>2017-08-02T07:55:31Z</time>
      </trkpt>
      <trkpt lat="48.05971" lon="6.85355">
        <ele>668.25</ele>
        <time>2017-08-02T07:55:39Z</time>
      </trkpt>
      <trkpt lat="48.05963" lon="6.85347">
        <ele>668.25</ele>
        <time>2017-08-02T07:55:47Z</time>
      </trkpt>
      <trkpt lat="48.05955" lon="6.85338">
        <ele>668.73</ele>
        <time>2017-08-02T07:55:55Z</time>
      </trkpt>
      <trkpt lat="48.05947" lon="6.85328">
        <ele>669.22</ele>
        <time>2017-08-02T07:56:03Z</time>
      </trkpt>
      <trkpt lat="48.05938" lon="6.8532">
        <ele>669.7</ele>
        <time>2017-08-02T07:56:11Z</time>
      </trkpt>
      <trkpt lat="48.05927" lon="6.85318">
        <ele>669.22</ele>
        <time>2017-08-02T07:56:19Z</time>
      </trkpt>
      <trkpt lat="48.05917" lon="6.85314">
        <ele>669.22</ele>
        <time>2017-08-02T07:56:27Z</time>
      </trkpt>
      <trkpt lat="48.05906" lon="6.85308">
        <ele>669.22</ele>
        <time>2017-08-02T07:56:36Z</time>
      </trkpt>
      <trkpt lat="48.05898" lon="6.85301">
        <ele>669.22</ele>
        <time>2017-08-02T07:56:44Z</time>
      </trkpt>
      <trkpt lat="48.05889" lon="6.85299">
        <ele>669.22</ele>
        <time>2017-08-02T07:56:52Z</time>
      </trkpt>
      <trkpt lat="48.05879" lon="6.85296">
        <ele>669.22</ele>
        <time>2017-08-02T07:57:00Z</time>
      </trkpt>
      <trkpt lat="48.05871" lon="6.8529">
        <ele>669.22</ele>
        <time>2017-08-02T07:57:08Z</time>
      </trkpt>
      <trkpt lat="48.05861" lon="6.85282">
        <ele>670.18</ele>
        <time>2017-08-02T07:57:16Z</time>
      </trkpt>
      <trkpt lat="48.05853" lon="6.85275">
        <ele>670.18</ele>
        <time>2017-08-02T07:57:23Z</time>
      </trkpt>
      <trkpt lat="48.05845" lon="6.85266">
        <ele>670.66</ele>
        <time>2017-08-02T07:57:30Z</time>
      </trkpt>
      <trkpt lat="48.05837" lon="6.85259">
        <ele>670.66</ele>
        <time>2017-08-02T07:57:37Z</time>
      </trkpt>
      <trkpt lat="48.05829" lon="6.85251">
        <ele>670.66</ele>
        <time>2017-08-02T07:57:44Z</time>
      </trkpt>
      <trkpt lat="48.05821" lon="6.85243">
        <ele>670.18</ele>
        <time>2017-08-02T07:57:51Z</time>
      </trkpt>
      <trkpt lat="48.05814" lon="6.85234">
        <ele>670.66</ele>
        <time>2017-08-02T07:57:58Z</time>
      </trkpt>
      <trkpt lat="48.05809" lon="6.85225">
        <ele>670.66</ele>
        <time>2017-08-02T07:58:05Z</time>
      </trkpt>
      <trkpt lat="48.05801" lon="6.85215">
        <ele>671.14</ele>
        <time>2017-08-02T07:58:12Z</time>
      </trkpt>
      <trkpt lat="48.05795" lon="6.85205">
        <ele>671.14</ele>
        <time>2017-08-02T07:58:19Z</time>
      </trkpt>
      <trkpt lat="48.05787" lon="6.85196">
        <ele>670.66</ele>
        <time>2017-08-02T07:58:26Z</time>
      </trkpt>
      <trkpt lat="48.0578" lon="6.85187">
        <ele>670.66</ele>
        <time>2017-08-02T07:58:33Z</time>
      </trkpt>
      <trkpt lat="48.05772" lon="6.85178">
        <ele>670.66</ele>
        <time>2017-08-02T07:58:42Z</time>
      </trkpt>
      <trkpt lat="48.05763" lon="6.8517">
        <ele>671.14</ele>
        <time>2017-08-02T07:58:52Z</time>
      </trkpt>
      <trkpt lat="48.05752" lon="6.85167">
        <ele>670.66</ele>
        <time>2017-08-02T07:59:03Z</time>
      </trkpt>
      <trkpt lat="48.05742" lon="6.8516">
        <ele>670.66</ele>
        <time>2017-08-02T07:59:13Z</time>
      </trkpt>
      <trkpt lat="48.05735" lon="6.85148">
        <ele>671.14</ele>
        <time>2017-08-02T07:59:23Z</time>
      </trkpt>
      <trkpt lat="48.05726" lon="6.85139">
        <ele>671.14</ele>
        <time>2017-08-02T07:59:32Z</time>
      </trkpt>
      <trkpt lat="48.05718" lon="6.8513">
        <ele>671.62</ele>
        <time>2017-08-02T07:59:40Z</time>
      </trkpt>
      <trkpt lat="48.05708" lon="6.85122">
        <ele>671.62</ele>
        <time>2017-08-02T07:59:49Z</time>
      </trkpt>
      <trkpt lat="48.057" lon="6.85113">
        <ele>672.1</ele>
        <time>2017-08-02T07:59:57Z</time>
      </trkpt>
      <trkpt lat="48.05692" lon="6.85106">
        <ele>671.62</ele>
        <time>2017-08-02T08:00:05Z</time>
      </trkpt>
      <trkpt lat="48.05684" lon="6.85097">
        <ele>672.1</ele>
        <time>2017-08-02T08:00:12Z</time>
      </trkpt>
      <trkpt lat="48.05677" lon="6.85088">
        <ele>672.58</ele>
        <time>2017-08-02T08:00:20Z</time>
      </trkpt>
      <trkpt lat="48.05667" lon="6.85081">
        <ele>672.58</ele>
        <time>2017-08-02T08:00:28Z</time>
      </trkpt>
      <trkpt lat="48.05661" lon="6.8507">
        <ele>672.58</ele>
        <time>2017-08-02T08:00:36Z</time>
      </trkpt>
      <trkpt lat="48.05652" lon="6.85063">
        <ele>673.54</ele>
        <time>2017-08-02T08:00:44Z</time>
      </trkpt>
      <trkpt lat="48.05645" lon="6.85053">
        <ele>673.06</ele>
        <time>2017-08-02T08:00:53Z</time>
      </trkpt>
      <trkpt lat="48.05636" lon="6.85043">
        <ele>673.54</ele>
        <time>2017-08-02T08:01:02Z</time>
      </trkpt>
      <trkpt lat="48.05626" lon="6.85037">
        <ele>674.02</ele>
        <time>2017-08-02T08:01:10Z</time>
      </trkpt>
      <trkpt lat="48.05616" lon="6.85034">
        <ele>674.02</ele>
        <time>2017-08-02T08:01:18Z</time>
      </trkpt>
      <trkpt lat="48.05605" lon="6.85032">
        <ele>674.02</ele>
        <time>2017-08-02T08:01:25Z</time>
      </trkpt>
      <trkpt lat="48.05593" lon="6.8503">
        <ele>674.02</ele>
        <time>2017-08-02T08:01:33Z</time>
      </trkpt>
      <trkpt lat="48.05582" lon="6.8503">
        <ele>674.5</ele>
        <time>2017-08-02T08:01:41Z</time>
      </trkpt>
      <trkpt lat="48.0557" lon="6.85029">
        <ele>674.5</ele>
        <time>2017-08-02T08:01:52Z</time>
      </trkpt>
      <trkpt lat="48.05557" lon="6.85029">
        <ele>674.98</ele>
        <time>2017-08-02T08:02:01Z</time>
      </trkpt>
      <trkpt lat="48.05545" lon="6.85033">
        <ele>675.46</ele>
        <time>2017-08-02T08:02:09Z</time>
      </trkpt>
      <trkpt lat="48.05534" lon="6.85033">
        <ele>675.46</ele>
        <time>2017-08-02T08:02:17Z</time>
      </trkpt>
      <trkpt lat="48.05523" lon="6.85036">
        <ele>675.46</ele>
        <time>2017-08-02T08:02:26Z</time>
      </trkpt>
      <trkpt lat="48.05512" lon="6.85039">
        <ele>675.46</ele>
        <time>2017-08-02T08:02:35Z</time>
      </trkpt>
      <trkpt lat="48.055" lon="6.85038">
        <ele>675.94</ele>
        <time>2017-08-02T08:02:45Z</time>
      </trkpt>
      <trkpt lat="48.05491" lon="6.85039">
        <ele>676.42</ele>
        <time>2017-08-02T08:02:52Z</time>
      </trkpt>
      <trkpt lat="48.0548" lon="6.85038">
        <ele>676.91</ele>
        <time>2017-08-02T08:03:00Z</time>
      </trkpt>
      <trkpt lat="48.05471" lon="6.85039">
        <ele>677.39</ele>
        <time>2017-08-02T08:03:09Z</time>
      </trkpt>
      <trkpt lat="48.0546" lon="6.85047">
        <ele>677.39</ele>
        <time>2017-08-02T08:03:18Z</time>
      </trkpt>
      <trkpt lat="48.0545" lon="6.85059">
        <ele>678.35</ele>
        <time>2017-08-02T08:03:29Z</time>
      </trkpt>
      <trkpt lat="48.05445" lon="6.8507">
        <ele>678.83</ele>
        <time>2017-08-02T08:03:38Z</time>
      </trkpt>
      <trkpt lat="48.05431" lon="6.85074">
        <ele>678.83</ele>
        <time>2017-08-02T08:03:53Z</time>
      </trkpt>
      <trkpt lat="48.05421" lon="6.85062">
        <ele>679.31</ele>
        <time>2017-08-02T08:04:09Z</time>
      </trkpt>
      <trkpt lat="48.05403" lon="6.85058">
        <ele>679.79</ele>
        <time>2017-08-02T08:04:31Z</time>
      </trkpt>
      <trkpt lat="48.05379" lon="6.8506">
        <ele>681.23</ele>
        <time>2017-08-02T08:04:54Z</time>
      </trkpt>
      <trkpt lat="48.05366" lon="6.85055">
        <ele>682.67</ele>
        <time>2017-08-02T08:05:08Z</time>
      </trkpt>
      <trkpt lat="48.05351" lon="6.85053">
        <ele>683.15</ele>
        <time>2017-08-02T08:05:23Z</time>
      </trkpt>
      <trkpt lat="48.05327" lon="6.85056">
        <ele>683.15</ele>
        <time>2017-08-02T08:05:45Z</time>
      </trkpt>
      <trkpt lat="48.05313" lon="6.85054">
        <ele>684.12</ele>
        <time>2017-08-02T08:05:57Z</time>
      </trkpt>
      <trkpt lat="48.05307" lon="6.85045">
        <ele>684.12</ele>
        <time>2017-08-02T08:06:09Z</time>
      </trkpt>
      <trkpt lat="48.05293" lon="6.85046">
        <ele>684.12</ele>
        <time>2017-08-02T08:06:18Z</time>
      </trkpt>
      <trkpt lat="48.0528" lon="6.85046">
        <ele>684.6</ele>
        <time>2017-08-02T08:06:28Z</time>
      </trkpt>
      <trkpt lat="48.05271" lon="6.85049">
        <ele>685.56</ele>
        <time>2017-08-02T08:06:40Z</time>
      </trkpt>
      <trkpt lat="48.05262" lon="6.85047">
        <ele>685.56</ele>
        <time>2017-08-02T08:06:50Z</time>
      </trkpt>
      <trkpt lat="48.0525" lon="6.85045">
        <ele>686.04</ele>
        <time>2017-08-02T08:07:00Z</time>
      </trkpt>
      <trkpt lat="48.05237" lon="6.85044">
        <ele>686.52</ele>
        <time>2017-08-02T08:07:08Z</time>
      </trkpt>
      <trkpt lat="48.05228" lon="6.8504">
        <ele>687</ele>
        <time>2017-08-02T08:07:16Z</time>
      </trkpt>
      <trkpt lat="48.05219" lon="6.85035">
        <ele>687.48</ele>
        <time>2017-08-02T08:07:24Z</time>
      </trkpt>
      <trkpt lat="48.05211" lon="6.85028">
        <ele>687.48</ele>
        <time>2017-08-02T08:07:32Z</time>
      </trkpt>
      <trkpt lat="48.05205" lon="6.85032">
        <ele>688.44</ele>
        <time>2017-08-02T08:07:41Z</time>
      </trkpt>
      <trkpt lat="48.05198" lon="6.85039">
        <ele>689.4</ele>
        <time>2017-08-02T08:07:50Z</time>
      </trkpt>
      <trkpt lat="48.05188" lon="6.8504">
        <ele>690.36</ele>
        <time>2017-08-02T08:07:59Z</time>
      </trkpt>
      <trkpt lat="48.05184" lon="6.85025">
        <ele>690.36</ele>
        <time>2017-08-02T08:08:07Z</time>
      </trkpt>
      <trkpt lat="48.05173" lon="6.8501">
        <ele>690.84</ele>
        <time>2017-08-02T08:08:24Z</time>
      </trkpt>
      <trkpt lat="48.05167" lon="6.84996">
        <ele>691.33</ele>
        <time>2017-08-02T08:08:37Z</time>
      </trkpt>
      <trkpt lat="48.05163" lon="6.84976">
        <ele>692.77</ele>
        <time>2017-08-02T08:08:51Z</time>
      </trkpt>
      <trkpt lat="48.05163" lon="6.8495">
        <ele>692.77</ele>
        <time>2017-08-02T08:09:12Z</time>
      </trkpt>
      <trkpt lat="48.05151" lon="6.84918">
        <ele>693.73</ele>
        <time>2017-08-02T08:09:55Z</time>
      </trkpt>
      <trkpt lat="48.05126" lon="6.84899">
        <ele>697.09</ele>
        <time>2017-08-02T08:10:20Z</time>
      </trkpt>
      <trkpt lat="48.05117" lon="6.84877">
        <ele>699.98</ele>
        <time>2017-08-02T08:10:40Z</time>
      </trkpt>
      <trkpt lat="48.05099" lon="6.84859">
        <ele>699.02</ele>
        <time>2017-08-02T08:11:08Z</time>
      </trkpt>
      <trkpt lat="48.0508" lon="6.84869">
        <ele>700.46</ele>
        <time>2017-08-02T08:11:37Z</time>
      </trkpt>
      <trkpt lat="48.05057" lon="6.8487">
        <ele>701.9</ele>
        <time>2017-08-02T08:12:01Z</time>
      </trkpt>
      <trkpt lat="48.05045" lon="6.84862">
        <ele>703.34</ele>
        <time>2017-08-02T08:12:16Z</time>
      </trkpt>
      <trkpt lat="48.05034" lon="6.84865">
        <ele>703.34</ele>
        <time>2017-08-02T08:12:28Z</time>
      </trkpt>
      <trkpt lat="48.05024" lon="6.8486">
        <ele>703.82</ele>
        <time>2017-08-02T08:12:38Z</time>
      </trkpt>
      <trkpt lat="48.05025" lon="6.84846">
        <ele>703.82</ele>
        <time>2017-08-02T08:12:49Z</time>
      </trkpt>
      <trkpt lat="48.05017" lon="6.84835">
        <ele>704.3</ele>
        <time>2017-08-02T08:13:12Z</time>
      </trkpt>
      <trkpt lat="48.05011" lon="6.84812">
        <ele>706.23</ele>
        <time>2017-08-02T08:14:19Z</time>
      </trkpt>
      <trkpt lat="48.04995" lon="6.84813">
        <ele>707.19</ele>
        <time>2017-08-02T08:14:36Z</time>
      </trkpt>
      <trkpt lat="48.04984" lon="6.84802">
        <ele>710.55</ele>
        <time>2017-08-02T08:15:02Z</time>
      </trkpt>
      <trkpt lat="48.04979" lon="6.8479">
        <ele>711.51</ele>
        <time>2017-08-02T08:16:05Z</time>
      </trkpt>
      <trkpt lat="48.04976" lon="6.84771">
        <ele>714.4</ele>
        <time>2017-08-02T08:16:25Z</time>
      </trkpt>
      <trkpt lat="48.04965" lon="6.84761">
        <ele>712.95</ele>
        <time>2017-08-02T08:16:37Z</time>
      </trkpt>
      <trkpt lat="48.04945" lon="6.84763">
        <ele>713.44</ele>
        <time>2017-08-02T08:16:46Z</time>
      </trkpt>
      <trkpt lat="48.04933" lon="6.8475">
        <ele>713.92</ele>
        <time>2017-08-02T08:16:57Z</time>
      </trkpt>
      <trkpt lat="48.04925" lon="6.84739">
        <ele>716.32</ele>
        <time>2017-08-02T08:17:08Z</time>
      </trkpt>
      <trkpt lat="48.04914" lon="6.84733">
        <ele>716.32</ele>
        <time>2017-08-02T08:17:19Z</time>
      </trkpt>
      <trkpt lat="48.0491" lon="6.84721">
        <ele>716.8</ele>
        <time>2017-08-02T08:17:30Z</time>
      </trkpt>
      <trkpt lat="48.04909" lon="6.84695">
        <ele>717.28</ele>
        <time>2017-08-02T08:17:50Z</time>
      </trkpt>
      <trkpt lat="48.04918" lon="6.8466">
        <ele>718.72</ele>
        <time>2017-08-02T08:18:04Z</time>
      </trkpt>
      <trkpt lat="48.04911" lon="6.8464">
        <ele>719.2</ele>
        <time>2017-08-02T08:18:19Z</time>
      </trkpt>
      <trkpt lat="48.04903" lon="6.84623">
        <ele>720.16</ele>
        <time>2017-08-02T08:18:33Z</time>
      </trkpt>
      <trkpt lat="48.04897" lon="6.84614">
        <ele>720.65</ele>
        <time>2017-08-02T08:18:45Z</time>
      </trkpt>
      <trkpt lat="48.04889" lon="6.84606">
        <ele>721.13</ele>
        <time>2017-08-02T08:19:04Z</time>
      </trkpt>
      <trkpt lat="48.04889" lon="6.84591">
        <ele>722.09</ele>
        <time>2017-08-02T08:19:17Z</time>
      </trkpt>
      <trkpt lat="48.04888" lon="6.84581">
        <ele>723.53</ele>
        <time>2017-08-02T08:20:09Z</time>
      </trkpt>
      <trkpt lat="48.04882" lon="6.84559">
        <ele>723.53</ele>
        <time>2017-08-02T08:20:18Z</time>
      </trkpt>
      <trkpt lat="48.04874" lon="6.84537">
        <ele>724.49</ele>
        <time>2017-08-02T08:20:35Z</time>
      </trkpt>
      <trkpt lat="48.04864" lon="6.84531">
        <ele>724.97</ele>
        <time>2017-08-02T08:20:47Z</time>
      </trkpt>
      <trkpt lat="48.04852" lon="6.84527">
        <ele>725.45</ele>
        <time>2017-08-02T08:21:02Z</time>
      </trkpt>
      <trkpt lat="48.04838" lon="6.84522">
        <ele>727.86</ele>
        <time>2017-08-02T08:21:33Z</time>
      </trkpt>
      <trkpt lat="48.04808" lon="6.84519">
        <ele>728.82</ele>
        <time>2017-08-02T08:22:25Z</time>
      </trkpt>
      <trkpt lat="48.04797" lon="6.84505">
        <ele>731.7</ele>
        <time>2017-08-02T08:22:50Z</time>
      </trkpt>
      <trkpt lat="48.04787" lon="6.84495">
        <ele>735.55</ele>
        <time>2017-08-02T08:23:11Z</time>
      </trkpt>
      <trkpt lat="48.04775" lon="6.84485">
        <ele>736.03</ele>
        <time>2017-08-02T08:23:32Z</time>
      </trkpt>
      <trkpt lat="48.04759" lon="6.84474">
        <ele>736.51</ele>
        <time>2017-08-02T08:23:49Z</time>
      </trkpt>
      <trkpt lat="48.04745" lon="6.84465">
        <ele>736.99</ele>
        <time>2017-08-02T08:24:01Z</time>
      </trkpt>
      <trkpt lat="48.04752" lon="6.84438">
        <ele>738.43</ele>
        <time>2017-08-02T08:24:14Z</time>
      </trkpt>
      <trkpt lat="48.0476" lon="6.84415">
        <ele>740.35</ele>
        <time>2017-08-02T08:24:28Z</time>
      </trkpt>
      <trkpt lat="48.04765" lon="6.8439">
        <ele>742.76</ele>
        <time>2017-08-02T08:24:51Z</time>
      </trkpt>
      <trkpt lat="48.0476" lon="6.84378">
        <ele>743.24</ele>
        <time>2017-08-02T08:25:08Z</time>
      </trkpt>
      <trkpt lat="48.04752" lon="6.84368">
        <ele>744.68</ele>
        <time>2017-08-02T08:25:24Z</time>
      </trkpt>
      <trkpt lat="48.04732" lon="6.84362">
        <ele>746.6</ele>
        <time>2017-08-02T08:25:42Z</time>
      </trkpt>
      <trkpt lat="48.04727" lon="6.84342">
        <ele>745.64</ele>
        <time>2017-08-02T08:26:06Z</time>
      </trkpt>
      <trkpt lat="48.04726" lon="6.84329">
        <ele>746.6</ele>
        <time>2017-08-02T08:26:18Z</time>
      </trkpt>
      <trkpt lat="48.0472" lon="6.84319">
        <ele>747.56</ele>
        <time>2017-08-02T08:26:27Z</time>
      </trkpt>
      <trkpt lat="48.04725" lon="6.84297">
        <ele>749</ele>
        <time>2017-08-02T08:27:08Z</time>
      </trkpt>
      <trkpt lat="48.04729" lon="6.84286">
        <ele>752.37</ele>
        <time>2017-08-02T08:27:58Z</time>
      </trkpt>
      <trkpt lat="48.04727" lon="6.84285">
        <ele>752.85</ele>
        <time>2017-08-02T08:30:08Z</time>
      </trkpt>
      <trkpt lat="48.04727" lon="6.84288">
        <ele>815.34</ele>
        <time>2017-08-02T08:31:36Z</time>
      </trkpt>
      <trkpt lat="48.04761" lon="6.84318">
        <ele>745.64</ele>
        <time>2017-08-02T08:31:46Z</time>
      </trkpt>
      <trkpt lat="48.04713" lon="6.84221">
        <ele>803.8</ele>
        <time>2017-08-02T08:36:22Z</time>
      </trkpt>
      <trkpt lat="48.04695" lon="6.84183">
        <ele>806.68</ele>
        <time>2017-08-02T08:36:51Z</time>
      </trkpt>
      <trkpt lat="48.04699" lon="6.84163">
        <ele>808.13</ele>
        <time>2017-08-02T08:37:04Z</time>
      </trkpt>
      <trkpt lat="48.04698" lon="6.84137">
        <ele>809.57</ele>
        <time>2017-08-02T08:37:19Z</time>
      </trkpt>
      <trkpt lat="48.04704" lon="6.84116">
        <ele>811.49</ele>
        <time>2017-08-02T08:37:35Z</time>
      </trkpt>
      <trkpt lat="48.04707" lon="6.84101">
        <ele>812.45</ele>
        <time>2017-08-02T08:37:46Z</time>
      </trkpt>
      <trkpt lat="48.04696" lon="6.84086">
        <ele>815.34</ele>
        <time>2017-08-02T08:38:00Z</time>
      </trkpt>
      <trkpt lat="48.04694" lon="6.84068">
        <ele>817.26</ele>
        <time>2017-08-02T08:38:16Z</time>
      </trkpt>
      <trkpt lat="48.04686" lon="6.84054">
        <ele>819.18</ele>
        <time>2017-08-02T08:38:28Z</time>
      </trkpt>
      <trkpt lat="48.04685" lon="6.84039">
        <ele>820.62</ele>
        <time>2017-08-02T08:38:40Z</time>
      </trkpt>
      <trkpt lat="48.04686" lon="6.84018">
        <ele>824.95</ele>
        <time>2017-08-02T08:39:10Z</time>
      </trkpt>
      <trkpt lat="48.04678" lon="6.83993">
        <ele>827.35</ele>
        <time>2017-08-02T08:39:31Z</time>
      </trkpt>
      <trkpt lat="48.0467" lon="6.83974">
        <ele>828.79</ele>
        <time>2017-08-02T08:39:46Z</time>
      </trkpt>
      <trkpt lat="48.04656" lon="6.83958">
        <ele>830.24</ele>
        <time>2017-08-02T08:40:00Z</time>
      </trkpt>
      <trkpt lat="48.04647" lon="6.8394">
        <ele>832.64</ele>
        <time>2017-08-02T08:40:18Z</time>
      </trkpt>
      <trkpt lat="48.04641" lon="6.83922">
        <ele>834.56</ele>
        <time>2017-08-02T08:40:33Z</time>
      </trkpt>
      <trkpt lat="48.04633" lon="6.83909">
        <ele>835.52</ele>
        <time>2017-08-02T08:40:47Z</time>
      </trkpt>
      <trkpt lat="48.04627" lon="6.83894">
        <ele>836.96</ele>
        <time>2017-08-02T08:41:02Z</time>
      </trkpt>
      <trkpt lat="48.0462" lon="6.83882">
        <ele>838.41</ele>
        <time>2017-08-02T08:41:15Z</time>
      </trkpt>
      <trkpt lat="48.04611" lon="6.83871">
        <ele>840.33</ele>
        <time>2017-08-02T08:41:27Z</time>
      </trkpt>
      <trkpt lat="48.04608" lon="6.83862">
        <ele>841.29</ele>
        <time>2017-08-02T08:41:37Z</time>
      </trkpt>
      <trkpt lat="48.046" lon="6.83855">
        <ele>842.25</ele>
        <time>2017-08-02T08:41:49Z</time>
      </trkpt>
      <trkpt lat="48.04597" lon="6.83845">
        <ele>844.18</ele>
        <time>2017-08-02T08:42:00Z</time>
      </trkpt>
      <trkpt lat="48.04587" lon="6.83837">
        <ele>845.14</ele>
        <time>2017-08-02T08:42:13Z</time>
      </trkpt>
      <trkpt lat="48.04581" lon="6.83829">
        <ele>846.58</ele>
        <time>2017-08-02T08:42:26Z</time>
      </trkpt>
      <trkpt lat="48.04575" lon="6.83816">
        <ele>848.02</ele>
        <time>2017-08-02T08:42:38Z</time>
      </trkpt>
      <trkpt lat="48.04564" lon="6.83806">
        <ele>848.98</ele>
        <time>2017-08-02T08:42:50Z</time>
      </trkpt>
      <trkpt lat="48.04555" lon="6.83796">
        <ele>850.9</ele>
        <time>2017-08-02T08:43:01Z</time>
      </trkpt>
      <trkpt lat="48.04547" lon="6.83785">
        <ele>852.35</ele>
        <time>2017-08-02T08:43:13Z</time>
      </trkpt>
      <trkpt lat="48.04541" lon="6.83775">
        <ele>853.31</ele>
        <time>2017-08-02T08:43:23Z</time>
      </trkpt>
      <trkpt lat="48.04531" lon="6.83767">
        <ele>854.75</ele>
        <time>2017-08-02T08:43:33Z</time>
      </trkpt>
      <trkpt lat="48.04524" lon="6.83759">
        <ele>854.75</ele>
        <time>2017-08-02T08:43:41Z</time>
      </trkpt>
      <trkpt lat="48.04518" lon="6.8375">
        <ele>855.23</ele>
        <time>2017-08-02T08:43:49Z</time>
      </trkpt>
      <trkpt lat="48.04512" lon="6.83741">
        <ele>856.19</ele>
        <time>2017-08-02T08:43:58Z</time>
      </trkpt>
      <trkpt lat="48.04505" lon="6.83731">
        <ele>856.19</ele>
        <time>2017-08-02T08:44:07Z</time>
      </trkpt>
      <trkpt lat="48.04497" lon="6.83724">
        <ele>857.63</ele>
        <time>2017-08-02T08:44:15Z</time>
      </trkpt>
      <trkpt lat="48.0449" lon="6.83715">
        <ele>857.63</ele>
        <time>2017-08-02T08:44:24Z</time>
      </trkpt>
      <trkpt lat="48.04481" lon="6.8371">
        <ele>858.11</ele>
        <time>2017-08-02T08:44:32Z</time>
      </trkpt>
      <trkpt lat="48.04473" lon="6.83702">
        <ele>859.08</ele>
        <time>2017-08-02T08:44:42Z</time>
      </trkpt>
      <trkpt lat="48.04467" lon="6.83691">
        <ele>860.52</ele>
        <time>2017-08-02T08:44:51Z</time>
      </trkpt>
      <trkpt lat="48.04462" lon="6.83679">
        <ele>861</ele>
        <time>2017-08-02T08:45:00Z</time>
      </trkpt>
      <trkpt lat="48.04458" lon="6.83666">
        <ele>861.48</ele>
        <time>2017-08-02T08:45:09Z</time>
      </trkpt>
      <trkpt lat="48.04453" lon="6.83652">
        <ele>862.92</ele>
        <time>2017-08-02T08:45:18Z</time>
      </trkpt>
      <trkpt lat="48.04449" lon="6.8364">
        <ele>863.4</ele>
        <time>2017-08-02T08:45:26Z</time>
      </trkpt>
      <trkpt lat="48.04443" lon="6.8363">
        <ele>864.36</ele>
        <time>2017-08-02T08:45:34Z</time>
      </trkpt>
      <trkpt lat="48.0444" lon="6.83614">
        <ele>864.84</ele>
        <time>2017-08-02T08:45:44Z</time>
      </trkpt>
      <trkpt lat="48.0444" lon="6.83598">
        <ele>865.32</ele>
        <time>2017-08-02T08:45:54Z</time>
      </trkpt>
      <trkpt lat="48.04435" lon="6.83585">
        <ele>865.8</ele>
        <time>2017-08-02T08:46:15Z</time>
      </trkpt>
      <trkpt lat="48.04438" lon="6.83583">
        <ele>864.84</ele>
        <time>2017-08-02T08:46:51Z</time>
      </trkpt>
      <trkpt lat="48.04438" lon="6.83581">
        <ele>864.84</ele>
        <time>2017-08-02T08:47:08Z</time>
      </trkpt>
      <trkpt lat="48.04437" lon="6.83576">
        <ele>864.36</ele>
        <time>2017-08-02T08:47:30Z</time>
      </trkpt>
      <trkpt lat="48.04436" lon="6.83584">
        <ele>861</ele>
        <time>2017-08-02T08:59:27Z</time>
      </trkpt>
      <trkpt lat="48.04428" lon="6.83573">
        <ele>860.04</ele>
        <time>2017-08-02T09:00:00Z</time>
      </trkpt>
      <trkpt lat="48.04423" lon="6.83559">
        <ele>860.04</ele>
        <time>2017-08-02T09:00:09Z</time>
      </trkpt>
      <trkpt lat="48.04416" lon="6.83546">
        <ele>859.56</ele>
        <time>2017-08-02T09:00:20Z</time>
      </trkpt>
      <trkpt lat="48.0441" lon="6.83533">
        <ele>858.59</ele>
        <time>2017-08-02T09:00:30Z</time>
      </trkpt>
      <trkpt lat="48.04399" lon="6.83521">
        <ele>858.59</ele>
        <time>2017-08-02T09:00:40Z</time>
      </trkpt>
      <trkpt lat="48.04392" lon="6.83508">
        <ele>857.63</ele>
        <time>2017-08-02T09:00:49Z</time>
      </trkpt>
      <trkpt lat="48.04383" lon="6.83495">
        <ele>857.63</ele>
        <time>2017-08-02T09:00:59Z</time>
      </trkpt>
      <trkpt lat="48.04374" lon="6.83492">
        <ele>857.15</ele>
        <time>2017-08-02T09:01:08Z</time>
      </trkpt>
      <trkpt lat="48.04363" lon="6.8349">
        <ele>858.59</ele>
        <time>2017-08-02T09:01:16Z</time>
      </trkpt>
      <trkpt lat="48.04351" lon="6.83487">
        <ele>859.08</ele>
        <time>2017-08-02T09:01:25Z</time>
      </trkpt>
      <trkpt lat="48.04341" lon="6.83484">
        <ele>858.59</ele>
        <time>2017-08-02T09:01:33Z</time>
      </trkpt>
      <trkpt lat="48.04331" lon="6.83482">
        <ele>858.59</ele>
        <time>2017-08-02T09:01:41Z</time>
      </trkpt>
      <trkpt lat="48.0432" lon="6.83481">
        <ele>857.63</ele>
        <time>2017-08-02T09:01:49Z</time>
      </trkpt>
      <trkpt lat="48.0431" lon="6.83476">
        <ele>857.15</ele>
        <time>2017-08-02T09:01:57Z</time>
      </trkpt>
      <trkpt lat="48.04302" lon="6.83467">
        <ele>857.15</ele>
        <time>2017-08-02T09:02:07Z</time>
      </trkpt>
      <trkpt lat="48.04292" lon="6.83456">
        <ele>857.15</ele>
        <time>2017-08-02T09:02:17Z</time>
      </trkpt>
      <trkpt lat="48.04285" lon="6.83439">
        <ele>857.15</ele>
        <time>2017-08-02T09:02:29Z</time>
      </trkpt>
      <trkpt lat="48.04273" lon="6.83417">
        <ele>857.15</ele>
        <time>2017-08-02T09:02:43Z</time>
      </trkpt>
      <trkpt lat="48.04264" lon="6.83399">
        <ele>858.11</ele>
        <time>2017-08-02T09:02:57Z</time>
      </trkpt>
      <trkpt lat="48.04252" lon="6.83383">
        <ele>858.11</ele>
        <time>2017-08-02T09:03:15Z</time>
      </trkpt>
      <trkpt lat="48.04253" lon="6.83359">
        <ele>859.08</ele>
        <time>2017-08-02T09:03:31Z</time>
      </trkpt>
      <trkpt lat="48.04261" lon="6.83346">
        <ele>859.56</ele>
        <time>2017-08-02T09:03:43Z</time>
      </trkpt>
      <trkpt lat="48.04259" lon="6.83323">
        <ele>860.52</ele>
        <time>2017-08-02T09:03:56Z</time>
      </trkpt>
      <trkpt lat="48.04255" lon="6.83305">
        <ele>861</ele>
        <time>2017-08-02T09:04:10Z</time>
      </trkpt>
      <trkpt lat="48.04251" lon="6.83291">
        <ele>861</ele>
        <time>2017-08-02T09:04:21Z</time>
      </trkpt>
      <trkpt lat="48.04244" lon="6.83275">
        <ele>861.96</ele>
        <time>2017-08-02T09:04:31Z</time>
      </trkpt>
      <trkpt lat="48.04238" lon="6.83259">
        <ele>862.44</ele>
        <time>2017-08-02T09:04:40Z</time>
      </trkpt>
      <trkpt lat="48.04234" lon="6.83244">
        <ele>861.96</ele>
        <time>2017-08-02T09:04:49Z</time>
      </trkpt>
      <trkpt lat="48.04228" lon="6.8323">
        <ele>862.44</ele>
        <time>2017-08-02T09:04:58Z</time>
      </trkpt>
      <trkpt lat="48.04224" lon="6.83216">
        <ele>862.44</ele>
        <time>2017-08-02T09:05:06Z</time>
      </trkpt>
      <trkpt lat="48.04218" lon="6.83201">
        <ele>862.44</ele>
        <time>2017-08-02T09:05:15Z</time>
      </trkpt>
      <trkpt lat="48.04213" lon="6.83185">
        <ele>863.4</ele>
        <time>2017-08-02T09:05:24Z</time>
      </trkpt>
      <trkpt lat="48.0421" lon="6.83168">
        <ele>863.88</ele>
        <time>2017-08-02T09:05:33Z</time>
      </trkpt>
      <trkpt lat="48.04207" lon="6.83152">
        <ele>864.36</ele>
        <time>2017-08-02T09:05:42Z</time>
      </trkpt>
      <trkpt lat="48.04204" lon="6.83138">
        <ele>864.36</ele>
        <time>2017-08-02T09:05:51Z</time>
      </trkpt>
      <trkpt lat="48.04201" lon="6.83122">
        <ele>864.84</ele>
        <time>2017-08-02T09:06:01Z</time>
      </trkpt>
      <trkpt lat="48.04199" lon="6.83106">
        <ele>865.8</ele>
        <time>2017-08-02T09:06:11Z</time>
      </trkpt>
      <trkpt lat="48.04197" lon="6.8309">
        <ele>866.77</ele>
        <time>2017-08-02T09:06:21Z</time>
      </trkpt>
      <trkpt lat="48.04198" lon="6.83074">
        <ele>866.77</ele>
        <time>2017-08-02T09:06:31Z</time>
      </trkpt>
      <trkpt lat="48.04196" lon="6.83056">
        <ele>867.25</ele>
        <time>2017-08-02T09:06:40Z</time>
      </trkpt>
      <trkpt lat="48.04194" lon="6.8304">
        <ele>867.73</ele>
        <time>2017-08-02T09:06:49Z</time>
      </trkpt>
      <trkpt lat="48.04193" lon="6.83024">
        <ele>868.21</ele>
        <time>2017-08-02T09:07:00Z</time>
      </trkpt>
      <trkpt lat="48.04194" lon="6.83007">
        <ele>868.69</ele>
        <time>2017-08-02T09:07:10Z</time>
      </trkpt>
      <trkpt lat="48.04193" lon="6.82991">
        <ele>869.17</ele>
        <time>2017-08-02T09:07:21Z</time>
      </trkpt>
      <trkpt lat="48.04187" lon="6.82972">
        <ele>869.17</ele>
        <time>2017-08-02T09:07:31Z</time>
      </trkpt>
      <trkpt lat="48.04183" lon="6.82957">
        <ele>869.17</ele>
        <time>2017-08-02T09:07:40Z</time>
      </trkpt>
      <trkpt lat="48.04178" lon="6.82943">
        <ele>868.21</ele>
        <time>2017-08-02T09:07:49Z</time>
      </trkpt>
      <trkpt lat="48.04173" lon="6.82926">
        <ele>867.25</ele>
        <time>2017-08-02T09:08:00Z</time>
      </trkpt>
      <trkpt lat="48.0417" lon="6.82906">
        <ele>866.77</ele>
        <time>2017-08-02T09:08:10Z</time>
      </trkpt>
      <trkpt lat="48.0417" lon="6.82888">
        <ele>865.8</ele>
        <time>2017-08-02T09:08:23Z</time>
      </trkpt>
      <trkpt lat="48.04166" lon="6.82861">
        <ele>864.84</ele>
        <time>2017-08-02T09:08:37Z</time>
      </trkpt>
      <trkpt lat="48.04156" lon="6.82842">
        <ele>866.29</ele>
        <time>2017-08-02T09:08:51Z</time>
      </trkpt>
      <trkpt lat="48.04145" lon="6.82824">
        <ele>867.73</ele>
        <time>2017-08-02T09:09:03Z</time>
      </trkpt>
      <trkpt lat="48.04136" lon="6.82807">
        <ele>867.73</ele>
        <time>2017-08-02T09:09:15Z</time>
      </trkpt>
      <trkpt lat="48.04129" lon="6.82787">
        <ele>867.25</ele>
        <time>2017-08-02T09:09:27Z</time>
      </trkpt>
      <trkpt lat="48.04123" lon="6.82767">
        <ele>866.77</ele>
        <time>2017-08-02T09:09:39Z</time>
      </trkpt>
      <trkpt lat="48.04113" lon="6.82747">
        <ele>867.25</ele>
        <time>2017-08-02T09:09:54Z</time>
      </trkpt>
      <trkpt lat="48.04106" lon="6.8273">
        <ele>866.77</ele>
        <time>2017-08-02T09:10:04Z</time>
      </trkpt>
      <trkpt lat="48.04101" lon="6.82713">
        <ele>866.77</ele>
        <time>2017-08-02T09:10:16Z</time>
      </trkpt>
      <trkpt lat="48.04097" lon="6.82692">
        <ele>867.25</ele>
        <time>2017-08-02T09:10:29Z</time>
      </trkpt>
      <trkpt lat="48.041" lon="6.82677">
        <ele>868.21</ele>
        <time>2017-08-02T09:10:40Z</time>
      </trkpt>
      <trkpt lat="48.04102" lon="6.8266">
        <ele>869.17</ele>
        <time>2017-08-02T09:10:51Z</time>
      </trkpt>
      <trkpt lat="48.04098" lon="6.82642">
        <ele>869.17</ele>
        <time>2017-08-02T09:11:04Z</time>
      </trkpt>
      <trkpt lat="48.04095" lon="6.82624">
        <ele>868.69</ele>
        <time>2017-08-02T09:11:15Z</time>
      </trkpt>
      <trkpt lat="48.04089" lon="6.82608">
        <ele>867.73</ele>
        <time>2017-08-02T09:11:26Z</time>
      </trkpt>
      <trkpt lat="48.04086" lon="6.82593">
        <ele>867.25</ele>
        <time>2017-08-02T09:11:36Z</time>
      </trkpt>
      <trkpt lat="48.04084" lon="6.82577">
        <ele>866.77</ele>
        <time>2017-08-02T09:11:45Z</time>
      </trkpt>
      <trkpt lat="48.04085" lon="6.82562">
        <ele>866.29</ele>
        <time>2017-08-02T09:11:56Z</time>
      </trkpt>
      <trkpt lat="48.04081" lon="6.82543">
        <ele>865.8</ele>
        <time>2017-08-02T09:12:08Z</time>
      </trkpt>
      <trkpt lat="48.04081" lon="6.82522">
        <ele>866.77</ele>
        <time>2017-08-02T09:12:20Z</time>
      </trkpt>
      <trkpt lat="48.04086" lon="6.82504">
        <ele>868.21</ele>
        <time>2017-08-02T09:12:31Z</time>
      </trkpt>
      <trkpt lat="48.04088" lon="6.82481">
        <ele>868.21</ele>
        <time>2017-08-02T09:12:47Z</time>
      </trkpt>
      <trkpt lat="48.04093" lon="6.82457">
        <ele>869.65</ele>
        <time>2017-08-02T09:13:04Z</time>
      </trkpt>
      <trkpt lat="48.0409" lon="6.82437">
        <ele>871.09</ele>
        <time>2017-08-02T09:13:20Z</time>
      </trkpt>
      <trkpt lat="48.04092" lon="6.82412">
        <ele>872.05</ele>
        <time>2017-08-02T09:13:37Z</time>
      </trkpt>
      <trkpt lat="48.04089" lon="6.82387">
        <ele>873.01</ele>
        <time>2017-08-02T09:13:52Z</time>
      </trkpt>
      <trkpt lat="48.0409" lon="6.82365">
        <ele>874.46</ele>
        <time>2017-08-02T09:14:06Z</time>
      </trkpt>
      <trkpt lat="48.04089" lon="6.82342">
        <ele>873.5</ele>
        <time>2017-08-02T09:14:19Z</time>
      </trkpt>
      <trkpt lat="48.04083" lon="6.82325">
        <ele>873.5</ele>
        <time>2017-08-02T09:14:38Z</time>
      </trkpt>
      <trkpt lat="48.04086" lon="6.82311">
        <ele>872.53</ele>
        <time>2017-08-02T09:14:50Z</time>
      </trkpt>
      <trkpt lat="48.04087" lon="6.82294">
        <ele>871.57</ele>
        <time>2017-08-02T09:14:59Z</time>
      </trkpt>
      <trkpt lat="48.04088" lon="6.82281">
        <ele>871.09</ele>
        <time>2017-08-02T09:15:11Z</time>
      </trkpt>
      <trkpt lat="48.04092" lon="6.82263">
        <ele>870.61</ele>
        <time>2017-08-02T09:15:20Z</time>
      </trkpt>
      <trkpt lat="48.04096" lon="6.82245">
        <ele>870.61</ele>
        <time>2017-08-02T09:15:31Z</time>
      </trkpt>
      <trkpt lat="48.04098" lon="6.82232">
        <ele>870.13</ele>
        <time>2017-08-02T09:15:40Z</time>
      </trkpt>
      <trkpt lat="48.041" lon="6.82216">
        <ele>868.69</ele>
        <time>2017-08-02T09:15:49Z</time>
      </trkpt>
      <trkpt lat="48.04103" lon="6.82199">
        <ele>868.69</ele>
        <time>2017-08-02T09:15:57Z</time>
      </trkpt>
      <trkpt lat="48.04105" lon="6.8218">
        <ele>867.25</ele>
        <time>2017-08-02T09:16:08Z</time>
      </trkpt>
      <trkpt lat="48.04105" lon="6.82164">
        <ele>867.25</ele>
        <time>2017-08-02T09:16:16Z</time>
      </trkpt>
      <trkpt lat="48.04107" lon="6.82148">
        <ele>866.77</ele>
        <time>2017-08-02T09:16:24Z</time>
      </trkpt>
      <trkpt lat="48.04107" lon="6.82133">
        <ele>866.77</ele>
        <time>2017-08-02T09:16:32Z</time>
      </trkpt>
      <trkpt lat="48.04111" lon="6.82119">
        <ele>866.77</ele>
        <time>2017-08-02T09:16:40Z</time>
      </trkpt>
      <trkpt lat="48.04115" lon="6.82094">
        <ele>866.77</ele>
        <time>2017-08-02T09:16:53Z</time>
      </trkpt>
      <trkpt lat="48.04121" lon="6.82074">
        <ele>868.21</ele>
        <time>2017-08-02T09:17:03Z</time>
      </trkpt>
      <trkpt lat="48.04129" lon="6.82053">
        <ele>869.65</ele>
        <time>2017-08-02T09:17:15Z</time>
      </trkpt>
      <trkpt lat="48.04132" lon="6.82038">
        <ele>871.09</ele>
        <time>2017-08-02T09:17:24Z</time>
      </trkpt>
      <trkpt lat="48.04131" lon="6.8202">
        <ele>871.57</ele>
        <time>2017-08-02T09:17:33Z</time>
      </trkpt>
      <trkpt lat="48.04131" lon="6.82006">
        <ele>872.05</ele>
        <time>2017-08-02T09:17:42Z</time>
      </trkpt>
      <trkpt lat="48.04137" lon="6.81973">
        <ele>872.05</ele>
        <time>2017-08-02T09:18:02Z</time>
      </trkpt>
      <trkpt lat="48.04134" lon="6.81938">
        <ele>872.53</ele>
        <time>2017-08-02T09:18:14Z</time>
      </trkpt>
      <trkpt lat="48.04133" lon="6.81918">
        <ele>873.01</ele>
        <time>2017-08-02T09:18:23Z</time>
      </trkpt>
      <trkpt lat="48.04133" lon="6.81898">
        <ele>873.5</ele>
        <time>2017-08-02T09:18:34Z</time>
      </trkpt>
      <trkpt lat="48.04136" lon="6.81865">
        <ele>873.98</ele>
        <time>2017-08-02T09:18:51Z</time>
      </trkpt>
      <trkpt lat="48.04137" lon="6.81848">
        <ele>874.46</ele>
        <time>2017-08-02T09:19:01Z</time>
      </trkpt>
      <trkpt lat="48.04135" lon="6.81813">
        <ele>873.98</ele>
        <time>2017-08-02T09:19:16Z</time>
      </trkpt>
      <trkpt lat="48.04135" lon="6.81792">
        <ele>873.01</ele>
        <time>2017-08-02T09:19:30Z</time>
      </trkpt>
      <trkpt lat="48.04136" lon="6.81768">
        <ele>870.61</ele>
        <time>2017-08-02T09:19:47Z</time>
      </trkpt>
      <trkpt lat="48.04136" lon="6.81737">
        <ele>869.17</ele>
        <time>2017-08-02T09:20:03Z</time>
      </trkpt>
      <trkpt lat="48.04144" lon="6.81718">
        <ele>868.69</ele>
        <time>2017-08-02T09:20:16Z</time>
      </trkpt>
      <trkpt lat="48.04146" lon="6.81695">
        <ele>867.25</ele>
        <time>2017-08-02T09:20:28Z</time>
      </trkpt>
      <trkpt lat="48.04145" lon="6.81668">
        <ele>866.29</ele>
        <time>2017-08-02T09:20:40Z</time>
      </trkpt>
      <trkpt lat="48.04142" lon="6.81647">
        <ele>864.84</ele>
        <time>2017-08-02T09:20:54Z</time>
      </trkpt>
      <trkpt lat="48.04158" lon="6.81643">
        <ele>862.44</ele>
        <time>2017-08-02T09:21:30Z</time>
      </trkpt>
      <trkpt lat="48.04165" lon="6.81651">
        <ele>861</ele>
        <time>2017-08-02T09:21:57Z</time>
      </trkpt>
      <trkpt lat="48.0417" lon="6.81671">
        <ele>860.04</ele>
        <time>2017-08-02T09:22:43Z</time>
      </trkpt>
      <trkpt lat="48.04181" lon="6.81683">
        <ele>859.08</ele>
        <time>2017-08-02T09:22:59Z</time>
      </trkpt>
      <trkpt lat="48.04195" lon="6.81689">
        <ele>857.63</ele>
        <time>2017-08-02T09:23:14Z</time>
      </trkpt>
      <trkpt lat="48.04208" lon="6.81697">
        <ele>856.19</ele>
        <time>2017-08-02T09:23:23Z</time>
      </trkpt>
      <trkpt lat="48.04218" lon="6.81704">
        <ele>856.19</ele>
        <time>2017-08-02T09:23:32Z</time>
      </trkpt>
      <trkpt lat="48.04233" lon="6.81708">
        <ele>856.19</ele>
        <time>2017-08-02T09:23:44Z</time>
      </trkpt>
      <trkpt lat="48.0424" lon="6.81696">
        <ele>856.19</ele>
        <time>2017-08-02T09:23:55Z</time>
      </trkpt>
      <trkpt lat="48.04245" lon="6.81684">
        <ele>855.71</ele>
        <time>2017-08-02T09:24:06Z</time>
      </trkpt>
      <trkpt lat="48.04256" lon="6.81669">
        <ele>855.23</ele>
        <time>2017-08-02T09:24:16Z</time>
      </trkpt>
      <trkpt lat="48.04263" lon="6.81659">
        <ele>855.23</ele>
        <time>2017-08-02T09:24:24Z</time>
      </trkpt>
      <trkpt lat="48.04268" lon="6.81648">
        <ele>854.75</ele>
        <time>2017-08-02T09:24:32Z</time>
      </trkpt>
      <trkpt lat="48.04272" lon="6.81635">
        <ele>854.75</ele>
        <time>2017-08-02T09:24:41Z</time>
      </trkpt>
      <trkpt lat="48.04278" lon="6.81623">
        <ele>854.27</ele>
        <time>2017-08-02T09:24:50Z</time>
      </trkpt>
      <trkpt lat="48.04286" lon="6.8161">
        <ele>854.27</ele>
        <time>2017-08-02T09:25:00Z</time>
      </trkpt>
      <trkpt lat="48.04296" lon="6.81603">
        <ele>854.75</ele>
        <time>2017-08-02T09:25:09Z</time>
      </trkpt>
      <trkpt lat="48.04304" lon="6.81595">
        <ele>855.23</ele>
        <time>2017-08-02T09:25:17Z</time>
      </trkpt>
      <trkpt lat="48.04312" lon="6.81584">
        <ele>855.23</ele>
        <time>2017-08-02T09:25:26Z</time>
      </trkpt>
      <trkpt lat="48.04316" lon="6.8157">
        <ele>854.75</ele>
        <time>2017-08-02T09:25:35Z</time>
      </trkpt>
      <trkpt lat="48.04322" lon="6.81554">
        <ele>854.27</ele>
        <time>2017-08-02T09:25:43Z</time>
      </trkpt>
      <trkpt lat="48.04327" lon="6.8154">
        <ele>854.27</ele>
        <time>2017-08-02T09:25:52Z</time>
      </trkpt>
      <trkpt lat="48.04332" lon="6.81526">
        <ele>854.27</ele>
        <time>2017-08-02T09:26:01Z</time>
      </trkpt>
      <trkpt lat="48.0434" lon="6.81511">
        <ele>854.27</ele>
        <time>2017-08-02T09:26:12Z</time>
      </trkpt>
      <trkpt lat="48.0435" lon="6.81494">
        <ele>854.27</ele>
        <time>2017-08-02T09:26:24Z</time>
      </trkpt>
      <trkpt lat="48.04358" lon="6.81481">
        <ele>854.27</ele>
        <time>2017-08-02T09:26:34Z</time>
      </trkpt>
      <trkpt lat="48.04368" lon="6.81463">
        <ele>854.27</ele>
        <time>2017-08-02T09:26:44Z</time>
      </trkpt>
      <trkpt lat="48.04375" lon="6.81449">
        <ele>854.27</ele>
        <time>2017-08-02T09:26:53Z</time>
      </trkpt>
      <trkpt lat="48.04383" lon="6.81433">
        <ele>854.27</ele>
        <time>2017-08-02T09:27:04Z</time>
      </trkpt>
      <trkpt lat="48.04392" lon="6.81418">
        <ele>854.27</ele>
        <time>2017-08-02T09:27:14Z</time>
      </trkpt>
      <trkpt lat="48.04404" lon="6.814">
        <ele>854.27</ele>
        <time>2017-08-02T09:27:27Z</time>
      </trkpt>
      <trkpt lat="48.04416" lon="6.81382">
        <ele>854.75</ele>
        <time>2017-08-02T09:27:41Z</time>
      </trkpt>
      <trkpt lat="48.04429" lon="6.81368">
        <ele>854.75</ele>
        <time>2017-08-02T09:27:55Z</time>
      </trkpt>
      <trkpt lat="48.04438" lon="6.81357">
        <ele>855.23</ele>
        <time>2017-08-02T09:28:10Z</time>
      </trkpt>
      <trkpt lat="48.04453" lon="6.81341">
        <ele>856.67</ele>
        <time>2017-08-02T09:28:23Z</time>
      </trkpt>
      <trkpt lat="48.0447" lon="6.81331">
        <ele>857.63</ele>
        <time>2017-08-02T09:28:36Z</time>
      </trkpt>
      <trkpt lat="48.04481" lon="6.81328">
        <ele>858.11</ele>
        <time>2017-08-02T09:28:49Z</time>
      </trkpt>
      <trkpt lat="48.04492" lon="6.81326">
        <ele>859.56</ele>
        <time>2017-08-02T09:28:59Z</time>
      </trkpt>
      <trkpt lat="48.04508" lon="6.81325">
        <ele>859.56</ele>
        <time>2017-08-02T09:29:07Z</time>
      </trkpt>
      <trkpt lat="48.04522" lon="6.81325">
        <ele>859.56</ele>
        <time>2017-08-02T09:29:14Z</time>
      </trkpt>
      <trkpt lat="48.0453" lon="6.81315">
        <ele>859.56</ele>
        <time>2017-08-02T09:29:22Z</time>
      </trkpt>
      <trkpt lat="48.04538" lon="6.81304">
        <ele>860.52</ele>
        <time>2017-08-02T09:29:31Z</time>
      </trkpt>
      <trkpt lat="48.04547" lon="6.8129">
        <ele>861.48</ele>
        <time>2017-08-02T09:29:40Z</time>
      </trkpt>
      <trkpt lat="48.04554" lon="6.81281">
        <ele>861.96</ele>
        <time>2017-08-02T09:29:50Z</time>
      </trkpt>
      <trkpt lat="48.04561" lon="6.81267">
        <ele>861.96</ele>
        <time>2017-08-02T09:30:01Z</time>
      </trkpt>
      <trkpt lat="48.04569" lon="6.81253">
        <ele>862.92</ele>
        <time>2017-08-02T09:30:13Z</time>
      </trkpt>
      <trkpt lat="48.0457" lon="6.81232">
        <ele>862.92</ele>
        <time>2017-08-02T09:30:24Z</time>
      </trkpt>
      <trkpt lat="48.04567" lon="6.81218">
        <ele>861.96</ele>
        <time>2017-08-02T09:31:39Z</time>
      </trkpt>
      <trkpt lat="48.04563" lon="6.81206">
        <ele>862.92</ele>
        <time>2017-08-02T09:31:53Z</time>
      </trkpt>
      <trkpt lat="48.04555" lon="6.81196">
        <ele>862.44</ele>
        <time>2017-08-02T09:32:02Z</time>
      </trkpt>
      <trkpt lat="48.04547" lon="6.81187">
        <ele>862.44</ele>
        <time>2017-08-02T09:32:10Z</time>
      </trkpt>
      <trkpt lat="48.04538" lon="6.81178">
        <ele>862.44</ele>
        <time>2017-08-02T09:32:18Z</time>
      </trkpt>
      <trkpt lat="48.04527" lon="6.81169">
        <ele>861.96</ele>
        <time>2017-08-02T09:32:27Z</time>
      </trkpt>
      <trkpt lat="48.04515" lon="6.81164">
        <ele>861.48</ele>
        <time>2017-08-02T09:32:35Z</time>
      </trkpt>
      <trkpt lat="48.04506" lon="6.81157">
        <ele>861.48</ele>
        <time>2017-08-02T09:32:43Z</time>
      </trkpt>
      <trkpt lat="48.04497" lon="6.81149">
        <ele>861</ele>
        <time>2017-08-02T09:32:51Z</time>
      </trkpt>
      <trkpt lat="48.04488" lon="6.8114">
        <ele>861</ele>
        <time>2017-08-02T09:32:58Z</time>
      </trkpt>
      <trkpt lat="48.04479" lon="6.81128">
        <ele>860.52</ele>
        <time>2017-08-02T09:33:06Z</time>
      </trkpt>
      <trkpt lat="48.04469" lon="6.81112">
        <ele>861</ele>
        <time>2017-08-02T09:33:15Z</time>
      </trkpt>
      <trkpt lat="48.04462" lon="6.81101">
        <ele>860.52</ele>
        <time>2017-08-02T09:33:23Z</time>
      </trkpt>
      <trkpt lat="48.04455" lon="6.8109">
        <ele>860.52</ele>
        <time>2017-08-02T09:33:31Z</time>
      </trkpt>
      <trkpt lat="48.04445" lon="6.81079">
        <ele>860.04</ele>
        <time>2017-08-02T09:33:41Z</time>
      </trkpt>
      <trkpt lat="48.04438" lon="6.81067">
        <ele>859.56</ele>
        <time>2017-08-02T09:33:50Z</time>
      </trkpt>
      <trkpt lat="48.04431" lon="6.81054">
        <ele>860.52</ele>
        <time>2017-08-02T09:33:59Z</time>
      </trkpt>
      <trkpt lat="48.04425" lon="6.8104">
        <ele>859.56</ele>
        <time>2017-08-02T09:34:09Z</time>
      </trkpt>
      <trkpt lat="48.04421" lon="6.8102">
        <ele>860.04</ele>
        <time>2017-08-02T09:34:19Z</time>
      </trkpt>
      <trkpt lat="48.04416" lon="6.81001">
        <ele>860.04</ele>
        <time>2017-08-02T09:34:29Z</time>
      </trkpt>
      <trkpt lat="48.04415" lon="6.80983">
        <ele>859.56</ele>
        <time>2017-08-02T09:34:40Z</time>
      </trkpt>
      <trkpt lat="48.04413" lon="6.80964">
        <ele>859.56</ele>
        <time>2017-08-02T09:34:50Z</time>
      </trkpt>
      <trkpt lat="48.04414" lon="6.80945">
        <ele>859.56</ele>
        <time>2017-08-02T09:35:00Z</time>
      </trkpt>
      <trkpt lat="48.04414" lon="6.80929">
        <ele>859.08</ele>
        <time>2017-08-02T09:35:08Z</time>
      </trkpt>
      <trkpt lat="48.04414" lon="6.80913">
        <ele>859.56</ele>
        <time>2017-08-02T09:35:16Z</time>
      </trkpt>
      <trkpt lat="48.04413" lon="6.80896">
        <ele>859.08</ele>
        <time>2017-08-02T09:35:24Z</time>
      </trkpt>
      <trkpt lat="48.04416" lon="6.8088">
        <ele>859.08</ele>
        <time>2017-08-02T09:35:32Z</time>
      </trkpt>
      <trkpt lat="48.04419" lon="6.80865">
        <ele>859.08</ele>
        <time>2017-08-02T09:35:40Z</time>
      </trkpt>
      <trkpt lat="48.04423" lon="6.80848">
        <ele>859.08</ele>
        <time>2017-08-02T09:35:49Z</time>
      </trkpt>
      <trkpt lat="48.04426" lon="6.80834">
        <ele>858.59</ele>
        <time>2017-08-02T09:35:57Z</time>
      </trkpt>
      <trkpt lat="48.04431" lon="6.80818">
        <ele>859.08</ele>
        <time>2017-08-02T09:36:06Z</time>
      </trkpt>
      <trkpt lat="48.04435" lon="6.80803">
        <ele>858.59</ele>
        <time>2017-08-02T09:36:15Z</time>
      </trkpt>
      <trkpt lat="48.04438" lon="6.80789">
        <ele>858.11</ele>
        <time>2017-08-02T09:36:23Z</time>
      </trkpt>
      <trkpt lat="48.04442" lon="6.80773">
        <ele>858.11</ele>
        <time>2017-08-02T09:36:31Z</time>
      </trkpt>
      <trkpt lat="48.04446" lon="6.80759">
        <ele>858.11</ele>
        <time>2017-08-02T09:36:39Z</time>
      </trkpt>
      <trkpt lat="48.04449" lon="6.80746">
        <ele>857.15</ele>
        <time>2017-08-02T09:36:46Z</time>
      </trkpt>
      <trkpt lat="48.04454" lon="6.80732">
        <ele>857.15</ele>
        <time>2017-08-02T09:36:54Z</time>
      </trkpt>
      <trkpt lat="48.04458" lon="6.80719">
        <ele>857.63</ele>
        <time>2017-08-02T09:37:02Z</time>
      </trkpt>
      <trkpt lat="48.04461" lon="6.80705">
        <ele>857.63</ele>
        <time>2017-08-02T09:37:10Z</time>
      </trkpt>
      <trkpt lat="48.04463" lon="6.80691">
        <ele>857.15</ele>
        <time>2017-08-02T09:37:18Z</time>
      </trkpt>
      <trkpt lat="48.04468" lon="6.80676">
        <ele>857.15</ele>
        <time>2017-08-02T09:37:26Z</time>
      </trkpt>
      <trkpt lat="48.04474" lon="6.80663">
        <ele>856.67</ele>
        <time>2017-08-02T09:37:34Z</time>
      </trkpt>
      <trkpt lat="48.04478" lon="6.8065">
        <ele>856.67</ele>
        <time>2017-08-02T09:37:42Z</time>
      </trkpt>
      <trkpt lat="48.04483" lon="6.80633">
        <ele>857.15</ele>
        <time>2017-08-02T09:37:51Z</time>
      </trkpt>
      <trkpt lat="48.04488" lon="6.80619">
        <ele>856.67</ele>
        <time>2017-08-02T09:38:00Z</time>
      </trkpt>
      <trkpt lat="48.04489" lon="6.80601">
        <ele>856.67</ele>
        <time>2017-08-02T09:38:10Z</time>
      </trkpt>
      <trkpt lat="48.04493" lon="6.80585">
        <ele>856.19</ele>
        <time>2017-08-02T09:38:19Z</time>
      </trkpt>
      <trkpt lat="48.04496" lon="6.80569">
        <ele>856.67</ele>
        <time>2017-08-02T09:38:29Z</time>
      </trkpt>
      <trkpt lat="48.04496" lon="6.80555">
        <ele>856.19</ele>
        <time>2017-08-02T09:38:37Z</time>
      </trkpt>
      <trkpt lat="48.04495" lon="6.80539">
        <ele>856.19</ele>
        <time>2017-08-02T09:38:46Z</time>
      </trkpt>
      <trkpt lat="48.04492" lon="6.80525">
        <ele>856.19</ele>
        <time>2017-08-02T09:38:55Z</time>
      </trkpt>
      <trkpt lat="48.04492" lon="6.80508">
        <ele>856.19</ele>
        <time>2017-08-02T09:39:04Z</time>
      </trkpt>
      <trkpt lat="48.04492" lon="6.80489">
        <ele>855.71</ele>
        <time>2017-08-02T09:39:14Z</time>
      </trkpt>
      <trkpt lat="48.04488" lon="6.80472">
        <ele>855.71</ele>
        <time>2017-08-02T09:39:23Z</time>
      </trkpt>
      <trkpt lat="48.04482" lon="6.80464">
        <ele>855.23</ele>
        <time>2017-08-02T09:39:31Z</time>
      </trkpt>
      <trkpt lat="48.04473" lon="6.80461">
        <ele>855.23</ele>
        <time>2017-08-02T09:39:39Z</time>
      </trkpt>
      <trkpt lat="48.04463" lon="6.80458">
        <ele>856.19</ele>
        <time>2017-08-02T09:39:47Z</time>
      </trkpt>
      <trkpt lat="48.04452" lon="6.8046">
        <ele>855.71</ele>
        <time>2017-08-02T09:39:55Z</time>
      </trkpt>
      <trkpt lat="48.04442" lon="6.80462">
        <ele>855.23</ele>
        <time>2017-08-02T09:40:04Z</time>
      </trkpt>
      <trkpt lat="48.04431" lon="6.80463">
        <ele>855.71</ele>
        <time>2017-08-02T09:40:12Z</time>
      </trkpt>
      <trkpt lat="48.04418" lon="6.80463">
        <ele>855.71</ele>
        <time>2017-08-02T09:40:22Z</time>
      </trkpt>
      <trkpt lat="48.04407" lon="6.80465">
        <ele>855.71</ele>
        <time>2017-08-02T09:40:30Z</time>
      </trkpt>
      <trkpt lat="48.04396" lon="6.80466">
        <ele>855.71</ele>
        <time>2017-08-02T09:40:40Z</time>
      </trkpt>
      <trkpt lat="48.04386" lon="6.80464">
        <ele>855.71</ele>
        <time>2017-08-02T09:40:49Z</time>
      </trkpt>
      <trkpt lat="48.04375" lon="6.80463">
        <ele>855.71</ele>
        <time>2017-08-02T09:40:58Z</time>
      </trkpt>
      <trkpt lat="48.04365" lon="6.80464">
        <ele>855.71</ele>
        <time>2017-08-02T09:41:07Z</time>
      </trkpt>
      <trkpt lat="48.04354" lon="6.80461">
        <ele>855.71</ele>
        <time>2017-08-02T09:41:17Z</time>
      </trkpt>
      <trkpt lat="48.04343" lon="6.80457">
        <ele>855.71</ele>
        <time>2017-08-02T09:41:27Z</time>
      </trkpt>
      <trkpt lat="48.04332" lon="6.80455">
        <ele>855.71</ele>
        <time>2017-08-02T09:41:36Z</time>
      </trkpt>
      <trkpt lat="48.04321" lon="6.80454">
        <ele>855.71</ele>
        <time>2017-08-02T09:41:45Z</time>
      </trkpt>
      <trkpt lat="48.04309" lon="6.80451">
        <ele>855.23</ele>
        <time>2017-08-02T09:41:54Z</time>
      </trkpt>
      <trkpt lat="48.04299" lon="6.80448">
        <ele>855.23</ele>
        <time>2017-08-02T09:42:03Z</time>
      </trkpt>
      <trkpt lat="48.04287" lon="6.80446">
        <ele>855.71</ele>
        <time>2017-08-02T09:42:13Z</time>
      </trkpt>
      <trkpt lat="48.04275" lon="6.80444">
        <ele>856.19</ele>
        <time>2017-08-02T09:42:22Z</time>
      </trkpt>
      <trkpt lat="48.04266" lon="6.80442">
        <ele>855.71</ele>
        <time>2017-08-02T09:42:30Z</time>
      </trkpt>
      <trkpt lat="48.04258" lon="6.80432">
        <ele>856.19</ele>
        <time>2017-08-02T09:42:40Z</time>
      </trkpt>
      <trkpt lat="48.04249" lon="6.80423">
        <ele>856.19</ele>
        <time>2017-08-02T09:42:49Z</time>
      </trkpt>
      <trkpt lat="48.04241" lon="6.80412">
        <ele>856.19</ele>
        <time>2017-08-02T09:42:58Z</time>
      </trkpt>
      <trkpt lat="48.04234" lon="6.80402">
        <ele>856.19</ele>
        <time>2017-08-02T09:43:06Z</time>
      </trkpt>
      <trkpt lat="48.04227" lon="6.8039">
        <ele>856.19</ele>
        <time>2017-08-02T09:43:14Z</time>
      </trkpt>
      <trkpt lat="48.04219" lon="6.80379">
        <ele>856.67</ele>
        <time>2017-08-02T09:43:23Z</time>
      </trkpt>
      <trkpt lat="48.04209" lon="6.80368">
        <ele>856.67</ele>
        <time>2017-08-02T09:43:32Z</time>
      </trkpt>
      <trkpt lat="48.042" lon="6.80357">
        <ele>856.19</ele>
        <time>2017-08-02T09:43:40Z</time>
      </trkpt>
      <trkpt lat="48.04192" lon="6.80345">
        <ele>856.19</ele>
        <time>2017-08-02T09:43:49Z</time>
      </trkpt>
      <trkpt lat="48.04188" lon="6.80332">
        <ele>856.19</ele>
        <time>2017-08-02T09:43:57Z</time>
      </trkpt>
      <trkpt lat="48.0418" lon="6.80319">
        <ele>856.19</ele>
        <time>2017-08-02T09:44:05Z</time>
      </trkpt>
      <trkpt lat="48.04173" lon="6.80306">
        <ele>855.71</ele>
        <time>2017-08-02T09:44:14Z</time>
      </trkpt>
      <trkpt lat="48.04167" lon="6.80294">
        <ele>856.19</ele>
        <time>2017-08-02T09:44:22Z</time>
      </trkpt>
      <trkpt lat="48.04161" lon="6.80282">
        <ele>856.19</ele>
        <time>2017-08-02T09:44:31Z</time>
      </trkpt>
      <trkpt lat="48.04154" lon="6.8027">
        <ele>856.19</ele>
        <time>2017-08-02T09:44:40Z</time>
      </trkpt>
      <trkpt lat="48.04148" lon="6.80255">
        <ele>856.19</ele>
        <time>2017-08-02T09:44:48Z</time>
      </trkpt>
      <trkpt lat="48.04141" lon="6.80244">
        <ele>856.67</ele>
        <time>2017-08-02T09:44:56Z</time>
      </trkpt>
      <trkpt lat="48.04133" lon="6.80232">
        <ele>857.15</ele>
        <time>2017-08-02T09:45:05Z</time>
      </trkpt>
      <trkpt lat="48.04127" lon="6.8022">
        <ele>856.67</ele>
        <time>2017-08-02T09:45:18Z</time>
      </trkpt>
      <trkpt lat="48.04121" lon="6.80205">
        <ele>856.67</ele>
        <time>2017-08-02T09:45:30Z</time>
      </trkpt>
      <trkpt lat="48.04115" lon="6.80194">
        <ele>857.15</ele>
        <time>2017-08-02T09:45:41Z</time>
      </trkpt>
      <trkpt lat="48.04107" lon="6.80178">
        <ele>857.15</ele>
        <time>2017-08-02T09:45:53Z</time>
      </trkpt>
      <trkpt lat="48.04103" lon="6.80162">
        <ele>857.15</ele>
        <time>2017-08-02T09:46:04Z</time>
      </trkpt>
      <trkpt lat="48.04099" lon="6.80149">
        <ele>857.63</ele>
        <time>2017-08-02T09:46:13Z</time>
      </trkpt>
      <trkpt lat="48.04093" lon="6.80135">
        <ele>857.63</ele>
        <time>2017-08-02T09:46:23Z</time>
      </trkpt>
      <trkpt lat="48.04088" lon="6.80119">
        <ele>857.15</ele>
        <time>2017-08-02T09:46:34Z</time>
      </trkpt>
      <trkpt lat="48.04085" lon="6.801">
        <ele>858.11</ele>
        <time>2017-08-02T09:46:45Z</time>
      </trkpt>
      <trkpt lat="48.04083" lon="6.80083">
        <ele>857.63</ele>
        <time>2017-08-02T09:46:55Z</time>
      </trkpt>
      <trkpt lat="48.04075" lon="6.80069">
        <ele>858.59</ele>
        <time>2017-08-02T09:47:06Z</time>
      </trkpt>
      <trkpt lat="48.04068" lon="6.80056">
        <ele>859.08</ele>
        <time>2017-08-02T09:47:17Z</time>
      </trkpt>
      <trkpt lat="48.04061" lon="6.80041">
        <ele>859.08</ele>
        <time>2017-08-02T09:47:28Z</time>
      </trkpt>
      <trkpt lat="48.04056" lon="6.80026">
        <ele>859.08</ele>
        <time>2017-08-02T09:47:38Z</time>
      </trkpt>
      <trkpt lat="48.04053" lon="6.80008">
        <ele>859.56</ele>
        <time>2017-08-02T09:47:48Z</time>
      </trkpt>
      <trkpt lat="48.04049" lon="6.79991">
        <ele>860.52</ele>
        <time>2017-08-02T09:47:59Z</time>
      </trkpt>
      <trkpt lat="48.04046" lon="6.79969">
        <ele>860.52</ele>
        <time>2017-08-02T09:48:11Z</time>
      </trkpt>
      <trkpt lat="48.04047" lon="6.79949">
        <ele>861.48</ele>
        <time>2017-08-02T09:48:23Z</time>
      </trkpt>
      <trkpt lat="48.04046" lon="6.79929">
        <ele>861.48</ele>
        <time>2017-08-02T09:48:33Z</time>
      </trkpt>
      <trkpt lat="48.04043" lon="6.79906">
        <ele>861</ele>
        <time>2017-08-02T09:48:47Z</time>
      </trkpt>
      <trkpt lat="48.04046" lon="6.7989">
        <ele>861.96</ele>
        <time>2017-08-02T09:48:57Z</time>
      </trkpt>
      <trkpt lat="48.04048" lon="6.79878">
        <ele>861.96</ele>
        <time>2017-08-02T09:49:09Z</time>
      </trkpt>
      <trkpt lat="48.04051" lon="6.79861">
        <ele>862.44</ele>
        <time>2017-08-02T09:49:18Z</time>
      </trkpt>
      <trkpt lat="48.04053" lon="6.79843">
        <ele>863.4</ele>
        <time>2017-08-02T09:49:28Z</time>
      </trkpt>
      <trkpt lat="48.04057" lon="6.79825">
        <ele>863.88</ele>
        <time>2017-08-02T09:49:40Z</time>
      </trkpt>
      <trkpt lat="48.04063" lon="6.79807">
        <ele>864.84</ele>
        <time>2017-08-02T09:49:51Z</time>
      </trkpt>
      <trkpt lat="48.04068" lon="6.79788">
        <ele>865.8</ele>
        <time>2017-08-02T09:50:02Z</time>
      </trkpt>
      <trkpt lat="48.04076" lon="6.79772">
        <ele>866.29</ele>
        <time>2017-08-02T09:50:12Z</time>
      </trkpt>
      <trkpt lat="48.0408" lon="6.79756">
        <ele>866.29</ele>
        <time>2017-08-02T09:50:23Z</time>
      </trkpt>
      <trkpt lat="48.04086" lon="6.79742">
        <ele>867.25</ele>
        <time>2017-08-02T09:50:33Z</time>
      </trkpt>
      <trkpt lat="48.04091" lon="6.79724">
        <ele>867.73</ele>
        <time>2017-08-02T09:50:43Z</time>
      </trkpt>
      <trkpt lat="48.04096" lon="6.79709">
        <ele>868.21</ele>
        <time>2017-08-02T09:50:53Z</time>
      </trkpt>
      <trkpt lat="48.041" lon="6.79695">
        <ele>869.17</ele>
        <time>2017-08-02T09:51:03Z</time>
      </trkpt>
      <trkpt lat="48.04108" lon="6.79681">
        <ele>870.13</ele>
        <time>2017-08-02T09:51:13Z</time>
      </trkpt>
      <trkpt lat="48.04117" lon="6.79667">
        <ele>870.13</ele>
        <time>2017-08-02T09:51:24Z</time>
      </trkpt>
      <trkpt lat="48.0412" lon="6.79656">
        <ele>871.09</ele>
        <time>2017-08-02T09:51:35Z</time>
      </trkpt>
      <trkpt lat="48.0412" lon="6.79644">
        <ele>870.13</ele>
        <time>2017-08-02T09:53:55Z</time>
      </trkpt>
      <trkpt lat="48.0412" lon="6.79624">
        <ele>871.09</ele>
        <time>2017-08-02T09:54:13Z</time>
      </trkpt>
      <trkpt lat="48.04116" lon="6.79602">
        <ele>872.53</ele>
        <time>2017-08-02T09:54:32Z</time>
      </trkpt>
      <trkpt lat="48.04118" lon="6.79562">
        <ele>873.98</ele>
        <time>2017-08-02T09:54:50Z</time>
      </trkpt>
      <trkpt lat="48.04116" lon="6.79536">
        <ele>875.42</ele>
        <time>2017-08-02T09:55:01Z</time>
      </trkpt>
      <trkpt lat="48.04113" lon="6.79513">
        <ele>875.9</ele>
        <time>2017-08-02T09:55:14Z</time>
      </trkpt>
      <trkpt lat="48.04108" lon="6.79491">
        <ele>876.38</ele>
        <time>2017-08-02T09:55:25Z</time>
      </trkpt>
      <trkpt lat="48.04106" lon="6.79469">
        <ele>876.86</ele>
        <time>2017-08-02T09:55:40Z</time>
      </trkpt>
      <trkpt lat="48.04103" lon="6.79446">
        <ele>878.3</ele>
        <time>2017-08-02T09:55:55Z</time>
      </trkpt>
      <trkpt lat="48.04103" lon="6.79422">
        <ele>879.26</ele>
        <time>2017-08-02T09:56:08Z</time>
      </trkpt>
      <trkpt lat="48.04098" lon="6.79401">
        <ele>880.22</ele>
        <time>2017-08-02T09:56:24Z</time>
      </trkpt>
      <trkpt lat="48.04091" lon="6.79385">
        <ele>880.71</ele>
        <time>2017-08-02T09:56:37Z</time>
      </trkpt>
      <trkpt lat="48.04087" lon="6.79363">
        <ele>881.19</ele>
        <time>2017-08-02T09:56:50Z</time>
      </trkpt>
      <trkpt lat="48.04086" lon="6.79336">
        <ele>882.15</ele>
        <time>2017-08-02T09:57:05Z</time>
      </trkpt>
      <trkpt lat="48.04078" lon="6.7931">
        <ele>883.59</ele>
        <time>2017-08-02T09:57:25Z</time>
      </trkpt>
      <trkpt lat="48.04076" lon="6.79282">
        <ele>884.07</ele>
        <time>2017-08-02T09:57:37Z</time>
      </trkpt>
      <trkpt lat="48.04066" lon="6.79261">
        <ele>884.55</ele>
        <time>2017-08-02T09:57:49Z</time>
      </trkpt>
      <trkpt lat="48.04066" lon="6.79235">
        <ele>886.47</ele>
        <time>2017-08-02T09:58:05Z</time>
      </trkpt>
      <trkpt lat="48.04061" lon="6.79211">
        <ele>887.91</ele>
        <time>2017-08-02T09:58:23Z</time>
      </trkpt>
      <trkpt lat="48.04053" lon="6.79185">
        <ele>889.36</ele>
        <time>2017-08-02T09:58:39Z</time>
      </trkpt>
      <trkpt lat="48.04046" lon="6.79158">
        <ele>890.32</ele>
        <time>2017-08-02T09:58:53Z</time>
      </trkpt>
      <trkpt lat="48.04033" lon="6.79152">
        <ele>891.28</ele>
        <time>2017-08-02T09:59:04Z</time>
      </trkpt>
      <trkpt lat="48.04024" lon="6.7914">
        <ele>891.76</ele>
        <time>2017-08-02T09:59:16Z</time>
      </trkpt>
      <trkpt lat="48.04016" lon="6.79131">
        <ele>893.2</ele>
        <time>2017-08-02T09:59:26Z</time>
      </trkpt>
      <trkpt lat="48.04007" lon="6.79122">
        <ele>893.2</ele>
        <time>2017-08-02T09:59:36Z</time>
      </trkpt>
      <trkpt lat="48.03999" lon="6.79111">
        <ele>894.16</ele>
        <time>2017-08-02T09:59:45Z</time>
      </trkpt>
      <trkpt lat="48.03995" lon="6.79097">
        <ele>894.16</ele>
        <time>2017-08-02T09:59:54Z</time>
      </trkpt>
      <trkpt lat="48.03987" lon="6.79085">
        <ele>894.16</ele>
        <time>2017-08-02T10:00:03Z</time>
      </trkpt>
      <trkpt lat="48.03983" lon="6.79067">
        <ele>894.64</ele>
        <time>2017-08-02T10:00:13Z</time>
      </trkpt>
      <trkpt lat="48.03982" lon="6.79046">
        <ele>895.12</ele>
        <time>2017-08-02T10:00:25Z</time>
      </trkpt>
      <trkpt lat="48.03978" lon="6.79029">
        <ele>895.61</ele>
        <time>2017-08-02T10:00:36Z</time>
      </trkpt>
      <trkpt lat="48.03973" lon="6.7901">
        <ele>895.61</ele>
        <time>2017-08-02T10:00:47Z</time>
      </trkpt>
      <trkpt lat="48.03968" lon="6.78986">
        <ele>895.61</ele>
        <time>2017-08-02T10:01:01Z</time>
      </trkpt>
      <trkpt lat="48.03963" lon="6.78956">
        <ele>896.09</ele>
        <time>2017-08-02T10:01:17Z</time>
      </trkpt>
      <trkpt lat="48.03961" lon="6.78935">
        <ele>896.09</ele>
        <time>2017-08-02T10:01:28Z</time>
      </trkpt>
      <trkpt lat="48.03961" lon="6.78911">
        <ele>896.57</ele>
        <time>2017-08-02T10:01:43Z</time>
      </trkpt>
      <trkpt lat="48.03958" lon="6.7889">
        <ele>896.57</ele>
        <time>2017-08-02T10:01:55Z</time>
      </trkpt>
      <trkpt lat="48.03962" lon="6.78864">
        <ele>896.57</ele>
        <time>2017-08-02T10:02:09Z</time>
      </trkpt>
      <trkpt lat="48.03961" lon="6.78828">
        <ele>896.09</ele>
        <time>2017-08-02T10:02:28Z</time>
      </trkpt>
      <trkpt lat="48.03956" lon="6.78803">
        <ele>896.09</ele>
        <time>2017-08-02T10:02:43Z</time>
      </trkpt>
      <trkpt lat="48.03951" lon="6.78788">
        <ele>895.61</ele>
        <time>2017-08-02T10:02:53Z</time>
      </trkpt>
      <trkpt lat="48.03946" lon="6.78767">
        <ele>896.09</ele>
        <time>2017-08-02T10:03:05Z</time>
      </trkpt>
      <trkpt lat="48.03945" lon="6.7874">
        <ele>896.09</ele>
        <time>2017-08-02T10:03:19Z</time>
      </trkpt>
      <trkpt lat="48.03936" lon="6.78719">
        <ele>896.09</ele>
        <time>2017-08-02T10:03:31Z</time>
      </trkpt>
      <trkpt lat="48.03931" lon="6.78701">
        <ele>896.09</ele>
        <time>2017-08-02T10:03:41Z</time>
      </trkpt>
      <trkpt lat="48.0393" lon="6.7868">
        <ele>896.09</ele>
        <time>2017-08-02T10:03:52Z</time>
      </trkpt>
      <trkpt lat="48.03928" lon="6.78668">
        <ele>896.09</ele>
        <time>2017-08-02T10:04:01Z</time>
      </trkpt>
      <trkpt lat="48.03924" lon="6.78656">
        <ele>895.61</ele>
        <time>2017-08-02T10:04:10Z</time>
      </trkpt>
      <trkpt lat="48.03921" lon="6.78639">
        <ele>896.09</ele>
        <time>2017-08-02T10:04:20Z</time>
      </trkpt>
      <trkpt lat="48.03916" lon="6.78623">
        <ele>895.12</ele>
        <time>2017-08-02T10:04:29Z</time>
      </trkpt>
      <trkpt lat="48.03914" lon="6.78606">
        <ele>895.12</ele>
        <time>2017-08-02T10:04:39Z</time>
      </trkpt>
      <trkpt lat="48.0391" lon="6.78589">
        <ele>895.61</ele>
        <time>2017-08-02T10:04:48Z</time>
      </trkpt>
      <trkpt lat="48.03907" lon="6.78574">
        <ele>895.12</ele>
        <time>2017-08-02T10:04:57Z</time>
      </trkpt>
      <trkpt lat="48.03901" lon="6.78561">
        <ele>895.12</ele>
        <time>2017-08-02T10:05:06Z</time>
      </trkpt>
      <trkpt lat="48.03895" lon="6.78548">
        <ele>895.12</ele>
        <time>2017-08-02T10:05:14Z</time>
      </trkpt>
      <trkpt lat="48.0389" lon="6.78534">
        <ele>895.12</ele>
        <time>2017-08-02T10:05:23Z</time>
      </trkpt>
      <trkpt lat="48.03885" lon="6.78521">
        <ele>895.12</ele>
        <time>2017-08-02T10:05:32Z</time>
      </trkpt>
      <trkpt lat="48.03882" lon="6.78506">
        <ele>895.12</ele>
        <time>2017-08-02T10:05:41Z</time>
      </trkpt>
      <trkpt lat="48.03881" lon="6.78491">
        <ele>895.12</ele>
        <time>2017-08-02T10:05:50Z</time>
      </trkpt>
      <trkpt lat="48.03879" lon="6.78475">
        <ele>895.12</ele>
        <time>2017-08-02T10:05:59Z</time>
      </trkpt>
      <trkpt lat="48.03877" lon="6.7846">
        <ele>895.12</ele>
        <time>2017-08-02T10:06:07Z</time>
      </trkpt>
      <trkpt lat="48.03876" lon="6.78445">
        <ele>895.61</ele>
        <time>2017-08-02T10:06:15Z</time>
      </trkpt>
      <trkpt lat="48.03874" lon="6.78431">
        <ele>895.61</ele>
        <time>2017-08-02T10:06:23Z</time>
      </trkpt>
      <trkpt lat="48.03872" lon="6.78417">
        <ele>896.09</ele>
        <time>2017-08-02T10:06:31Z</time>
      </trkpt>
      <trkpt lat="48.03871" lon="6.78402">
        <ele>895.61</ele>
        <time>2017-08-02T10:06:39Z</time>
      </trkpt>
      <trkpt lat="48.0387" lon="6.78388">
        <ele>895.61</ele>
        <time>2017-08-02T10:06:47Z</time>
      </trkpt>
      <trkpt lat="48.03869" lon="6.78374">
        <ele>896.09</ele>
        <time>2017-08-02T10:06:55Z</time>
      </trkpt>
      <trkpt lat="48.03869" lon="6.78359">
        <ele>896.09</ele>
        <time>2017-08-02T10:07:03Z</time>
      </trkpt>
      <trkpt lat="48.03868" lon="6.78344">
        <ele>896.09</ele>
        <time>2017-08-02T10:07:11Z</time>
      </trkpt>
      <trkpt lat="48.03867" lon="6.78327">
        <ele>895.61</ele>
        <time>2017-08-02T10:07:20Z</time>
      </trkpt>
      <trkpt lat="48.03866" lon="6.78312">
        <ele>896.09</ele>
        <time>2017-08-02T10:07:28Z</time>
      </trkpt>
      <trkpt lat="48.03864" lon="6.78298">
        <ele>896.09</ele>
        <time>2017-08-02T10:07:36Z</time>
      </trkpt>
      <trkpt lat="48.03864" lon="6.78283">
        <ele>896.09</ele>
        <time>2017-08-02T10:07:45Z</time>
      </trkpt>
      <trkpt lat="48.03866" lon="6.78268">
        <ele>897.05</ele>
        <time>2017-08-02T10:07:54Z</time>
      </trkpt>
      <trkpt lat="48.03869" lon="6.78254">
        <ele>896.09</ele>
        <time>2017-08-02T10:08:03Z</time>
      </trkpt>
      <trkpt lat="48.03876" lon="6.78244">
        <ele>897.05</ele>
        <time>2017-08-02T10:08:12Z</time>
      </trkpt>
      <trkpt lat="48.03884" lon="6.78235">
        <ele>897.05</ele>
        <time>2017-08-02T10:08:21Z</time>
      </trkpt>
      <trkpt lat="48.03892" lon="6.78228">
        <ele>897.53</ele>
        <time>2017-08-02T10:08:31Z</time>
      </trkpt>
      <trkpt lat="48.03892" lon="6.78219">
        <ele>897.53</ele>
        <time>2017-08-02T10:13:17Z</time>
      </trkpt>
      <trkpt lat="48.03895" lon="6.7821">
        <ele>897.05</ele>
        <time>2017-08-02T10:13:41Z</time>
      </trkpt>
      <trkpt lat="48.03896" lon="6.78195">
        <ele>896.57</ele>
        <time>2017-08-02T10:13:52Z</time>
      </trkpt>
      <trkpt lat="48.03897" lon="6.78181">
        <ele>896.09</ele>
        <time>2017-08-02T10:14:01Z</time>
      </trkpt>
      <trkpt lat="48.03899" lon="6.78167">
        <ele>895.12</ele>
        <time>2017-08-02T10:14:10Z</time>
      </trkpt>
      <trkpt lat="48.039" lon="6.78152">
        <ele>894.64</ele>
        <time>2017-08-02T10:14:18Z</time>
      </trkpt>
      <trkpt lat="48.039" lon="6.78137">
        <ele>893.68</ele>
        <time>2017-08-02T10:14:27Z</time>
      </trkpt>
      <trkpt lat="48.039" lon="6.78123">
        <ele>892.72</ele>
        <time>2017-08-02T10:14:36Z</time>
      </trkpt>
      <trkpt lat="48.03899" lon="6.78107">
        <ele>892.24</ele>
        <time>2017-08-02T10:14:45Z</time>
      </trkpt>
      <trkpt lat="48.03899" lon="6.7809">
        <ele>891.28</ele>
        <time>2017-08-02T10:14:55Z</time>
      </trkpt>
      <trkpt lat="48.03897" lon="6.78075">
        <ele>889.84</ele>
        <time>2017-08-02T10:15:04Z</time>
      </trkpt>
      <trkpt lat="48.03895" lon="6.78059">
        <ele>888.88</ele>
        <time>2017-08-02T10:15:14Z</time>
      </trkpt>
      <trkpt lat="48.03895" lon="6.78043">
        <ele>887.43</ele>
        <time>2017-08-02T10:15:24Z</time>
      </trkpt>
      <trkpt lat="48.03893" lon="6.78025">
        <ele>886.47</ele>
        <time>2017-08-02T10:15:34Z</time>
      </trkpt>
      <trkpt lat="48.03892" lon="6.78008">
        <ele>885.03</ele>
        <time>2017-08-02T10:15:44Z</time>
      </trkpt>
      <trkpt lat="48.03892" lon="6.77992">
        <ele>883.59</ele>
        <time>2017-08-02T10:15:54Z</time>
      </trkpt>
      <trkpt lat="48.03893" lon="6.77974">
        <ele>882.15</ele>
        <time>2017-08-02T10:16:06Z</time>
      </trkpt>
      <trkpt lat="48.03895" lon="6.77957">
        <ele>881.19</ele>
        <time>2017-08-02T10:16:16Z</time>
      </trkpt>
      <trkpt lat="48.03893" lon="6.77941">
        <ele>879.74</ele>
        <time>2017-08-02T10:16:25Z</time>
      </trkpt>
      <trkpt lat="48.03891" lon="6.77927">
        <ele>878.78</ele>
        <time>2017-08-02T10:16:34Z</time>
      </trkpt>
      <trkpt lat="48.03889" lon="6.77911">
        <ele>877.82</ele>
        <time>2017-08-02T10:16:43Z</time>
      </trkpt>
      <trkpt lat="48.03887" lon="6.77895">
        <ele>876.86</ele>
        <time>2017-08-02T10:16:52Z</time>
      </trkpt>
      <trkpt lat="48.03884" lon="6.7788">
        <ele>875.9</ele>
        <time>2017-08-02T10:17:01Z</time>
      </trkpt>
      <trkpt lat="48.03882" lon="6.77865">
        <ele>874.46</ele>
        <time>2017-08-02T10:17:09Z</time>
      </trkpt>
      <trkpt lat="48.0388" lon="6.77849">
        <ele>873.98</ele>
        <time>2017-08-02T10:17:18Z</time>
      </trkpt>
      <trkpt lat="48.03877" lon="6.77833">
        <ele>872.53</ele>
        <time>2017-08-02T10:17:27Z</time>
      </trkpt>
      <trkpt lat="48.03875" lon="6.77816">
        <ele>871.09</ele>
        <time>2017-08-02T10:17:37Z</time>
      </trkpt>
      <trkpt lat="48.03873" lon="6.77799">
        <ele>869.65</ele>
        <time>2017-08-02T10:17:47Z</time>
      </trkpt>
      <trkpt lat="48.03871" lon="6.77782">
        <ele>868.69</ele>
        <time>2017-08-02T10:17:56Z</time>
      </trkpt>
      <trkpt lat="48.03868" lon="6.77767">
        <ele>868.21</ele>
        <time>2017-08-02T10:18:05Z</time>
      </trkpt>
      <trkpt lat="48.03863" lon="6.77751">
        <ele>866.77</ele>
        <time>2017-08-02T10:18:14Z</time>
      </trkpt>
      <trkpt lat="48.03857" lon="6.77737">
        <ele>867.25</ele>
        <time>2017-08-02T10:18:23Z</time>
      </trkpt>
      <trkpt lat="48.03852" lon="6.77724">
        <ele>866.77</ele>
        <time>2017-08-02T10:18:32Z</time>
      </trkpt>
      <trkpt lat="48.03846" lon="6.77709">
        <ele>865.8</ele>
        <time>2017-08-02T10:18:41Z</time>
      </trkpt>
      <trkpt lat="48.03841" lon="6.77696">
        <ele>865.8</ele>
        <time>2017-08-02T10:18:49Z</time>
      </trkpt>
      <trkpt lat="48.03836" lon="6.77683">
        <ele>864.84</ele>
        <time>2017-08-02T10:18:57Z</time>
      </trkpt>
      <trkpt lat="48.03829" lon="6.77668">
        <ele>864.84</ele>
        <time>2017-08-02T10:19:06Z</time>
      </trkpt>
      <trkpt lat="48.03823" lon="6.77658">
        <ele>863.4</ele>
        <time>2017-08-02T10:19:14Z</time>
      </trkpt>
      <trkpt lat="48.03815" lon="6.77645">
        <ele>862.44</ele>
        <time>2017-08-02T10:19:23Z</time>
      </trkpt>
      <trkpt lat="48.03807" lon="6.77636">
        <ele>861</ele>
        <time>2017-08-02T10:19:31Z</time>
      </trkpt>
      <trkpt lat="48.03795" lon="6.7763">
        <ele>860.04</ele>
        <time>2017-08-02T10:19:40Z</time>
      </trkpt>
      <trkpt lat="48.03785" lon="6.77628">
        <ele>859.08</ele>
        <time>2017-08-02T10:19:49Z</time>
      </trkpt>
      <trkpt lat="48.03773" lon="6.77628">
        <ele>858.11</ele>
        <time>2017-08-02T10:19:59Z</time>
      </trkpt>
      <trkpt lat="48.03762" lon="6.77627">
        <ele>858.11</ele>
        <time>2017-08-02T10:20:08Z</time>
      </trkpt>
      <trkpt lat="48.03751" lon="6.77628">
        <ele>857.15</ele>
        <time>2017-08-02T10:20:18Z</time>
      </trkpt>
      <trkpt lat="48.0374" lon="6.77626">
        <ele>856.19</ele>
        <time>2017-08-02T10:20:30Z</time>
      </trkpt>
      <trkpt lat="48.03727" lon="6.77624">
        <ele>856.19</ele>
        <time>2017-08-02T10:20:41Z</time>
      </trkpt>
      <trkpt lat="48.0371" lon="6.77625">
        <ele>855.71</ele>
        <time>2017-08-02T10:20:55Z</time>
      </trkpt>
      <trkpt lat="48.03697" lon="6.77626">
        <ele>855.23</ele>
        <time>2017-08-02T10:21:06Z</time>
      </trkpt>
      <trkpt lat="48.03684" lon="6.77623">
        <ele>855.23</ele>
        <time>2017-08-02T10:21:18Z</time>
      </trkpt>
      <trkpt lat="48.03672" lon="6.77614">
        <ele>854.27</ele>
        <time>2017-08-02T10:21:29Z</time>
      </trkpt>
      <trkpt lat="48.03665" lon="6.77604">
        <ele>854.27</ele>
        <time>2017-08-02T10:21:38Z</time>
      </trkpt>
      <trkpt lat="48.03658" lon="6.77592">
        <ele>853.31</ele>
        <time>2017-08-02T10:21:48Z</time>
      </trkpt>
      <trkpt lat="48.03651" lon="6.77581">
        <ele>852.83</ele>
        <time>2017-08-02T10:21:58Z</time>
      </trkpt>
      <trkpt lat="48.03644" lon="6.7757">
        <ele>851.38</ele>
        <time>2017-08-02T10:22:07Z</time>
      </trkpt>
      <trkpt lat="48.03638" lon="6.77558">
        <ele>851.38</ele>
        <time>2017-08-02T10:22:15Z</time>
      </trkpt>
      <trkpt lat="48.03633" lon="6.77546">
        <ele>850.42</ele>
        <time>2017-08-02T10:22:24Z</time>
      </trkpt>
      <trkpt lat="48.03628" lon="6.77532">
        <ele>849.94</ele>
        <time>2017-08-02T10:22:33Z</time>
      </trkpt>
      <trkpt lat="48.03625" lon="6.77516">
        <ele>849.46</ele>
        <time>2017-08-02T10:22:42Z</time>
      </trkpt>
      <trkpt lat="48.03621" lon="6.775">
        <ele>849.46</ele>
        <time>2017-08-02T10:22:51Z</time>
      </trkpt>
      <trkpt lat="48.03618" lon="6.77482">
        <ele>847.54</ele>
        <time>2017-08-02T10:23:01Z</time>
      </trkpt>
      <trkpt lat="48.03613" lon="6.77466">
        <ele>847.06</ele>
        <time>2017-08-02T10:23:12Z</time>
      </trkpt>
      <trkpt lat="48.03609" lon="6.77451">
        <ele>846.1</ele>
        <time>2017-08-02T10:23:21Z</time>
      </trkpt>
      <trkpt lat="48.03605" lon="6.77438">
        <ele>845.62</ele>
        <time>2017-08-02T10:23:30Z</time>
      </trkpt>
      <trkpt lat="48.03601" lon="6.77425">
        <ele>845.14</ele>
        <time>2017-08-02T10:23:38Z</time>
      </trkpt>
      <trkpt lat="48.03597" lon="6.77412">
        <ele>844.18</ele>
        <time>2017-08-02T10:23:46Z</time>
      </trkpt>
      <trkpt lat="48.03593" lon="6.774">
        <ele>842.73</ele>
        <time>2017-08-02T10:23:54Z</time>
      </trkpt>
      <trkpt lat="48.03585" lon="6.77389">
        <ele>841.77</ele>
        <time>2017-08-02T10:24:03Z</time>
      </trkpt>
      <trkpt lat="48.03577" lon="6.77381">
        <ele>840.81</ele>
        <time>2017-08-02T10:24:11Z</time>
      </trkpt>
      <trkpt lat="48.03569" lon="6.77373">
        <ele>839.85</ele>
        <time>2017-08-02T10:24:20Z</time>
      </trkpt>
      <trkpt lat="48.03561" lon="6.77363">
        <ele>838.89</ele>
        <time>2017-08-02T10:24:29Z</time>
      </trkpt>
      <trkpt lat="48.03554" lon="6.77354">
        <ele>837.45</ele>
        <time>2017-08-02T10:24:37Z</time>
      </trkpt>
      <trkpt lat="48.03548" lon="6.77343">
        <ele>836.96</ele>
        <time>2017-08-02T10:24:45Z</time>
      </trkpt>
      <trkpt lat="48.03542" lon="6.77333">
        <ele>836</ele>
        <time>2017-08-02T10:24:53Z</time>
      </trkpt>
      <trkpt lat="48.03536" lon="6.77322">
        <ele>835.52</ele>
        <time>2017-08-02T10:25:02Z</time>
      </trkpt>
      <trkpt lat="48.03533" lon="6.77309">
        <ele>834.56</ele>
        <time>2017-08-02T10:25:11Z</time>
      </trkpt>
      <trkpt lat="48.03531" lon="6.77296">
        <ele>834.08</ele>
        <time>2017-08-02T10:25:19Z</time>
      </trkpt>
      <trkpt lat="48.03527" lon="6.77282">
        <ele>834.08</ele>
        <time>2017-08-02T10:25:27Z</time>
      </trkpt>
      <trkpt lat="48.03522" lon="6.77271">
        <ele>834.56</ele>
        <time>2017-08-02T10:25:35Z</time>
      </trkpt>
      <trkpt lat="48.03519" lon="6.77257">
        <ele>836</ele>
        <time>2017-08-02T10:25:45Z</time>
      </trkpt>
      <trkpt lat="48.03519" lon="6.77241">
        <ele>836.96</ele>
        <time>2017-08-02T10:25:55Z</time>
      </trkpt>
      <trkpt lat="48.03523" lon="6.77227">
        <ele>836.96</ele>
        <time>2017-08-02T10:26:09Z</time>
      </trkpt>
      <trkpt lat="48.03528" lon="6.77214">
        <ele>837.45</ele>
        <time>2017-08-02T10:26:19Z</time>
      </trkpt>
      <trkpt lat="48.03532" lon="6.77199">
        <ele>837.45</ele>
        <time>2017-08-02T10:26:29Z</time>
      </trkpt>
      <trkpt lat="48.03534" lon="6.77182">
        <ele>837.93</ele>
        <time>2017-08-02T10:26:39Z</time>
      </trkpt>
      <trkpt lat="48.03531" lon="6.77167">
        <ele>837.93</ele>
        <time>2017-08-02T10:26:49Z</time>
      </trkpt>
      <trkpt lat="48.03526" lon="6.77154">
        <ele>838.89</ele>
        <time>2017-08-02T10:27:01Z</time>
      </trkpt>
      <trkpt lat="48.0352" lon="6.77143">
        <ele>839.85</ele>
        <time>2017-08-02T10:27:11Z</time>
      </trkpt>
      <trkpt lat="48.03513" lon="6.77132">
        <ele>840.33</ele>
        <time>2017-08-02T10:27:23Z</time>
      </trkpt>
      <trkpt lat="48.03505" lon="6.77121">
        <ele>841.77</ele>
        <time>2017-08-02T10:27:33Z</time>
      </trkpt>
      <trkpt lat="48.035" lon="6.77105">
        <ele>843.69</ele>
        <time>2017-08-02T10:27:48Z</time>
      </trkpt>
      <trkpt lat="48.03495" lon="6.77082">
        <ele>844.18</ele>
        <time>2017-08-02T10:28:03Z</time>
      </trkpt>
      <trkpt lat="48.0349" lon="6.77054">
        <ele>844.18</ele>
        <time>2017-08-02T10:28:19Z</time>
      </trkpt>
      <trkpt lat="48.03485" lon="6.77035">
        <ele>845.62</ele>
        <time>2017-08-02T10:28:31Z</time>
      </trkpt>
      <trkpt lat="48.03485" lon="6.77017">
        <ele>846.1</ele>
        <time>2017-08-02T10:28:41Z</time>
      </trkpt>
      <trkpt lat="48.03483" lon="6.76998">
        <ele>845.14</ele>
        <time>2017-08-02T10:28:50Z</time>
      </trkpt>
      <trkpt lat="48.03481" lon="6.76982">
        <ele>844.18</ele>
        <time>2017-08-02T10:28:58Z</time>
      </trkpt>
      <trkpt lat="48.03477" lon="6.76967">
        <ele>844.66</ele>
        <time>2017-08-02T10:29:06Z</time>
      </trkpt>
      <trkpt lat="48.03471" lon="6.76954">
        <ele>844.66</ele>
        <time>2017-08-02T10:29:14Z</time>
      </trkpt>
      <trkpt lat="48.03466" lon="6.7694">
        <ele>845.62</ele>
        <time>2017-08-02T10:29:23Z</time>
      </trkpt>
      <trkpt lat="48.03461" lon="6.76926">
        <ele>845.62</ele>
        <time>2017-08-02T10:29:31Z</time>
      </trkpt>
      <trkpt lat="48.03456" lon="6.76914">
        <ele>845.62</ele>
        <time>2017-08-02T10:29:39Z</time>
      </trkpt>
      <trkpt lat="48.0345" lon="6.76903">
        <ele>845.62</ele>
        <time>2017-08-02T10:29:47Z</time>
      </trkpt>
      <trkpt lat="48.03445" lon="6.7689">
        <ele>846.1</ele>
        <time>2017-08-02T10:29:55Z</time>
      </trkpt>
      <trkpt lat="48.03439" lon="6.76877">
        <ele>846.58</ele>
        <time>2017-08-02T10:30:03Z</time>
      </trkpt>
      <trkpt lat="48.03434" lon="6.76865">
        <ele>846.58</ele>
        <time>2017-08-02T10:30:11Z</time>
      </trkpt>
      <trkpt lat="48.03431" lon="6.7685">
        <ele>845.14</ele>
        <time>2017-08-02T10:30:21Z</time>
      </trkpt>
      <trkpt lat="48.03433" lon="6.76835">
        <ele>844.18</ele>
        <time>2017-08-02T10:30:30Z</time>
      </trkpt>
      <trkpt lat="48.03435" lon="6.76815">
        <ele>843.69</ele>
        <time>2017-08-02T10:30:39Z</time>
      </trkpt>
      <trkpt lat="48.03441" lon="6.76801">
        <ele>843.69</ele>
        <time>2017-08-02T10:30:53Z</time>
      </trkpt>
      <trkpt lat="48.03451" lon="6.76792">
        <ele>844.18</ele>
        <time>2017-08-02T10:32:54Z</time>
      </trkpt>
      <trkpt lat="48.03458" lon="6.76782">
        <ele>844.18</ele>
        <time>2017-08-02T10:33:11Z</time>
      </trkpt>
      <trkpt lat="48.03465" lon="6.76769">
        <ele>845.14</ele>
        <time>2017-08-02T10:33:24Z</time>
      </trkpt>
      <trkpt lat="48.03468" lon="6.76749">
        <ele>846.1</ele>
        <time>2017-08-02T10:33:37Z</time>
      </trkpt>
      <trkpt lat="48.03468" lon="6.76732">
        <ele>846.58</ele>
        <time>2017-08-02T10:33:48Z</time>
      </trkpt>
      <trkpt lat="48.03472" lon="6.76714">
        <ele>847.06</ele>
        <time>2017-08-02T10:33:58Z</time>
      </trkpt>
      <trkpt lat="48.03479" lon="6.76699">
        <ele>848.02</ele>
        <time>2017-08-02T10:34:09Z</time>
      </trkpt>
      <trkpt lat="48.03485" lon="6.76688">
        <ele>848.5</ele>
        <time>2017-08-02T10:34:18Z</time>
      </trkpt>
      <trkpt lat="48.03492" lon="6.7668">
        <ele>849.46</ele>
        <time>2017-08-02T10:34:28Z</time>
      </trkpt>
      <trkpt lat="48.03503" lon="6.76666">
        <ele>850.9</ele>
        <time>2017-08-02T10:34:41Z</time>
      </trkpt>
      <trkpt lat="48.0351" lon="6.76654">
        <ele>850.9</ele>
        <time>2017-08-02T10:34:51Z</time>
      </trkpt>
      <trkpt lat="48.0352" lon="6.76634">
        <ele>851.38</ele>
        <time>2017-08-02T10:35:02Z</time>
      </trkpt>
      <trkpt lat="48.03523" lon="6.76622">
        <ele>852.35</ele>
        <time>2017-08-02T10:35:12Z</time>
      </trkpt>
      <trkpt lat="48.03527" lon="6.76599">
        <ele>853.79</ele>
        <time>2017-08-02T10:35:26Z</time>
      </trkpt>
      <trkpt lat="48.03532" lon="6.76581">
        <ele>854.75</ele>
        <time>2017-08-02T10:35:38Z</time>
      </trkpt>
      <trkpt lat="48.03531" lon="6.76562">
        <ele>855.23</ele>
        <time>2017-08-02T10:35:49Z</time>
      </trkpt>
      <trkpt lat="48.03525" lon="6.76548">
        <ele>854.75</ele>
        <time>2017-08-02T10:35:58Z</time>
      </trkpt>
      <trkpt lat="48.03517" lon="6.76537">
        <ele>855.23</ele>
        <time>2017-08-02T10:36:06Z</time>
      </trkpt>
      <trkpt lat="48.03513" lon="6.76525">
        <ele>855.23</ele>
        <time>2017-08-02T10:36:14Z</time>
      </trkpt>
      <trkpt lat="48.03508" lon="6.76511">
        <ele>855.23</ele>
        <time>2017-08-02T10:36:23Z</time>
      </trkpt>
      <trkpt lat="48.03503" lon="6.76498">
        <ele>854.75</ele>
        <time>2017-08-02T10:36:32Z</time>
      </trkpt>
      <trkpt lat="48.03498" lon="6.76484">
        <ele>853.79</ele>
        <time>2017-08-02T10:36:41Z</time>
      </trkpt>
      <trkpt lat="48.03495" lon="6.76468">
        <ele>853.31</ele>
        <time>2017-08-02T10:36:50Z</time>
      </trkpt>
      <trkpt lat="48.03493" lon="6.76453">
        <ele>852.83</ele>
        <time>2017-08-02T10:36:58Z</time>
      </trkpt>
      <trkpt lat="48.03491" lon="6.76438">
        <ele>853.31</ele>
        <time>2017-08-02T10:37:06Z</time>
      </trkpt>
      <trkpt lat="48.03491" lon="6.76424">
        <ele>851.38</ele>
        <time>2017-08-02T10:37:14Z</time>
      </trkpt>
      <trkpt lat="48.03488" lon="6.76409">
        <ele>851.38</ele>
        <time>2017-08-02T10:37:22Z</time>
      </trkpt>
      <trkpt lat="48.03485" lon="6.76396">
        <ele>851.87</ele>
        <time>2017-08-02T10:37:30Z</time>
      </trkpt>
      <trkpt lat="48.03483" lon="6.76382">
        <ele>851.87</ele>
        <time>2017-08-02T10:37:38Z</time>
      </trkpt>
      <trkpt lat="48.03481" lon="6.76368">
        <ele>852.35</ele>
        <time>2017-08-02T10:37:46Z</time>
      </trkpt>
      <trkpt lat="48.03481" lon="6.76354">
        <ele>850.9</ele>
        <time>2017-08-02T10:37:54Z</time>
      </trkpt>
      <trkpt lat="48.03481" lon="6.76339">
        <ele>850.42</ele>
        <time>2017-08-02T10:38:02Z</time>
      </trkpt>
      <trkpt lat="48.03481" lon="6.76324">
        <ele>850.42</ele>
        <time>2017-08-02T10:38:10Z</time>
      </trkpt>
      <trkpt lat="48.0348" lon="6.76309">
        <ele>849.94</ele>
        <time>2017-08-02T10:38:18Z</time>
      </trkpt>
      <trkpt lat="48.0348" lon="6.76294">
        <ele>849.94</ele>
        <time>2017-08-02T10:38:26Z</time>
      </trkpt>
      <trkpt lat="48.03481" lon="6.7628">
        <ele>849.46</ele>
        <time>2017-08-02T10:38:33Z</time>
      </trkpt>
      <trkpt lat="48.0348" lon="6.76265">
        <ele>848.98</ele>
        <time>2017-08-02T10:38:41Z</time>
      </trkpt>
      <trkpt lat="48.03481" lon="6.7625">
        <ele>848.98</ele>
        <time>2017-08-02T10:38:49Z</time>
      </trkpt>
      <trkpt lat="48.03482" lon="6.76235">
        <ele>848.02</ele>
        <time>2017-08-02T10:38:56Z</time>
      </trkpt>
      <trkpt lat="48.03484" lon="6.76221">
        <ele>848.02</ele>
        <time>2017-08-02T10:39:03Z</time>
      </trkpt>
      <trkpt lat="48.03486" lon="6.76206">
        <ele>846.58</ele>
        <time>2017-08-02T10:39:11Z</time>
      </trkpt>
      <trkpt lat="48.03489" lon="6.76192">
        <ele>845.62</ele>
        <time>2017-08-02T10:39:19Z</time>
      </trkpt>
      <trkpt lat="48.03492" lon="6.76178">
        <ele>844.66</ele>
        <time>2017-08-02T10:39:26Z</time>
      </trkpt>
      <trkpt lat="48.03495" lon="6.76163">
        <ele>843.69</ele>
        <time>2017-08-02T10:39:33Z</time>
      </trkpt>
      <trkpt lat="48.03498" lon="6.76149">
        <ele>842.25</ele>
        <time>2017-08-02T10:39:40Z</time>
      </trkpt>
      <trkpt lat="48.03502" lon="6.76135">
        <ele>842.25</ele>
        <time>2017-08-02T10:39:47Z</time>
      </trkpt>
      <trkpt lat="48.03505" lon="6.76122">
        <ele>840.81</ele>
        <time>2017-08-02T10:39:54Z</time>
      </trkpt>
      <trkpt lat="48.03509" lon="6.76108">
        <ele>841.29</ele>
        <time>2017-08-02T10:40:01Z</time>
      </trkpt>
      <trkpt lat="48.03512" lon="6.76093">
        <ele>841.77</ele>
        <time>2017-08-02T10:40:08Z</time>
      </trkpt>
      <trkpt lat="48.03515" lon="6.7608">
        <ele>841.77</ele>
        <time>2017-08-02T10:40:15Z</time>
      </trkpt>
      <trkpt lat="48.03519" lon="6.76066">
        <ele>841.77</ele>
        <time>2017-08-02T10:40:23Z</time>
      </trkpt>
      <trkpt lat="48.03524" lon="6.76053">
        <ele>840.81</ele>
        <time>2017-08-02T10:40:31Z</time>
      </trkpt>
      <trkpt lat="48.03528" lon="6.76039">
        <ele>840.33</ele>
        <time>2017-08-02T10:40:39Z</time>
      </trkpt>
      <trkpt lat="48.03532" lon="6.76027">
        <ele>840.33</ele>
        <time>2017-08-02T10:40:46Z</time>
      </trkpt>
      <trkpt lat="48.03535" lon="6.76013">
        <ele>839.85</ele>
        <time>2017-08-02T10:40:54Z</time>
      </trkpt>
      <trkpt lat="48.03538" lon="6.75998">
        <ele>839.85</ele>
        <time>2017-08-02T10:41:02Z</time>
      </trkpt>
      <trkpt lat="48.03542" lon="6.75983">
        <ele>840.33</ele>
        <time>2017-08-02T10:41:10Z</time>
      </trkpt>
      <trkpt lat="48.03546" lon="6.75971">
        <ele>839.85</ele>
        <time>2017-08-02T10:41:18Z</time>
      </trkpt>
      <trkpt lat="48.03551" lon="6.75956">
        <ele>840.33</ele>
        <time>2017-08-02T10:41:27Z</time>
      </trkpt>
      <trkpt lat="48.03554" lon="6.75942">
        <ele>839.85</ele>
        <time>2017-08-02T10:41:50Z</time>
      </trkpt>
      <trkpt lat="48.03553" lon="6.7594">
        <ele>840.33</ele>
        <time>2017-08-02T10:43:33Z</time>
      </trkpt>
      <trkpt lat="48.03557" lon="6.75936">
        <ele>840.33</ele>
        <time>2017-08-02T10:44:21Z</time>
      </trkpt>
      <trkpt lat="48.03564" lon="6.75925">
        <ele>840.33</ele>
        <time>2017-08-02T10:44:28Z</time>
      </trkpt>
      <trkpt lat="48.03569" lon="6.75911">
        <ele>839.85</ele>
        <time>2017-08-02T10:44:36Z</time>
      </trkpt>
      <trkpt lat="48.03573" lon="6.75898">
        <ele>839.85</ele>
        <time>2017-08-02T10:44:43Z</time>
      </trkpt>
      <trkpt lat="48.03578" lon="6.75886">
        <ele>839.37</ele>
        <time>2017-08-02T10:44:50Z</time>
      </trkpt>
      <trkpt lat="48.03583" lon="6.75872">
        <ele>839.85</ele>
        <time>2017-08-02T10:44:58Z</time>
      </trkpt>
      <trkpt lat="48.03587" lon="6.75858">
        <ele>840.33</ele>
        <time>2017-08-02T10:45:06Z</time>
      </trkpt>
      <trkpt lat="48.03592" lon="6.75844">
        <ele>841.77</ele>
        <time>2017-08-02T10:45:36Z</time>
      </trkpt>
      <trkpt lat="48.03597" lon="6.75831">
        <ele>842.25</ele>
        <time>2017-08-02T10:45:47Z</time>
      </trkpt>
      <trkpt lat="48.036" lon="6.75815">
        <ele>842.73</ele>
        <time>2017-08-02T10:45:57Z</time>
      </trkpt>
      <trkpt lat="48.03606" lon="6.758">
        <ele>842.25</ele>
        <time>2017-08-02T10:46:06Z</time>
      </trkpt>
      <trkpt lat="48.03611" lon="6.75786">
        <ele>843.21</ele>
        <time>2017-08-02T10:46:15Z</time>
      </trkpt>
      <trkpt lat="48.03617" lon="6.75775">
        <ele>843.21</ele>
        <time>2017-08-02T10:46:24Z</time>
      </trkpt>
      <trkpt lat="48.03613" lon="6.75763">
        <ele>843.21</ele>
        <time>2017-08-02T10:46:54Z</time>
      </trkpt>
      <trkpt lat="48.03603" lon="6.75758">
        <ele>844.18</ele>
        <time>2017-08-02T10:47:03Z</time>
      </trkpt>
      <trkpt lat="48.03594" lon="6.75752">
        <ele>845.62</ele>
        <time>2017-08-02T10:47:12Z</time>
      </trkpt>
      <trkpt lat="48.03584" lon="6.75748">
        <ele>846.58</ele>
        <time>2017-08-02T10:47:20Z</time>
      </trkpt>
      <trkpt lat="48.03575" lon="6.75739">
        <ele>846.58</ele>
        <time>2017-08-02T10:47:29Z</time>
      </trkpt>
      <trkpt lat="48.03564" lon="6.75732">
        <ele>847.54</ele>
        <time>2017-08-02T10:47:38Z</time>
      </trkpt>
      <trkpt lat="48.03555" lon="6.75724">
        <ele>848.02</ele>
        <time>2017-08-02T10:47:53Z</time>
      </trkpt>
      <trkpt lat="48.03546" lon="6.75716">
        <ele>847.06</ele>
        <time>2017-08-02T10:48:01Z</time>
      </trkpt>
      <trkpt lat="48.03537" lon="6.75708">
        <ele>848.02</ele>
        <time>2017-08-02T10:48:10Z</time>
      </trkpt>
      <trkpt lat="48.03533" lon="6.75693">
        <ele>848.5</ele>
        <time>2017-08-02T10:48:18Z</time>
      </trkpt>
      <trkpt lat="48.03534" lon="6.75679">
        <ele>848.5</ele>
        <time>2017-08-02T10:48:25Z</time>
      </trkpt>
      <trkpt lat="48.03535" lon="6.75664">
        <ele>849.46</ele>
        <time>2017-08-02T10:48:34Z</time>
      </trkpt>
      <trkpt lat="48.03536" lon="6.75647">
        <ele>850.42</ele>
        <time>2017-08-02T10:48:42Z</time>
      </trkpt>
      <trkpt lat="48.03538" lon="6.75631">
        <ele>849.94</ele>
        <time>2017-08-02T10:48:53Z</time>
      </trkpt>
      <trkpt lat="48.03539" lon="6.75616">
        <ele>850.42</ele>
        <time>2017-08-02T10:49:01Z</time>
      </trkpt>
      <trkpt lat="48.0354" lon="6.75607">
        <ele>851.38</ele>
        <time>2017-08-02T10:50:00Z</time>
      </trkpt>
      <trkpt lat="48.03541" lon="6.75589">
        <ele>850.9</ele>
        <time>2017-08-02T10:50:19Z</time>
      </trkpt>
      <trkpt lat="48.03544" lon="6.75575">
        <ele>852.83</ele>
        <time>2017-08-02T10:50:49Z</time>
      </trkpt>
      <trkpt lat="48.03545" lon="6.75557">
        <ele>852.35</ele>
        <time>2017-08-02T10:51:17Z</time>
      </trkpt>
      <trkpt lat="48.03548" lon="6.75539">
        <ele>853.31</ele>
        <time>2017-08-02T10:51:29Z</time>
      </trkpt>
      <trkpt lat="48.03556" lon="6.75524">
        <ele>855.23</ele>
        <time>2017-08-02T10:51:40Z</time>
      </trkpt>
      <trkpt lat="48.03561" lon="6.75509">
        <ele>855.23</ele>
        <time>2017-08-02T10:51:48Z</time>
      </trkpt>
      <trkpt lat="48.03568" lon="6.75497">
        <ele>856.19</ele>
        <time>2017-08-02T10:51:56Z</time>
      </trkpt>
      <trkpt lat="48.03575" lon="6.75485">
        <ele>857.15</ele>
        <time>2017-08-02T10:52:04Z</time>
      </trkpt>
      <trkpt lat="48.0358" lon="6.75474">
        <ele>856.67</ele>
        <time>2017-08-02T10:52:12Z</time>
      </trkpt>
      <trkpt lat="48.03584" lon="6.7546">
        <ele>857.15</ele>
        <time>2017-08-02T10:52:20Z</time>
      </trkpt>
      <trkpt lat="48.03586" lon="6.75446">
        <ele>857.15</ele>
        <time>2017-08-02T10:52:29Z</time>
      </trkpt>
      <trkpt lat="48.03591" lon="6.75444">
        <ele>858.11</ele>
        <time>2017-08-02T10:52:42Z</time>
      </trkpt>
      <trkpt lat="48.03599" lon="6.75436">
        <ele>861</ele>
        <time>2017-08-02T10:52:58Z</time>
      </trkpt>
      <trkpt lat="48.03604" lon="6.75424">
        <ele>861.96</ele>
        <time>2017-08-02T10:53:11Z</time>
      </trkpt>
      <trkpt lat="48.03604" lon="6.75412">
        <ele>862.44</ele>
        <time>2017-08-02T10:53:46Z</time>
      </trkpt>
      <trkpt lat="48.03604" lon="6.75421">
        <ele>861.96</ele>
        <time>2017-08-02T10:57:29Z</time>
      </trkpt>
      <trkpt lat="48.03602" lon="6.75434">
        <ele>861.96</ele>
        <time>2017-08-02T10:57:40Z</time>
      </trkpt>
      <trkpt lat="48.03604" lon="6.75446">
        <ele>862.44</ele>
        <time>2017-08-02T10:57:50Z</time>
      </trkpt>
      <trkpt lat="48.03603" lon="6.75457">
        <ele>861.96</ele>
        <time>2017-08-02T10:58:03Z</time>
      </trkpt>
      <trkpt lat="48.03593" lon="6.75458">
        <ele>859.08</ele>
        <time>2017-08-02T10:58:14Z</time>
      </trkpt>
      <trkpt lat="48.03583" lon="6.75463">
        <ele>857.15</ele>
        <time>2017-08-02T10:58:26Z</time>
      </trkpt>
      <trkpt lat="48.03579" lon="6.75477">
        <ele>857.63</ele>
        <time>2017-08-02T10:58:36Z</time>
      </trkpt>
      <trkpt lat="48.03573" lon="6.75489">
        <ele>856.67</ele>
        <time>2017-08-02T10:58:46Z</time>
      </trkpt>
      <trkpt lat="48.03567" lon="6.75501">
        <ele>856.67</ele>
        <time>2017-08-02T10:58:56Z</time>
      </trkpt>
      <trkpt lat="48.0356" lon="6.75514">
        <ele>855.71</ele>
        <time>2017-08-02T10:59:05Z</time>
      </trkpt>
      <trkpt lat="48.03556" lon="6.75526">
        <ele>855.23</ele>
        <time>2017-08-02T10:59:13Z</time>
      </trkpt>
      <trkpt lat="48.03549" lon="6.75535">
        <ele>853.79</ele>
        <time>2017-08-02T10:59:22Z</time>
      </trkpt>
      <trkpt lat="48.03545" lon="6.75551">
        <ele>853.31</ele>
        <time>2017-08-02T10:59:32Z</time>
      </trkpt>
      <trkpt lat="48.03546" lon="6.75567">
        <ele>853.31</ele>
        <time>2017-08-02T10:59:43Z</time>
      </trkpt>
      <trkpt lat="48.03543" lon="6.75583">
        <ele>853.31</ele>
        <time>2017-08-02T10:59:52Z</time>
      </trkpt>
      <trkpt lat="48.03541" lon="6.75598">
        <ele>852.35</ele>
        <time>2017-08-02T11:00:01Z</time>
      </trkpt>
      <trkpt lat="48.03541" lon="6.75614">
        <ele>852.35</ele>
        <time>2017-08-02T11:00:10Z</time>
      </trkpt>
      <trkpt lat="48.03539" lon="6.75629">
        <ele>851.87</ele>
        <time>2017-08-02T11:00:19Z</time>
      </trkpt>
      <trkpt lat="48.03538" lon="6.75645">
        <ele>851.38</ele>
        <time>2017-08-02T11:00:29Z</time>
      </trkpt>
      <trkpt lat="48.03537" lon="6.75661">
        <ele>850.9</ele>
        <time>2017-08-02T11:00:38Z</time>
      </trkpt>
      <trkpt lat="48.03535" lon="6.75677">
        <ele>850.42</ele>
        <time>2017-08-02T11:00:48Z</time>
      </trkpt>
      <trkpt lat="48.03535" lon="6.75692">
        <ele>849.94</ele>
        <time>2017-08-02T11:00:55Z</time>
      </trkpt>
      <trkpt lat="48.03534" lon="6.75706">
        <ele>849.46</ele>
        <time>2017-08-02T11:01:03Z</time>
      </trkpt>
      <trkpt lat="48.03541" lon="6.75714">
        <ele>849.46</ele>
        <time>2017-08-02T11:01:12Z</time>
      </trkpt>
      <trkpt lat="48.03549" lon="6.75723">
        <ele>849.46</ele>
        <time>2017-08-02T11:01:21Z</time>
      </trkpt>
      <trkpt lat="48.03559" lon="6.75731">
        <ele>849.46</ele>
        <time>2017-08-02T11:01:30Z</time>
      </trkpt>
      <trkpt lat="48.0357" lon="6.75738">
        <ele>848.02</ele>
        <time>2017-08-02T11:01:39Z</time>
      </trkpt>
      <trkpt lat="48.0358" lon="6.75747">
        <ele>848.02</ele>
        <time>2017-08-02T11:01:50Z</time>
      </trkpt>
      <trkpt lat="48.03594" lon="6.75755">
        <ele>847.54</ele>
        <time>2017-08-02T11:02:01Z</time>
      </trkpt>
      <trkpt lat="48.03606" lon="6.7576">
        <ele>845.62</ele>
        <time>2017-08-02T11:02:11Z</time>
      </trkpt>
      <trkpt lat="48.03616" lon="6.75769">
        <ele>845.14</ele>
        <time>2017-08-02T11:02:21Z</time>
      </trkpt>
      <trkpt lat="48.03625" lon="6.75775">
        <ele>844.18</ele>
        <time>2017-08-02T11:02:32Z</time>
      </trkpt>
      <trkpt lat="48.03632" lon="6.7578">
        <ele>843.69</ele>
        <time>2017-08-02T11:03:06Z</time>
      </trkpt>
      <trkpt lat="48.03639" lon="6.75772">
        <ele>843.69</ele>
        <time>2017-08-02T11:03:31Z</time>
      </trkpt>
      <trkpt lat="48.03638" lon="6.75782">
        <ele>843.21</ele>
        <time>2017-08-02T11:04:09Z</time>
      </trkpt>
      <trkpt lat="48.03645" lon="6.75781">
        <ele>842.73</ele>
        <time>2017-08-02T11:05:03Z</time>
      </trkpt>
      <trkpt lat="48.03644" lon="6.75786">
        <ele>842.25</ele>
        <time>2017-08-02T11:05:39Z</time>
      </trkpt>
      <trkpt lat="48.03635" lon="6.75782">
        <ele>843.69</ele>
        <time>2017-08-02T11:05:58Z</time>
      </trkpt>
      <trkpt lat="48.03634" lon="6.75779">
        <ele>846.1</ele>
        <time>2017-08-02T12:02:54Z</time>
      </trkpt>
      <trkpt lat="48.03627" lon="6.75776">
        <ele>847.06</ele>
        <time>2017-08-02T12:03:09Z</time>
      </trkpt>
      <trkpt lat="48.03616" lon="6.75778">
        <ele>847.54</ele>
        <time>2017-08-02T12:03:20Z</time>
      </trkpt>
      <trkpt lat="48.0361" lon="6.75789">
        <ele>847.06</ele>
        <time>2017-08-02T12:03:29Z</time>
      </trkpt>
      <trkpt lat="48.03605" lon="6.75802">
        <ele>847.06</ele>
        <time>2017-08-02T12:03:39Z</time>
      </trkpt>
      <trkpt lat="48.03602" lon="6.75814">
        <ele>846.58</ele>
        <time>2017-08-02T12:03:47Z</time>
      </trkpt>
      <trkpt lat="48.03597" lon="6.75829">
        <ele>846.1</ele>
        <time>2017-08-02T12:03:56Z</time>
      </trkpt>
      <trkpt lat="48.03592" lon="6.75842">
        <ele>845.62</ele>
        <time>2017-08-02T12:04:05Z</time>
      </trkpt>
      <trkpt lat="48.03588" lon="6.75854">
        <ele>845.14</ele>
        <time>2017-08-02T12:04:14Z</time>
      </trkpt>
      <trkpt lat="48.03584" lon="6.75866">
        <ele>845.14</ele>
        <time>2017-08-02T12:04:22Z</time>
      </trkpt>
      <trkpt lat="48.03579" lon="6.75878">
        <ele>844.66</ele>
        <time>2017-08-02T12:04:31Z</time>
      </trkpt>
      <trkpt lat="48.03573" lon="6.75891">
        <ele>844.18</ele>
        <time>2017-08-02T12:04:40Z</time>
      </trkpt>
      <trkpt lat="48.03568" lon="6.75904">
        <ele>843.69</ele>
        <time>2017-08-02T12:04:50Z</time>
      </trkpt>
      <trkpt lat="48.03565" lon="6.75921">
        <ele>844.18</ele>
        <time>2017-08-02T12:05:01Z</time>
      </trkpt>
      <trkpt lat="48.03559" lon="6.75933">
        <ele>844.18</ele>
        <time>2017-08-02T12:05:11Z</time>
      </trkpt>
      <trkpt lat="48.03554" lon="6.75942">
        <ele>844.18</ele>
        <time>2017-08-02T12:05:37Z</time>
      </trkpt>
      <trkpt lat="48.03548" lon="6.75954">
        <ele>844.18</ele>
        <time>2017-08-02T12:05:57Z</time>
      </trkpt>
      <trkpt lat="48.03553" lon="6.75946">
        <ele>844.66</ele>
        <time>2017-08-02T12:06:13Z</time>
      </trkpt>
      <trkpt lat="48.03563" lon="6.75945">
        <ele>844.18</ele>
        <time>2017-08-02T12:06:26Z</time>
      </trkpt>
      <trkpt lat="48.03571" lon="6.75953">
        <ele>843.69</ele>
        <time>2017-08-02T12:06:50Z</time>
      </trkpt>
      <trkpt lat="48.03579" lon="6.75963">
        <ele>842.73</ele>
        <time>2017-08-02T12:07:15Z</time>
      </trkpt>
      <trkpt lat="48.03585" lon="6.75973">
        <ele>841.29</ele>
        <time>2017-08-02T12:07:32Z</time>
      </trkpt>
      <trkpt lat="48.03579" lon="6.75964">
        <ele>842.25</ele>
        <time>2017-08-02T12:07:47Z</time>
      </trkpt>
      <trkpt lat="48.03573" lon="6.75955">
        <ele>843.21</ele>
        <time>2017-08-02T12:07:58Z</time>
      </trkpt>
      <trkpt lat="48.03564" lon="6.75949">
        <ele>843.21</ele>
        <time>2017-08-02T12:08:09Z</time>
      </trkpt>
      <trkpt lat="48.03557" lon="6.75944">
        <ele>844.18</ele>
        <time>2017-08-02T12:09:12Z</time>
      </trkpt>
      <trkpt lat="48.03563" lon="6.7595">
        <ele>842.73</ele>
        <time>2017-08-02T12:10:10Z</time>
      </trkpt>
      <trkpt lat="48.03573" lon="6.75958">
        <ele>842.73</ele>
        <time>2017-08-02T12:10:22Z</time>
      </trkpt>
      <trkpt lat="48.03582" lon="6.75964">
        <ele>841.29</ele>
        <time>2017-08-02T12:10:38Z</time>
      </trkpt>
      <trkpt lat="48.03581" lon="6.75968">
        <ele>841.29</ele>
        <time>2017-08-02T12:13:26Z</time>
      </trkpt>
      <trkpt lat="48.03588" lon="6.75978">
        <ele>840.33</ele>
        <time>2017-08-02T12:14:13Z</time>
      </trkpt>
      <trkpt lat="48.03597" lon="6.75988">
        <ele>838.41</ele>
        <time>2017-08-02T12:14:27Z</time>
      </trkpt>
      <trkpt lat="48.03604" lon="6.75997">
        <ele>837.45</ele>
        <time>2017-08-02T12:14:51Z</time>
      </trkpt>
      <trkpt lat="48.0361" lon="6.76009">
        <ele>837.45</ele>
        <time>2017-08-02T12:15:11Z</time>
      </trkpt>
      <trkpt lat="48.03612" lon="6.7602">
        <ele>836.96</ele>
        <time>2017-08-02T12:15:31Z</time>
      </trkpt>
      <trkpt lat="48.03615" lon="6.76034">
        <ele>835.52</ele>
        <time>2017-08-02T12:15:44Z</time>
      </trkpt>
      <trkpt lat="48.03613" lon="6.76046">
        <ele>834.56</ele>
        <time>2017-08-02T12:16:12Z</time>
      </trkpt>
      <trkpt lat="48.03611" lon="6.76057">
        <ele>834.08</ele>
        <time>2017-08-02T12:16:40Z</time>
      </trkpt>
      <trkpt lat="48.03607" lon="6.76071">
        <ele>833.6</ele>
        <time>2017-08-02T12:16:52Z</time>
      </trkpt>
      <trkpt lat="48.03607" lon="6.76086">
        <ele>833.12</ele>
        <time>2017-08-02T12:17:05Z</time>
      </trkpt>
      <trkpt lat="48.03605" lon="6.76102">
        <ele>832.64</ele>
        <time>2017-08-02T12:17:15Z</time>
      </trkpt>
      <trkpt lat="48.03606" lon="6.76116">
        <ele>832.64</ele>
        <time>2017-08-02T12:17:27Z</time>
      </trkpt>
      <trkpt lat="48.03608" lon="6.76131">
        <ele>830.72</ele>
        <time>2017-08-02T12:17:41Z</time>
      </trkpt>
      <trkpt lat="48.03602" lon="6.76144">
        <ele>831.68</ele>
        <time>2017-08-02T12:18:00Z</time>
      </trkpt>
      <trkpt lat="48.03601" lon="6.76155">
        <ele>831.68</ele>
        <time>2017-08-02T12:18:24Z</time>
      </trkpt>
      <trkpt lat="48.03606" lon="6.76167">
        <ele>830.72</ele>
        <time>2017-08-02T12:18:51Z</time>
      </trkpt>
      <trkpt lat="48.03615" lon="6.76158">
        <ele>828.79</ele>
        <time>2017-08-02T12:19:07Z</time>
      </trkpt>
      <trkpt lat="48.0362" lon="6.76173">
        <ele>827.35</ele>
        <time>2017-08-02T12:19:17Z</time>
      </trkpt>
      <trkpt lat="48.03628" lon="6.76186">
        <ele>825.91</ele>
        <time>2017-08-02T12:19:27Z</time>
      </trkpt>
      <trkpt lat="48.03632" lon="6.762">
        <ele>824.95</ele>
        <time>2017-08-02T12:19:38Z</time>
      </trkpt>
      <trkpt lat="48.03647" lon="6.76216">
        <ele>823.99</ele>
        <time>2017-08-02T12:19:51Z</time>
      </trkpt>
      <trkpt lat="48.03662" lon="6.76234">
        <ele>823.99</ele>
        <time>2017-08-02T12:20:05Z</time>
      </trkpt>
      <trkpt lat="48.03677" lon="6.76238">
        <ele>821.58</ele>
        <time>2017-08-02T12:20:19Z</time>
      </trkpt>
      <trkpt lat="48.03694" lon="6.76243">
        <ele>819.66</ele>
        <time>2017-08-02T12:20:34Z</time>
      </trkpt>
      <trkpt lat="48.03698" lon="6.76264">
        <ele>816.78</ele>
        <time>2017-08-02T12:20:48Z</time>
      </trkpt>
      <trkpt lat="48.03703" lon="6.76278">
        <ele>815.34</ele>
        <time>2017-08-02T12:20:59Z</time>
      </trkpt>
      <trkpt lat="48.03718" lon="6.76282">
        <ele>812.93</ele>
        <time>2017-08-02T12:21:12Z</time>
      </trkpt>
      <trkpt lat="48.0373" lon="6.76286">
        <ele>811.49</ele>
        <time>2017-08-02T12:21:24Z</time>
      </trkpt>
      <trkpt lat="48.03742" lon="6.76293">
        <ele>809.57</ele>
        <time>2017-08-02T12:21:35Z</time>
      </trkpt>
      <trkpt lat="48.03747" lon="6.76307">
        <ele>808.13</ele>
        <time>2017-08-02T12:21:44Z</time>
      </trkpt>
      <trkpt lat="48.0375" lon="6.76322">
        <ele>807.16</ele>
        <time>2017-08-02T12:21:53Z</time>
      </trkpt>
      <trkpt lat="48.03756" lon="6.7634">
        <ele>807.16</ele>
        <time>2017-08-02T12:22:03Z</time>
      </trkpt>
      <trkpt lat="48.03762" lon="6.76362">
        <ele>806.68</ele>
        <time>2017-08-02T12:22:14Z</time>
      </trkpt>
      <trkpt lat="48.03769" lon="6.76376">
        <ele>807.16</ele>
        <time>2017-08-02T12:22:25Z</time>
      </trkpt>
      <trkpt lat="48.03781" lon="6.7639">
        <ele>807.16</ele>
        <time>2017-08-02T12:22:37Z</time>
      </trkpt>
      <trkpt lat="48.03788" lon="6.76404">
        <ele>806.2</ele>
        <time>2017-08-02T12:22:47Z</time>
      </trkpt>
      <trkpt lat="48.03787" lon="6.76421">
        <ele>805.72</ele>
        <time>2017-08-02T12:22:57Z</time>
      </trkpt>
      <trkpt lat="48.03783" lon="6.76445">
        <ele>806.2</ele>
        <time>2017-08-02T12:23:16Z</time>
      </trkpt>
      <trkpt lat="48.03789" lon="6.7647">
        <ele>805.24</ele>
        <time>2017-08-02T12:23:32Z</time>
      </trkpt>
      <trkpt lat="48.03796" lon="6.76488">
        <ele>805.24</ele>
        <time>2017-08-02T12:23:48Z</time>
      </trkpt>
      <trkpt lat="48.03804" lon="6.76502">
        <ele>805.24</ele>
        <time>2017-08-02T12:24:09Z</time>
      </trkpt>
      <trkpt lat="48.03814" lon="6.76516">
        <ele>805.72</ele>
        <time>2017-08-02T12:24:21Z</time>
      </trkpt>
      <trkpt lat="48.03813" lon="6.76526">
        <ele>807.16</ele>
        <time>2017-08-02T12:24:38Z</time>
      </trkpt>
      <trkpt lat="48.0381" lon="6.76524">
        <ele>806.68</ele>
        <time>2017-08-02T12:25:45Z</time>
      </trkpt>
      <trkpt lat="48.03821" lon="6.76526">
        <ele>806.68</ele>
        <time>2017-08-02T12:26:34Z</time>
      </trkpt>
      <trkpt lat="48.03834" lon="6.76529">
        <ele>806.68</ele>
        <time>2017-08-02T12:26:46Z</time>
      </trkpt>
      <trkpt lat="48.03844" lon="6.76536">
        <ele>807.64</ele>
        <time>2017-08-02T12:26:56Z</time>
      </trkpt>
      <trkpt lat="48.03851" lon="6.76548">
        <ele>808.61</ele>
        <time>2017-08-02T12:27:06Z</time>
      </trkpt>
      <trkpt lat="48.03853" lon="6.76562">
        <ele>809.57</ele>
        <time>2017-08-02T12:27:16Z</time>
      </trkpt>
      <trkpt lat="48.03859" lon="6.76574">
        <ele>810.53</ele>
        <time>2017-08-02T12:27:26Z</time>
      </trkpt>
      <trkpt lat="48.03868" lon="6.76587">
        <ele>811.01</ele>
        <time>2017-08-02T12:27:37Z</time>
      </trkpt>
      <trkpt lat="48.03878" lon="6.766">
        <ele>811.97</ele>
        <time>2017-08-02T12:27:48Z</time>
      </trkpt>
      <trkpt lat="48.03885" lon="6.7661">
        <ele>812.93</ele>
        <time>2017-08-02T12:27:58Z</time>
      </trkpt>
      <trkpt lat="48.03894" lon="6.76622">
        <ele>814.37</ele>
        <time>2017-08-02T12:28:09Z</time>
      </trkpt>
      <trkpt lat="48.03902" lon="6.76632">
        <ele>815.82</ele>
        <time>2017-08-02T12:28:20Z</time>
      </trkpt>
      <trkpt lat="48.03912" lon="6.76642">
        <ele>817.74</ele>
        <time>2017-08-02T12:28:35Z</time>
      </trkpt>
      <trkpt lat="48.03928" lon="6.7665">
        <ele>818.7</ele>
        <time>2017-08-02T12:28:50Z</time>
      </trkpt>
      <trkpt lat="48.03941" lon="6.76657">
        <ele>820.14</ele>
        <time>2017-08-02T12:29:08Z</time>
      </trkpt>
      <trkpt lat="48.03954" lon="6.76673">
        <ele>823.51</ele>
        <time>2017-08-02T12:29:23Z</time>
      </trkpt>
      <trkpt lat="48.03967" lon="6.76693">
        <ele>824.95</ele>
        <time>2017-08-02T12:29:38Z</time>
      </trkpt>
      <trkpt lat="48.03976" lon="6.76703">
        <ele>826.87</ele>
        <time>2017-08-02T12:29:52Z</time>
      </trkpt>
      <trkpt lat="48.03978" lon="6.7672">
        <ele>829.27</ele>
        <time>2017-08-02T12:30:10Z</time>
      </trkpt>
      <trkpt lat="48.03981" lon="6.76742">
        <ele>832.16</ele>
        <time>2017-08-02T12:30:26Z</time>
      </trkpt>
      <trkpt lat="48.03994" lon="6.76749">
        <ele>834.56</ele>
        <time>2017-08-02T12:30:44Z</time>
      </trkpt>
      <trkpt lat="48.04006" lon="6.76752">
        <ele>836</ele>
        <time>2017-08-02T12:30:58Z</time>
      </trkpt>
      <trkpt lat="48.04018" lon="6.76759">
        <ele>837.93</ele>
        <time>2017-08-02T12:31:09Z</time>
      </trkpt>
      <trkpt lat="48.04028" lon="6.76767">
        <ele>839.85</ele>
        <time>2017-08-02T12:31:21Z</time>
      </trkpt>
      <trkpt lat="48.0404" lon="6.76767">
        <ele>840.33</ele>
        <time>2017-08-02T12:31:34Z</time>
      </trkpt>
      <trkpt lat="48.04049" lon="6.76767">
        <ele>840.81</ele>
        <time>2017-08-02T12:31:43Z</time>
      </trkpt>
      <trkpt lat="48.0406" lon="6.76771">
        <ele>841.29</ele>
        <time>2017-08-02T12:31:54Z</time>
      </trkpt>
      <trkpt lat="48.04069" lon="6.76778">
        <ele>841.77</ele>
        <time>2017-08-02T12:32:04Z</time>
      </trkpt>
      <trkpt lat="48.04081" lon="6.76785">
        <ele>842.73</ele>
        <time>2017-08-02T12:32:14Z</time>
      </trkpt>
      <trkpt lat="48.04092" lon="6.76788">
        <ele>843.69</ele>
        <time>2017-08-02T12:32:24Z</time>
      </trkpt>
      <trkpt lat="48.04102" lon="6.76791">
        <ele>844.66</ele>
        <time>2017-08-02T12:32:34Z</time>
      </trkpt>
      <trkpt lat="48.04114" lon="6.76791">
        <ele>845.62</ele>
        <time>2017-08-02T12:32:43Z</time>
      </trkpt>
      <trkpt lat="48.04125" lon="6.7679">
        <ele>846.58</ele>
        <time>2017-08-02T12:32:52Z</time>
      </trkpt>
      <trkpt lat="48.04135" lon="6.76784">
        <ele>847.54</ele>
        <time>2017-08-02T12:33:01Z</time>
      </trkpt>
      <trkpt lat="48.04143" lon="6.76776">
        <ele>848.02</ele>
        <time>2017-08-02T12:33:09Z</time>
      </trkpt>
      <trkpt lat="48.04151" lon="6.76767">
        <ele>848.5</ele>
        <time>2017-08-02T12:33:17Z</time>
      </trkpt>
      <trkpt lat="48.04159" lon="6.76767">
        <ele>848.98</ele>
        <time>2017-08-02T12:33:48Z</time>
      </trkpt>
      <trkpt lat="48.04158" lon="6.7678">
        <ele>849.94</ele>
        <time>2017-08-02T12:34:41Z</time>
      </trkpt>
      <trkpt lat="48.04155" lon="6.76795">
        <ele>850.9</ele>
        <time>2017-08-02T12:34:50Z</time>
      </trkpt>
      <trkpt lat="48.04152" lon="6.7681">
        <ele>851.38</ele>
        <time>2017-08-02T12:34:58Z</time>
      </trkpt>
      <trkpt lat="48.0415" lon="6.76823">
        <ele>851.87</ele>
        <time>2017-08-02T12:35:06Z</time>
      </trkpt>
      <trkpt lat="48.04147" lon="6.76836">
        <ele>852.35</ele>
        <time>2017-08-02T12:35:15Z</time>
      </trkpt>
      <trkpt lat="48.04143" lon="6.76851">
        <ele>852.83</ele>
        <time>2017-08-02T12:35:25Z</time>
      </trkpt>
      <trkpt lat="48.04139" lon="6.76868">
        <ele>852.83</ele>
        <time>2017-08-02T12:35:35Z</time>
      </trkpt>
      <trkpt lat="48.04135" lon="6.7688">
        <ele>853.79</ele>
        <time>2017-08-02T12:35:44Z</time>
      </trkpt>
      <trkpt lat="48.0413" lon="6.76896">
        <ele>854.75</ele>
        <time>2017-08-02T12:35:54Z</time>
      </trkpt>
      <trkpt lat="48.04125" lon="6.7691">
        <ele>855.23</ele>
        <time>2017-08-02T12:36:03Z</time>
      </trkpt>
      <trkpt lat="48.0412" lon="6.76923">
        <ele>855.71</ele>
        <time>2017-08-02T12:36:12Z</time>
      </trkpt>
      <trkpt lat="48.04115" lon="6.76938">
        <ele>856.19</ele>
        <time>2017-08-02T12:36:22Z</time>
      </trkpt>
      <trkpt lat="48.04111" lon="6.76952">
        <ele>857.15</ele>
        <time>2017-08-02T12:36:31Z</time>
      </trkpt>
      <trkpt lat="48.04107" lon="6.76966">
        <ele>857.15</ele>
        <time>2017-08-02T12:36:42Z</time>
      </trkpt>
      <trkpt lat="48.04103" lon="6.76982">
        <ele>858.59</ele>
        <time>2017-08-02T12:36:54Z</time>
      </trkpt>
      <trkpt lat="48.04099" lon="6.76998">
        <ele>859.08</ele>
        <time>2017-08-02T12:37:05Z</time>
      </trkpt>
      <trkpt lat="48.04095" lon="6.77016">
        <ele>859.56</ele>
        <time>2017-08-02T12:37:15Z</time>
      </trkpt>
      <trkpt lat="48.04092" lon="6.77032">
        <ele>860.04</ele>
        <time>2017-08-02T12:37:25Z</time>
      </trkpt>
      <trkpt lat="48.04088" lon="6.77048">
        <ele>860.04</ele>
        <time>2017-08-02T12:37:34Z</time>
      </trkpt>
      <trkpt lat="48.04084" lon="6.77064">
        <ele>861</ele>
        <time>2017-08-02T12:37:44Z</time>
      </trkpt>
      <trkpt lat="48.04082" lon="6.7708">
        <ele>861.96</ele>
        <time>2017-08-02T12:37:52Z</time>
      </trkpt>
      <trkpt lat="48.0408" lon="6.77095">
        <ele>862.44</ele>
        <time>2017-08-02T12:38:00Z</time>
      </trkpt>
      <trkpt lat="48.04079" lon="6.77112">
        <ele>863.4</ele>
        <time>2017-08-02T12:38:09Z</time>
      </trkpt>
      <trkpt lat="48.0408" lon="6.77128">
        <ele>863.88</ele>
        <time>2017-08-02T12:38:17Z</time>
      </trkpt>
      <trkpt lat="48.04081" lon="6.77142">
        <ele>864.84</ele>
        <time>2017-08-02T12:38:25Z</time>
      </trkpt>
      <trkpt lat="48.04083" lon="6.77157">
        <ele>865.32</ele>
        <time>2017-08-02T12:38:33Z</time>
      </trkpt>
      <trkpt lat="48.04087" lon="6.7717">
        <ele>865.32</ele>
        <time>2017-08-02T12:38:40Z</time>
      </trkpt>
      <trkpt lat="48.04091" lon="6.77183">
        <ele>865.8</ele>
        <time>2017-08-02T12:38:48Z</time>
      </trkpt>
      <trkpt lat="48.04095" lon="6.77196">
        <ele>866.29</ele>
        <time>2017-08-02T12:38:56Z</time>
      </trkpt>
      <trkpt lat="48.04099" lon="6.7721">
        <ele>866.29</ele>
        <time>2017-08-02T12:39:04Z</time>
      </trkpt>
      <trkpt lat="48.04103" lon="6.77222">
        <ele>866.77</ele>
        <time>2017-08-02T12:39:11Z</time>
      </trkpt>
      <trkpt lat="48.04107" lon="6.77234">
        <ele>867.25</ele>
        <time>2017-08-02T12:39:18Z</time>
      </trkpt>
      <trkpt lat="48.04111" lon="6.77246">
        <ele>867.25</ele>
        <time>2017-08-02T12:39:25Z</time>
      </trkpt>
      <trkpt lat="48.04113" lon="6.77259">
        <ele>867.73</ele>
        <time>2017-08-02T12:39:32Z</time>
      </trkpt>
      <trkpt lat="48.04113" lon="6.77272">
        <ele>867.73</ele>
        <time>2017-08-02T12:39:40Z</time>
      </trkpt>
      <trkpt lat="48.04114" lon="6.77285">
        <ele>868.21</ele>
        <time>2017-08-02T12:39:54Z</time>
      </trkpt>
      <trkpt lat="48.04119" lon="6.773">
        <ele>868.21</ele>
        <time>2017-08-02T12:40:02Z</time>
      </trkpt>
      <trkpt lat="48.04122" lon="6.77313">
        <ele>868.21</ele>
        <time>2017-08-02T12:40:09Z</time>
      </trkpt>
      <trkpt lat="48.04125" lon="6.77325">
        <ele>868.69</ele>
        <time>2017-08-02T12:40:16Z</time>
      </trkpt>
      <trkpt lat="48.04126" lon="6.77339">
        <ele>869.17</ele>
        <time>2017-08-02T12:40:24Z</time>
      </trkpt>
      <trkpt lat="48.04126" lon="6.77356">
        <ele>870.61</ele>
        <time>2017-08-02T12:40:33Z</time>
      </trkpt>
      <trkpt lat="48.04124" lon="6.77369">
        <ele>871.57</ele>
        <time>2017-08-02T12:40:41Z</time>
      </trkpt>
      <trkpt lat="48.04123" lon="6.77385">
        <ele>872.05</ele>
        <time>2017-08-02T12:40:49Z</time>
      </trkpt>
      <trkpt lat="48.04121" lon="6.77401">
        <ele>873.01</ele>
        <time>2017-08-02T12:40:58Z</time>
      </trkpt>
      <trkpt lat="48.04117" lon="6.77416">
        <ele>873.5</ele>
        <time>2017-08-02T12:41:07Z</time>
      </trkpt>
      <trkpt lat="48.04114" lon="6.77431">
        <ele>874.46</ele>
        <time>2017-08-02T12:41:16Z</time>
      </trkpt>
      <trkpt lat="48.0411" lon="6.77445">
        <ele>874.94</ele>
        <time>2017-08-02T12:41:25Z</time>
      </trkpt>
      <trkpt lat="48.04107" lon="6.7746">
        <ele>875.9</ele>
        <time>2017-08-02T12:41:34Z</time>
      </trkpt>
      <trkpt lat="48.04105" lon="6.77475">
        <ele>876.86</ele>
        <time>2017-08-02T12:41:43Z</time>
      </trkpt>
      <trkpt lat="48.04101" lon="6.77489">
        <ele>877.82</ele>
        <time>2017-08-02T12:41:52Z</time>
      </trkpt>
      <trkpt lat="48.04097" lon="6.77504">
        <ele>878.78</ele>
        <time>2017-08-02T12:42:01Z</time>
      </trkpt>
      <trkpt lat="48.04094" lon="6.77517">
        <ele>879.26</ele>
        <time>2017-08-02T12:42:09Z</time>
      </trkpt>
      <trkpt lat="48.0409" lon="6.77532">
        <ele>879.74</ele>
        <time>2017-08-02T12:42:17Z</time>
      </trkpt>
      <trkpt lat="48.04086" lon="6.77545">
        <ele>880.22</ele>
        <time>2017-08-02T12:42:25Z</time>
      </trkpt>
      <trkpt lat="48.04082" lon="6.7756">
        <ele>880.71</ele>
        <time>2017-08-02T12:42:34Z</time>
      </trkpt>
      <trkpt lat="48.04078" lon="6.77573">
        <ele>880.71</ele>
        <time>2017-08-02T12:42:41Z</time>
      </trkpt>
      <trkpt lat="48.04075" lon="6.77587">
        <ele>880.71</ele>
        <time>2017-08-02T12:42:49Z</time>
      </trkpt>
      <trkpt lat="48.04072" lon="6.77601">
        <ele>881.67</ele>
        <time>2017-08-02T12:42:57Z</time>
      </trkpt>
      <trkpt lat="48.04074" lon="6.77614">
        <ele>882.15</ele>
        <time>2017-08-02T12:43:06Z</time>
      </trkpt>
      <trkpt lat="48.04084" lon="6.77617">
        <ele>883.59</ele>
        <time>2017-08-02T12:43:16Z</time>
      </trkpt>
      <trkpt lat="48.04096" lon="6.77614">
        <ele>885.03</ele>
        <time>2017-08-02T12:43:29Z</time>
      </trkpt>
      <trkpt lat="48.04107" lon="6.77619">
        <ele>886.47</ele>
        <time>2017-08-02T12:43:39Z</time>
      </trkpt>
      <trkpt lat="48.04115" lon="6.77627">
        <ele>887.91</ele>
        <time>2017-08-02T12:43:49Z</time>
      </trkpt>
      <trkpt lat="48.04122" lon="6.77637">
        <ele>888.88</ele>
        <time>2017-08-02T12:43:59Z</time>
      </trkpt>
      <trkpt lat="48.0413" lon="6.77646">
        <ele>890.8</ele>
        <time>2017-08-02T12:44:10Z</time>
      </trkpt>
      <trkpt lat="48.04131" lon="6.77662">
        <ele>892.72</ele>
        <time>2017-08-02T12:44:21Z</time>
      </trkpt>
      <trkpt lat="48.04133" lon="6.77676">
        <ele>894.16</ele>
        <time>2017-08-02T12:44:32Z</time>
      </trkpt>
      <trkpt lat="48.04129" lon="6.77693">
        <ele>895.12</ele>
        <time>2017-08-02T12:44:45Z</time>
      </trkpt>
      <trkpt lat="48.04124" lon="6.77708">
        <ele>895.12</ele>
        <time>2017-08-02T12:44:55Z</time>
      </trkpt>
      <trkpt lat="48.0412" lon="6.77723">
        <ele>896.09</ele>
        <time>2017-08-02T12:45:04Z</time>
      </trkpt>
      <trkpt lat="48.04117" lon="6.77739">
        <ele>896.09</ele>
        <time>2017-08-02T12:45:12Z</time>
      </trkpt>
      <trkpt lat="48.04113" lon="6.77755">
        <ele>896.09</ele>
        <time>2017-08-02T12:45:22Z</time>
      </trkpt>
      <trkpt lat="48.0411" lon="6.77771">
        <ele>897.05</ele>
        <time>2017-08-02T12:45:31Z</time>
      </trkpt>
      <trkpt lat="48.04106" lon="6.77784">
        <ele>897.53</ele>
        <time>2017-08-02T12:45:40Z</time>
      </trkpt>
      <trkpt lat="48.04101" lon="6.77797">
        <ele>897.05</ele>
        <time>2017-08-02T12:45:49Z</time>
      </trkpt>
      <trkpt lat="48.04097" lon="6.77811">
        <ele>898.01</ele>
        <time>2017-08-02T12:45:58Z</time>
      </trkpt>
      <trkpt lat="48.04094" lon="6.77827">
        <ele>899.45</ele>
        <time>2017-08-02T12:46:09Z</time>
      </trkpt>
      <trkpt lat="48.04091" lon="6.77843">
        <ele>900.41</ele>
        <time>2017-08-02T12:46:18Z</time>
      </trkpt>
      <trkpt lat="48.04088" lon="6.77859">
        <ele>901.37</ele>
        <time>2017-08-02T12:46:28Z</time>
      </trkpt>
      <trkpt lat="48.04086" lon="6.77875">
        <ele>901.85</ele>
        <time>2017-08-02T12:46:38Z</time>
      </trkpt>
      <trkpt lat="48.04082" lon="6.77889">
        <ele>903.3</ele>
        <time>2017-08-02T12:46:47Z</time>
      </trkpt>
      <trkpt lat="48.04079" lon="6.77903">
        <ele>904.26</ele>
        <time>2017-08-02T12:46:57Z</time>
      </trkpt>
      <trkpt lat="48.04075" lon="6.77917">
        <ele>905.22</ele>
        <time>2017-08-02T12:47:07Z</time>
      </trkpt>
      <trkpt lat="48.04072" lon="6.77933">
        <ele>906.66</ele>
        <time>2017-08-02T12:47:17Z</time>
      </trkpt>
      <trkpt lat="48.04066" lon="6.77946">
        <ele>907.14</ele>
        <time>2017-08-02T12:47:26Z</time>
      </trkpt>
      <trkpt lat="48.04063" lon="6.77963">
        <ele>909.06</ele>
        <time>2017-08-02T12:47:37Z</time>
      </trkpt>
      <trkpt lat="48.0406" lon="6.77978">
        <ele>910.51</ele>
        <time>2017-08-02T12:47:48Z</time>
      </trkpt>
      <trkpt lat="48.04059" lon="6.77993">
        <ele>911.95</ele>
        <time>2017-08-02T12:48:00Z</time>
      </trkpt>
      <trkpt lat="48.04053" lon="6.78009">
        <ele>913.39</ele>
        <time>2017-08-02T12:48:13Z</time>
      </trkpt>
      <trkpt lat="48.04046" lon="6.78023">
        <ele>914.35</ele>
        <time>2017-08-02T12:48:23Z</time>
      </trkpt>
      <trkpt lat="48.0404" lon="6.78036">
        <ele>914.83</ele>
        <time>2017-08-02T12:48:33Z</time>
      </trkpt>
      <trkpt lat="48.04035" lon="6.78052">
        <ele>915.31</ele>
        <time>2017-08-02T12:48:44Z</time>
      </trkpt>
      <trkpt lat="48.04032" lon="6.78071">
        <ele>916.27</ele>
        <time>2017-08-02T12:48:55Z</time>
      </trkpt>
      <trkpt lat="48.04028" lon="6.78086">
        <ele>916.75</ele>
        <time>2017-08-02T12:49:06Z</time>
      </trkpt>
      <trkpt lat="48.04026" lon="6.78108">
        <ele>917.72</ele>
        <time>2017-08-02T12:49:22Z</time>
      </trkpt>
      <trkpt lat="48.04018" lon="6.78129">
        <ele>919.64</ele>
        <time>2017-08-02T12:49:35Z</time>
      </trkpt>
      <trkpt lat="48.04016" lon="6.78153">
        <ele>920.6</ele>
        <time>2017-08-02T12:49:46Z</time>
      </trkpt>
      <trkpt lat="48.04013" lon="6.78169">
        <ele>922.52</ele>
        <time>2017-08-02T12:49:56Z</time>
      </trkpt>
      <trkpt lat="48.04012" lon="6.78185">
        <ele>922.52</ele>
        <time>2017-08-02T12:50:07Z</time>
      </trkpt>
      <trkpt lat="48.04013" lon="6.78201">
        <ele>923.96</ele>
        <time>2017-08-02T12:50:17Z</time>
      </trkpt>
      <trkpt lat="48.04012" lon="6.78217">
        <ele>924.93</ele>
        <time>2017-08-02T12:50:27Z</time>
      </trkpt>
      <trkpt lat="48.04014" lon="6.7824">
        <ele>925.41</ele>
        <time>2017-08-02T12:50:39Z</time>
      </trkpt>
      <trkpt lat="48.04013" lon="6.78258">
        <ele>925.41</ele>
        <time>2017-08-02T12:50:50Z</time>
      </trkpt>
      <trkpt lat="48.04015" lon="6.7828">
        <ele>925.89</ele>
        <time>2017-08-02T12:51:02Z</time>
      </trkpt>
      <trkpt lat="48.04014" lon="6.783">
        <ele>925.89</ele>
        <time>2017-08-02T12:51:15Z</time>
      </trkpt>
      <trkpt lat="48.04014" lon="6.78321">
        <ele>925.41</ele>
        <time>2017-08-02T12:51:27Z</time>
      </trkpt>
      <trkpt lat="48.04017" lon="6.78342">
        <ele>924.93</ele>
        <time>2017-08-02T12:51:39Z</time>
      </trkpt>
      <trkpt lat="48.04018" lon="6.78359">
        <ele>925.41</ele>
        <time>2017-08-02T12:51:51Z</time>
      </trkpt>
      <trkpt lat="48.04018" lon="6.7838">
        <ele>924.45</ele>
        <time>2017-08-02T12:52:04Z</time>
      </trkpt>
      <trkpt lat="48.04017" lon="6.784">
        <ele>923.48</ele>
        <time>2017-08-02T12:52:16Z</time>
      </trkpt>
      <trkpt lat="48.04019" lon="6.78423">
        <ele>922.52</ele>
        <time>2017-08-02T12:52:26Z</time>
      </trkpt>
      <trkpt lat="48.0402" lon="6.78438">
        <ele>921.56</ele>
        <time>2017-08-02T12:52:37Z</time>
      </trkpt>
      <trkpt lat="48.04021" lon="6.78454">
        <ele>920.6</ele>
        <time>2017-08-02T12:52:49Z</time>
      </trkpt>
      <trkpt lat="48.04025" lon="6.78474">
        <ele>920.6</ele>
        <time>2017-08-02T12:53:01Z</time>
      </trkpt>
      <trkpt lat="48.04023" lon="6.78496">
        <ele>922.04</ele>
        <time>2017-08-02T12:53:15Z</time>
      </trkpt>
      <trkpt lat="48.04019" lon="6.78513">
        <ele>923.96</ele>
        <time>2017-08-02T12:53:27Z</time>
      </trkpt>
      <trkpt lat="48.04012" lon="6.78531">
        <ele>924.45</ele>
        <time>2017-08-02T12:53:42Z</time>
      </trkpt>
      <trkpt lat="48.04005" lon="6.78545">
        <ele>923.96</ele>
        <time>2017-08-02T12:53:53Z</time>
      </trkpt>
      <trkpt lat="48.03997" lon="6.78561">
        <ele>923.96</ele>
        <time>2017-08-02T12:54:05Z</time>
      </trkpt>
      <trkpt lat="48.03992" lon="6.78558">
        <ele>924.45</ele>
        <time>2017-08-02T12:56:49Z</time>
      </trkpt>
      <trkpt lat="48.0398" lon="6.78549">
        <ele>924.45</ele>
        <time>2017-08-02T12:57:07Z</time>
      </trkpt>
      <trkpt lat="48.03974" lon="6.78542">
        <ele>924.45</ele>
        <time>2017-08-02T12:57:39Z</time>
      </trkpt>
      <trkpt lat="48.03986" lon="6.78541">
        <ele>924.45</ele>
        <time>2017-08-02T12:58:08Z</time>
      </trkpt>
      <trkpt lat="48.03989" lon="6.78551">
        <ele>924.45</ele>
        <time>2017-08-02T12:58:20Z</time>
      </trkpt>
      <trkpt lat="48.03995" lon="6.78557">
        <ele>923.96</ele>
        <time>2017-08-02T12:58:43Z</time>
      </trkpt>
      <trkpt lat="48.04" lon="6.78549">
        <ele>923.96</ele>
        <time>2017-08-02T12:59:06Z</time>
      </trkpt>
      <trkpt lat="48.04002" lon="6.78567">
        <ele>923.96</ele>
        <time>2017-08-02T12:59:55Z</time>
      </trkpt>
      <trkpt lat="48.03993" lon="6.78581">
        <ele>923</ele>
        <time>2017-08-02T13:00:24Z</time>
      </trkpt>
      <trkpt lat="48.03989" lon="6.78594">
        <ele>923</ele>
        <time>2017-08-02T13:00:36Z</time>
      </trkpt>
      <trkpt lat="48.03986" lon="6.7861">
        <ele>922.04</ele>
        <time>2017-08-02T13:00:47Z</time>
      </trkpt>
      <trkpt lat="48.03987" lon="6.78626">
        <ele>922.04</ele>
        <time>2017-08-02T13:00:59Z</time>
      </trkpt>
      <trkpt lat="48.03991" lon="6.78638">
        <ele>923.48</ele>
        <time>2017-08-02T13:01:20Z</time>
      </trkpt>
      <trkpt lat="48.03998" lon="6.7865">
        <ele>924.45</ele>
        <time>2017-08-02T13:01:34Z</time>
      </trkpt>
      <trkpt lat="48.04005" lon="6.78663">
        <ele>923.96</ele>
        <time>2017-08-02T13:02:50Z</time>
      </trkpt>
      <trkpt lat="48.04014" lon="6.78674">
        <ele>924.45</ele>
        <time>2017-08-02T13:03:01Z</time>
      </trkpt>
      <trkpt lat="48.04024" lon="6.78681">
        <ele>924.45</ele>
        <time>2017-08-02T13:03:12Z</time>
      </trkpt>
      <trkpt lat="48.04035" lon="6.78684">
        <ele>924.93</ele>
        <time>2017-08-02T13:03:23Z</time>
      </trkpt>
      <trkpt lat="48.04037" lon="6.78685">
        <ele>971.07</ele>
        <time>2017-08-02T13:04:49Z</time>
      </trkpt>
      <trkpt lat="48.04069" lon="6.78697">
        <ele>942.71</ele>
        <time>2017-08-02T13:04:52Z</time>
      </trkpt>
      <trkpt lat="48.0408" lon="6.78698">
        <ele>940.31</ele>
        <time>2017-08-02T13:05:03Z</time>
      </trkpt>
      <trkpt lat="48.04093" lon="6.78704">
        <ele>937.42</ele>
        <time>2017-08-02T13:05:13Z</time>
      </trkpt>
      <trkpt lat="48.04108" lon="6.78708">
        <ele>935.02</ele>
        <time>2017-08-02T13:05:31Z</time>
      </trkpt>
      <trkpt lat="48.04128" lon="6.78713">
        <ele>934.54</ele>
        <time>2017-08-02T13:05:49Z</time>
      </trkpt>
      <trkpt lat="48.04146" lon="6.7872">
        <ele>932.62</ele>
        <time>2017-08-02T13:06:02Z</time>
      </trkpt>
      <trkpt lat="48.04166" lon="6.78726">
        <ele>932.14</ele>
        <time>2017-08-02T13:06:23Z</time>
      </trkpt>
      <trkpt lat="48.04189" lon="6.78724">
        <ele>931.17</ele>
        <time>2017-08-02T13:06:38Z</time>
      </trkpt>
      <trkpt lat="48.04198" lon="6.78723">
        <ele>931.17</ele>
        <time>2017-08-02T13:06:47Z</time>
      </trkpt>
      <trkpt lat="48.04209" lon="6.78723">
        <ele>930.69</ele>
        <time>2017-08-02T13:06:56Z</time>
      </trkpt>
      <trkpt lat="48.04224" lon="6.78727">
        <ele>929.73</ele>
        <time>2017-08-02T13:07:07Z</time>
      </trkpt>
      <trkpt lat="48.04235" lon="6.78731">
        <ele>929.25</ele>
        <time>2017-08-02T13:07:16Z</time>
      </trkpt>
      <trkpt lat="48.04249" lon="6.78739">
        <ele>928.77</ele>
        <time>2017-08-02T13:07:27Z</time>
      </trkpt>
      <trkpt lat="48.04261" lon="6.7875">
        <ele>927.81</ele>
        <time>2017-08-02T13:07:40Z</time>
      </trkpt>
      <trkpt lat="48.04269" lon="6.78771">
        <ele>927.33</ele>
        <time>2017-08-02T13:07:53Z</time>
      </trkpt>
      <trkpt lat="48.04277" lon="6.788">
        <ele>926.37</ele>
        <time>2017-08-02T13:08:09Z</time>
      </trkpt>
      <trkpt lat="48.04274" lon="6.78827">
        <ele>926.37</ele>
        <time>2017-08-02T13:08:23Z</time>
      </trkpt>
      <trkpt lat="48.04269" lon="6.78842">
        <ele>925.41</ele>
        <time>2017-08-02T13:08:31Z</time>
      </trkpt>
      <trkpt lat="48.04261" lon="6.78855">
        <ele>924.93</ele>
        <time>2017-08-02T13:08:40Z</time>
      </trkpt>
      <trkpt lat="48.04253" lon="6.78877">
        <ele>924.93</ele>
        <time>2017-08-02T13:08:54Z</time>
      </trkpt>
      <trkpt lat="48.04252" lon="6.789">
        <ele>924.93</ele>
        <time>2017-08-02T13:09:06Z</time>
      </trkpt>
      <trkpt lat="48.04255" lon="6.7892">
        <ele>924.45</ele>
        <time>2017-08-02T13:09:17Z</time>
      </trkpt>
      <trkpt lat="48.04259" lon="6.78939">
        <ele>924.45</ele>
        <time>2017-08-02T13:09:25Z</time>
      </trkpt>
      <trkpt lat="48.04262" lon="6.78955">
        <ele>924.45</ele>
        <time>2017-08-02T13:09:33Z</time>
      </trkpt>
      <trkpt lat="48.04265" lon="6.78969">
        <ele>924.45</ele>
        <time>2017-08-02T13:09:40Z</time>
      </trkpt>
      <trkpt lat="48.04271" lon="6.78983">
        <ele>924.45</ele>
        <time>2017-08-02T13:09:47Z</time>
      </trkpt>
      <trkpt lat="48.04276" lon="6.78994">
        <ele>924.93</ele>
        <time>2017-08-02T13:09:54Z</time>
      </trkpt>
      <trkpt lat="48.04281" lon="6.79007">
        <ele>925.41</ele>
        <time>2017-08-02T13:10:01Z</time>
      </trkpt>
      <trkpt lat="48.04285" lon="6.79021">
        <ele>925.41</ele>
        <time>2017-08-02T13:10:10Z</time>
      </trkpt>
      <trkpt lat="48.04288" lon="6.79035">
        <ele>925.89</ele>
        <time>2017-08-02T13:10:18Z</time>
      </trkpt>
      <trkpt lat="48.04289" lon="6.79051">
        <ele>927.33</ele>
        <time>2017-08-02T13:10:26Z</time>
      </trkpt>
      <trkpt lat="48.04295" lon="6.79067">
        <ele>928.29</ele>
        <time>2017-08-02T13:10:35Z</time>
      </trkpt>
      <trkpt lat="48.04301" lon="6.79082">
        <ele>928.77</ele>
        <time>2017-08-02T13:10:44Z</time>
      </trkpt>
      <trkpt lat="48.04308" lon="6.79097">
        <ele>930.21</ele>
        <time>2017-08-02T13:10:53Z</time>
      </trkpt>
      <trkpt lat="48.04312" lon="6.79114">
        <ele>931.65</ele>
        <time>2017-08-02T13:11:03Z</time>
      </trkpt>
      <trkpt lat="48.04318" lon="6.79131">
        <ele>933.1</ele>
        <time>2017-08-02T13:11:13Z</time>
      </trkpt>
      <trkpt lat="48.04325" lon="6.79144">
        <ele>934.54</ele>
        <time>2017-08-02T13:11:22Z</time>
      </trkpt>
      <trkpt lat="48.04331" lon="6.79159">
        <ele>936.46</ele>
        <time>2017-08-02T13:11:32Z</time>
      </trkpt>
      <trkpt lat="48.04337" lon="6.79177">
        <ele>938.38</ele>
        <time>2017-08-02T13:11:42Z</time>
      </trkpt>
      <trkpt lat="48.04343" lon="6.79196">
        <ele>938.86</ele>
        <time>2017-08-02T13:11:52Z</time>
      </trkpt>
      <trkpt lat="48.04347" lon="6.79212">
        <ele>938.86</ele>
        <time>2017-08-02T13:12:01Z</time>
      </trkpt>
      <trkpt lat="48.0435" lon="6.79228">
        <ele>938.86</ele>
        <time>2017-08-02T13:12:09Z</time>
      </trkpt>
      <trkpt lat="48.04357" lon="6.79245">
        <ele>939.35</ele>
        <time>2017-08-02T13:12:18Z</time>
      </trkpt>
      <trkpt lat="48.04362" lon="6.79261">
        <ele>938.86</ele>
        <time>2017-08-02T13:12:26Z</time>
      </trkpt>
      <trkpt lat="48.04369" lon="6.79278">
        <ele>939.83</ele>
        <time>2017-08-02T13:12:37Z</time>
      </trkpt>
      <trkpt lat="48.04374" lon="6.79297">
        <ele>939.83</ele>
        <time>2017-08-02T13:12:49Z</time>
      </trkpt>
      <trkpt lat="48.04373" lon="6.79319">
        <ele>940.31</ele>
        <time>2017-08-02T13:13:00Z</time>
      </trkpt>
      <trkpt lat="48.04375" lon="6.79339">
        <ele>940.31</ele>
        <time>2017-08-02T13:13:09Z</time>
      </trkpt>
      <trkpt lat="48.04376" lon="6.79367">
        <ele>941.27</ele>
        <time>2017-08-02T13:13:20Z</time>
      </trkpt>
      <trkpt lat="48.04378" lon="6.79389">
        <ele>941.75</ele>
        <time>2017-08-02T13:13:30Z</time>
      </trkpt>
      <trkpt lat="48.0438" lon="6.79407">
        <ele>942.71</ele>
        <time>2017-08-02T13:13:40Z</time>
      </trkpt>
      <trkpt lat="48.04381" lon="6.79429">
        <ele>943.19</ele>
        <time>2017-08-02T13:13:50Z</time>
      </trkpt>
      <trkpt lat="48.04385" lon="6.79447">
        <ele>944.15</ele>
        <time>2017-08-02T13:13:59Z</time>
      </trkpt>
      <trkpt lat="48.04393" lon="6.79464">
        <ele>944.63</ele>
        <time>2017-08-02T13:14:11Z</time>
      </trkpt>
      <trkpt lat="48.04404" lon="6.7948">
        <ele>945.59</ele>
        <time>2017-08-02T13:14:23Z</time>
      </trkpt>
      <trkpt lat="48.04412" lon="6.79501">
        <ele>945.11</ele>
        <time>2017-08-02T13:14:36Z</time>
      </trkpt>
      <trkpt lat="48.04425" lon="6.79521">
        <ele>945.59</ele>
        <time>2017-08-02T13:14:48Z</time>
      </trkpt>
      <trkpt lat="48.04439" lon="6.79537">
        <ele>945.59</ele>
        <time>2017-08-02T13:15:01Z</time>
      </trkpt>
      <trkpt lat="48.04451" lon="6.79551">
        <ele>945.59</ele>
        <time>2017-08-02T13:15:11Z</time>
      </trkpt>
      <trkpt lat="48.04468" lon="6.79568">
        <ele>945.59</ele>
        <time>2017-08-02T13:15:22Z</time>
      </trkpt>
      <trkpt lat="48.04477" lon="6.79582">
        <ele>946.07</ele>
        <time>2017-08-02T13:15:33Z</time>
      </trkpt>
      <trkpt lat="48.04485" lon="6.796">
        <ele>946.56</ele>
        <time>2017-08-02T13:15:44Z</time>
      </trkpt>
      <trkpt lat="48.04498" lon="6.79618">
        <ele>946.56</ele>
        <time>2017-08-02T13:15:56Z</time>
      </trkpt>
      <trkpt lat="48.04515" lon="6.7963">
        <ele>947.52</ele>
        <time>2017-08-02T13:16:11Z</time>
      </trkpt>
      <trkpt lat="48.04528" lon="6.79634">
        <ele>948.96</ele>
        <time>2017-08-02T13:16:20Z</time>
      </trkpt>
      <trkpt lat="48.0454" lon="6.79636">
        <ele>948</ele>
        <time>2017-08-02T13:16:30Z</time>
      </trkpt>
      <trkpt lat="48.04552" lon="6.79636">
        <ele>947.52</ele>
        <time>2017-08-02T13:16:39Z</time>
      </trkpt>
      <trkpt lat="48.04568" lon="6.79637">
        <ele>947.04</ele>
        <time>2017-08-02T13:16:48Z</time>
      </trkpt>
      <trkpt lat="48.04579" lon="6.79638">
        <ele>947.52</ele>
        <time>2017-08-02T13:16:57Z</time>
      </trkpt>
      <trkpt lat="48.0459" lon="6.79637">
        <ele>947.52</ele>
        <time>2017-08-02T13:17:05Z</time>
      </trkpt>
      <trkpt lat="48.04602" lon="6.79637">
        <ele>948</ele>
        <time>2017-08-02T13:17:14Z</time>
      </trkpt>
      <trkpt lat="48.04614" lon="6.79633">
        <ele>947.52</ele>
        <time>2017-08-02T13:17:23Z</time>
      </trkpt>
      <trkpt lat="48.0463" lon="6.79627">
        <ele>948.48</ele>
        <time>2017-08-02T13:17:34Z</time>
      </trkpt>
      <trkpt lat="48.04647" lon="6.7963">
        <ele>948.48</ele>
        <time>2017-08-02T13:17:45Z</time>
      </trkpt>
      <trkpt lat="48.0466" lon="6.79629">
        <ele>948.96</ele>
        <time>2017-08-02T13:17:56Z</time>
      </trkpt>
      <trkpt lat="48.0467" lon="6.79626">
        <ele>948.48</ele>
        <time>2017-08-02T13:18:04Z</time>
      </trkpt>
      <trkpt lat="48.04689" lon="6.79612">
        <ele>948</ele>
        <time>2017-08-02T13:18:17Z</time>
      </trkpt>
      <trkpt lat="48.04712" lon="6.79615">
        <ele>948</ele>
        <time>2017-08-02T13:18:32Z</time>
      </trkpt>
      <trkpt lat="48.04727" lon="6.79621">
        <ele>948.48</ele>
        <time>2017-08-02T13:18:42Z</time>
      </trkpt>
      <trkpt lat="48.04738" lon="6.79627">
        <ele>947.52</ele>
        <time>2017-08-02T13:18:51Z</time>
      </trkpt>
      <trkpt lat="48.04748" lon="6.79633">
        <ele>947.04</ele>
        <time>2017-08-02T13:18:59Z</time>
      </trkpt>
      <trkpt lat="48.04759" lon="6.79642">
        <ele>946.07</ele>
        <time>2017-08-02T13:19:07Z</time>
      </trkpt>
      <trkpt lat="48.04767" lon="6.79659">
        <ele>945.59</ele>
        <time>2017-08-02T13:19:16Z</time>
      </trkpt>
      <trkpt lat="48.04771" lon="6.79678">
        <ele>944.63</ele>
        <time>2017-08-02T13:19:25Z</time>
      </trkpt>
      <trkpt lat="48.04768" lon="6.79698">
        <ele>944.63</ele>
        <time>2017-08-02T13:19:35Z</time>
      </trkpt>
      <trkpt lat="48.04763" lon="6.79713">
        <ele>943.67</ele>
        <time>2017-08-02T13:19:44Z</time>
      </trkpt>
      <trkpt lat="48.04754" lon="6.79725">
        <ele>943.19</ele>
        <time>2017-08-02T13:19:52Z</time>
      </trkpt>
      <trkpt lat="48.04748" lon="6.79736">
        <ele>942.71</ele>
        <time>2017-08-02T13:20:00Z</time>
      </trkpt>
      <trkpt lat="48.04742" lon="6.79747">
        <ele>942.23</ele>
        <time>2017-08-02T13:20:09Z</time>
      </trkpt>
      <trkpt lat="48.04735" lon="6.79755">
        <ele>941.75</ele>
        <time>2017-08-02T13:20:18Z</time>
      </trkpt>
      <trkpt lat="48.04726" lon="6.79765">
        <ele>941.27</ele>
        <time>2017-08-02T13:20:27Z</time>
      </trkpt>
      <trkpt lat="48.04714" lon="6.79783">
        <ele>941.27</ele>
        <time>2017-08-02T13:20:39Z</time>
      </trkpt>
      <trkpt lat="48.04707" lon="6.79797">
        <ele>940.79</ele>
        <time>2017-08-02T13:20:46Z</time>
      </trkpt>
      <trkpt lat="48.04702" lon="6.7981">
        <ele>940.31</ele>
        <time>2017-08-02T13:20:54Z</time>
      </trkpt>
      <trkpt lat="48.04694" lon="6.79822">
        <ele>940.31</ele>
        <time>2017-08-02T13:21:04Z</time>
      </trkpt>
      <trkpt lat="48.04687" lon="6.79836">
        <ele>940.79</ele>
        <time>2017-08-02T13:21:13Z</time>
      </trkpt>
      <trkpt lat="48.04679" lon="6.7985">
        <ele>941.27</ele>
        <time>2017-08-02T13:21:22Z</time>
      </trkpt>
      <trkpt lat="48.04671" lon="6.79864">
        <ele>941.75</ele>
        <time>2017-08-02T13:21:31Z</time>
      </trkpt>
      <trkpt lat="48.04661" lon="6.79879">
        <ele>941.75</ele>
        <time>2017-08-02T13:21:41Z</time>
      </trkpt>
      <trkpt lat="48.04656" lon="6.79894">
        <ele>941.75</ele>
        <time>2017-08-02T13:21:49Z</time>
      </trkpt>
      <trkpt lat="48.0465" lon="6.79911">
        <ele>941.75</ele>
        <time>2017-08-02T13:21:57Z</time>
      </trkpt>
      <trkpt lat="48.04644" lon="6.79929">
        <ele>941.27</ele>
        <time>2017-08-02T13:22:07Z</time>
      </trkpt>
      <trkpt lat="48.04639" lon="6.79943">
        <ele>939.83</ele>
        <time>2017-08-02T13:22:17Z</time>
      </trkpt>
      <trkpt lat="48.04634" lon="6.79961">
        <ele>937.9</ele>
        <time>2017-08-02T13:22:30Z</time>
      </trkpt>
      <trkpt lat="48.04632" lon="6.79979">
        <ele>935.98</ele>
        <time>2017-08-02T13:22:40Z</time>
      </trkpt>
      <trkpt lat="48.04626" lon="6.79998">
        <ele>935.5</ele>
        <time>2017-08-02T13:22:51Z</time>
      </trkpt>
      <trkpt lat="48.04619" lon="6.80013">
        <ele>934.54</ele>
        <time>2017-08-02T13:23:03Z</time>
      </trkpt>
      <trkpt lat="48.04613" lon="6.80031">
        <ele>934.06</ele>
        <time>2017-08-02T13:23:17Z</time>
      </trkpt>
      <trkpt lat="48.04604" lon="6.80047">
        <ele>932.14</ele>
        <time>2017-08-02T13:23:30Z</time>
      </trkpt>
      <trkpt lat="48.04592" lon="6.80061">
        <ele>931.17</ele>
        <time>2017-08-02T13:23:43Z</time>
      </trkpt>
      <trkpt lat="48.04581" lon="6.80076">
        <ele>930.21</ele>
        <time>2017-08-02T13:23:54Z</time>
      </trkpt>
      <trkpt lat="48.04579" lon="6.80094">
        <ele>929.25</ele>
        <time>2017-08-02T13:24:05Z</time>
      </trkpt>
      <trkpt lat="48.04581" lon="6.80109">
        <ele>930.21</ele>
        <time>2017-08-02T13:24:14Z</time>
      </trkpt>
      <trkpt lat="48.04585" lon="6.80122">
        <ele>929.25</ele>
        <time>2017-08-02T13:24:23Z</time>
      </trkpt>
      <trkpt lat="48.04588" lon="6.80138">
        <ele>928.77</ele>
        <time>2017-08-02T13:24:32Z</time>
      </trkpt>
      <trkpt lat="48.04595" lon="6.80153">
        <ele>928.77</ele>
        <time>2017-08-02T13:24:42Z</time>
      </trkpt>
      <trkpt lat="48.04602" lon="6.80171">
        <ele>928.77</ele>
        <time>2017-08-02T13:24:51Z</time>
      </trkpt>
      <trkpt lat="48.04609" lon="6.80184">
        <ele>929.73</ele>
        <time>2017-08-02T13:25:02Z</time>
      </trkpt>
      <trkpt lat="48.04614" lon="6.80198">
        <ele>931.65</ele>
        <time>2017-08-02T13:25:13Z</time>
      </trkpt>
      <trkpt lat="48.04625" lon="6.80213">
        <ele>932.62</ele>
        <time>2017-08-02T13:25:26Z</time>
      </trkpt>
      <trkpt lat="48.04637" lon="6.80221">
        <ele>932.62</ele>
        <time>2017-08-02T13:25:38Z</time>
      </trkpt>
      <trkpt lat="48.04653" lon="6.80234">
        <ele>931.65</ele>
        <time>2017-08-02T13:25:50Z</time>
      </trkpt>
      <trkpt lat="48.04656" lon="6.80245">
        <ele>932.14</ele>
        <time>2017-08-02T13:26:01Z</time>
      </trkpt>
      <trkpt lat="48.04666" lon="6.80252">
        <ele>932.14</ele>
        <time>2017-08-02T13:26:15Z</time>
      </trkpt>
      <trkpt lat="48.04671" lon="6.80261">
        <ele>933.58</ele>
        <time>2017-08-02T13:26:48Z</time>
      </trkpt>
      <trkpt lat="48.04685" lon="6.80268">
        <ele>935.5</ele>
        <time>2017-08-02T13:27:01Z</time>
      </trkpt>
      <trkpt lat="48.04701" lon="6.8027">
        <ele>936.46</ele>
        <time>2017-08-02T13:27:46Z</time>
      </trkpt>
      <trkpt lat="48.04714" lon="6.80269">
        <ele>937.9</ele>
        <time>2017-08-02T13:27:59Z</time>
      </trkpt>
      <trkpt lat="48.04727" lon="6.80268">
        <ele>939.35</ele>
        <time>2017-08-02T13:28:14Z</time>
      </trkpt>
      <trkpt lat="48.0474" lon="6.80274">
        <ele>941.27</ele>
        <time>2017-08-02T13:28:28Z</time>
      </trkpt>
      <trkpt lat="48.04755" lon="6.80277">
        <ele>943.19</ele>
        <time>2017-08-02T13:28:44Z</time>
      </trkpt>
      <trkpt lat="48.04774" lon="6.80281">
        <ele>945.11</ele>
        <time>2017-08-02T13:29:04Z</time>
      </trkpt>
      <trkpt lat="48.04792" lon="6.80296">
        <ele>946.56</ele>
        <time>2017-08-02T13:29:22Z</time>
      </trkpt>
      <trkpt lat="48.04804" lon="6.80311">
        <ele>947.52</ele>
        <time>2017-08-02T13:29:36Z</time>
      </trkpt>
      <trkpt lat="48.04818" lon="6.80328">
        <ele>948.96</ele>
        <time>2017-08-02T13:29:53Z</time>
      </trkpt>
      <trkpt lat="48.04827" lon="6.8035">
        <ele>949.92</ele>
        <time>2017-08-02T13:30:09Z</time>
      </trkpt>
      <trkpt lat="48.04829" lon="6.80367">
        <ele>950.4</ele>
        <time>2017-08-02T13:30:21Z</time>
      </trkpt>
      <trkpt lat="48.04833" lon="6.80381">
        <ele>951.36</ele>
        <time>2017-08-02T13:30:32Z</time>
      </trkpt>
      <trkpt lat="48.04834" lon="6.80399">
        <ele>952.8</ele>
        <time>2017-08-02T13:30:50Z</time>
      </trkpt>
      <trkpt lat="48.04825" lon="6.80425">
        <ele>954.73</ele>
        <time>2017-08-02T13:31:05Z</time>
      </trkpt>
      <trkpt lat="48.04817" lon="6.80446">
        <ele>956.17</ele>
        <time>2017-08-02T13:31:22Z</time>
      </trkpt>
      <trkpt lat="48.04806" lon="6.80465">
        <ele>957.61</ele>
        <time>2017-08-02T13:31:37Z</time>
      </trkpt>
      <trkpt lat="48.04801" lon="6.80491">
        <ele>959.53</ele>
        <time>2017-08-02T13:31:54Z</time>
      </trkpt>
      <trkpt lat="48.04794" lon="6.80508">
        <ele>960.98</ele>
        <time>2017-08-02T13:32:05Z</time>
      </trkpt>
      <trkpt lat="48.04783" lon="6.80525">
        <ele>960.49</ele>
        <time>2017-08-02T13:32:18Z</time>
      </trkpt>
      <trkpt lat="48.04774" lon="6.80539">
        <ele>960.98</ele>
        <time>2017-08-02T13:32:28Z</time>
      </trkpt>
      <trkpt lat="48.04762" lon="6.80556">
        <ele>960.98</ele>
        <time>2017-08-02T13:32:41Z</time>
      </trkpt>
      <trkpt lat="48.04752" lon="6.80571">
        <ele>960.49</ele>
        <time>2017-08-02T13:32:52Z</time>
      </trkpt>
      <trkpt lat="48.04746" lon="6.80588">
        <ele>960.49</ele>
        <time>2017-08-02T13:33:02Z</time>
      </trkpt>
      <trkpt lat="48.04741" lon="6.80609">
        <ele>961.46</ele>
        <time>2017-08-02T13:33:14Z</time>
      </trkpt>
      <trkpt lat="48.04735" lon="6.80634">
        <ele>962.42</ele>
        <time>2017-08-02T13:33:28Z</time>
      </trkpt>
      <trkpt lat="48.04733" lon="6.80657">
        <ele>963.86</ele>
        <time>2017-08-02T13:33:42Z</time>
      </trkpt>
      <trkpt lat="48.04726" lon="6.80682">
        <ele>965.3</ele>
        <time>2017-08-02T13:33:55Z</time>
      </trkpt>
      <trkpt lat="48.04723" lon="6.80706">
        <ele>966.26</ele>
        <time>2017-08-02T13:34:06Z</time>
      </trkpt>
      <trkpt lat="48.04717" lon="6.80733">
        <ele>967.22</ele>
        <time>2017-08-02T13:34:22Z</time>
      </trkpt>
      <trkpt lat="48.04713" lon="6.80755">
        <ele>968.18</ele>
        <time>2017-08-02T13:34:33Z</time>
      </trkpt>
      <trkpt lat="48.0471" lon="6.80775">
        <ele>968.67</ele>
        <time>2017-08-02T13:34:43Z</time>
      </trkpt>
      <trkpt lat="48.04709" lon="6.80794">
        <ele>970.11</ele>
        <time>2017-08-02T13:34:54Z</time>
      </trkpt>
      <trkpt lat="48.04711" lon="6.80813">
        <ele>971.07</ele>
        <time>2017-08-02T13:35:04Z</time>
      </trkpt>
      <trkpt lat="48.04716" lon="6.80833">
        <ele>972.03</ele>
        <time>2017-08-02T13:35:15Z</time>
      </trkpt>
      <trkpt lat="48.04716" lon="6.80854">
        <ele>972.51</ele>
        <time>2017-08-02T13:35:26Z</time>
      </trkpt>
      <trkpt lat="48.04721" lon="6.80879">
        <ele>973.95</ele>
        <time>2017-08-02T13:35:38Z</time>
      </trkpt>
      <trkpt lat="48.04722" lon="6.80898">
        <ele>974.43</ele>
        <time>2017-08-02T13:35:47Z</time>
      </trkpt>
      <trkpt lat="48.04723" lon="6.80916">
        <ele>974.43</ele>
        <time>2017-08-02T13:35:58Z</time>
      </trkpt>
      <trkpt lat="48.04726" lon="6.80938">
        <ele>974.43</ele>
        <time>2017-08-02T13:36:10Z</time>
      </trkpt>
      <trkpt lat="48.04731" lon="6.80954">
        <ele>973.95</ele>
        <time>2017-08-02T13:36:22Z</time>
      </trkpt>
      <trkpt lat="48.04735" lon="6.80973">
        <ele>974.43</ele>
        <time>2017-08-02T13:36:36Z</time>
      </trkpt>
      <trkpt lat="48.04742" lon="6.80992">
        <ele>975.39</ele>
        <time>2017-08-02T13:36:49Z</time>
      </trkpt>
      <trkpt lat="48.04751" lon="6.81011">
        <ele>974.91</ele>
        <time>2017-08-02T13:37:06Z</time>
      </trkpt>
      <trkpt lat="48.04758" lon="6.81028">
        <ele>974.91</ele>
        <time>2017-08-02T13:37:18Z</time>
      </trkpt>
      <trkpt lat="48.04765" lon="6.81042">
        <ele>974.43</ele>
        <time>2017-08-02T13:37:30Z</time>
      </trkpt>
      <trkpt lat="48.04774" lon="6.81061">
        <ele>974.43</ele>
        <time>2017-08-02T13:37:43Z</time>
      </trkpt>
      <trkpt lat="48.04784" lon="6.81076">
        <ele>976.36</ele>
        <time>2017-08-02T13:37:56Z</time>
      </trkpt>
      <trkpt lat="48.04794" lon="6.8109">
        <ele>975.88</ele>
        <time>2017-08-02T13:38:09Z</time>
      </trkpt>
      <trkpt lat="48.04801" lon="6.81108">
        <ele>976.36</ele>
        <time>2017-08-02T13:38:21Z</time>
      </trkpt>
      <trkpt lat="48.04807" lon="6.81127">
        <ele>976.36</ele>
        <time>2017-08-02T13:38:34Z</time>
      </trkpt>
      <trkpt lat="48.04813" lon="6.81143">
        <ele>975.88</ele>
        <time>2017-08-02T13:38:46Z</time>
      </trkpt>
      <trkpt lat="48.0482" lon="6.81162">
        <ele>975.88</ele>
        <time>2017-08-02T13:39:01Z</time>
      </trkpt>
      <trkpt lat="48.04826" lon="6.81181">
        <ele>976.36</ele>
        <time>2017-08-02T13:39:12Z</time>
      </trkpt>
      <trkpt lat="48.04833" lon="6.81197">
        <ele>975.88</ele>
        <time>2017-08-02T13:39:22Z</time>
      </trkpt>
      <trkpt lat="48.0484" lon="6.81216">
        <ele>975.88</ele>
        <time>2017-08-02T13:39:35Z</time>
      </trkpt>
      <trkpt lat="48.04845" lon="6.8123">
        <ele>975.88</ele>
        <time>2017-08-02T13:39:46Z</time>
      </trkpt>
      <trkpt lat="48.0485" lon="6.81246">
        <ele>975.88</ele>
        <time>2017-08-02T13:40:00Z</time>
      </trkpt>
      <trkpt lat="48.04855" lon="6.81262">
        <ele>976.84</ele>
        <time>2017-08-02T13:40:09Z</time>
      </trkpt>
      <trkpt lat="48.0486" lon="6.81279">
        <ele>977.32</ele>
        <time>2017-08-02T13:40:18Z</time>
      </trkpt>
      <trkpt lat="48.04864" lon="6.81297">
        <ele>977.8</ele>
        <time>2017-08-02T13:40:29Z</time>
      </trkpt>
      <trkpt lat="48.0487" lon="6.81315">
        <ele>977.8</ele>
        <time>2017-08-02T13:40:40Z</time>
      </trkpt>
      <trkpt lat="48.04876" lon="6.81338">
        <ele>977.8</ele>
        <time>2017-08-02T13:40:55Z</time>
      </trkpt>
      <trkpt lat="48.04882" lon="6.81353">
        <ele>976.84</ele>
        <time>2017-08-02T13:41:07Z</time>
      </trkpt>
      <trkpt lat="48.04887" lon="6.81375">
        <ele>974.91</ele>
        <time>2017-08-02T13:41:20Z</time>
      </trkpt>
      <trkpt lat="48.04893" lon="6.81391">
        <ele>975.39</ele>
        <time>2017-08-02T13:41:33Z</time>
      </trkpt>
      <trkpt lat="48.049" lon="6.81401">
        <ele>974.91</ele>
        <time>2017-08-02T13:41:43Z</time>
      </trkpt>
      <trkpt lat="48.0489" lon="6.8138">
        <ele>1016.73</ele>
        <time>2017-08-02T13:42:25Z</time>
      </trkpt>
      <trkpt lat="48.04858" lon="6.81401">
        <ele>979.24</ele>
        <time>2017-08-02T13:42:35Z</time>
      </trkpt>
      <trkpt lat="48.04876" lon="6.81431">
        <ele>980.2</ele>
        <time>2017-08-02T13:43:17Z</time>
      </trkpt>
      <trkpt lat="48.04813" lon="6.81484">
        <ele>980.2</ele>
        <time>2017-08-02T13:44:28Z</time>
      </trkpt>
      <trkpt lat="48.04803" lon="6.81497">
        <ele>980.2</ele>
        <time>2017-08-02T13:44:38Z</time>
      </trkpt>
      <trkpt lat="48.04784" lon="6.81524">
        <ele>979.24</ele>
        <time>2017-08-02T13:44:59Z</time>
      </trkpt>
      <trkpt lat="48.04773" lon="6.81542">
        <ele>980.2</ele>
        <time>2017-08-02T13:45:11Z</time>
      </trkpt>
      <trkpt lat="48.04756" lon="6.81561">
        <ele>979.72</ele>
        <time>2017-08-02T13:45:28Z</time>
      </trkpt>
      <trkpt lat="48.04746" lon="6.81577">
        <ele>981.16</ele>
        <time>2017-08-02T13:45:40Z</time>
      </trkpt>
      <trkpt lat="48.04735" lon="6.81598">
        <ele>980.68</ele>
        <time>2017-08-02T13:45:55Z</time>
      </trkpt>
      <trkpt lat="48.04724" lon="6.81628">
        <ele>981.16</ele>
        <time>2017-08-02T13:46:13Z</time>
      </trkpt>
      <trkpt lat="48.04714" lon="6.81655">
        <ele>983.09</ele>
        <time>2017-08-02T13:46:31Z</time>
      </trkpt>
      <trkpt lat="48.04707" lon="6.81671">
        <ele>982.6</ele>
        <time>2017-08-02T13:46:43Z</time>
      </trkpt>
      <trkpt lat="48.04688" lon="6.81708">
        <ele>982.12</ele>
        <time>2017-08-02T13:47:08Z</time>
      </trkpt>
      <trkpt lat="48.0468" lon="6.81734">
        <ele>982.6</ele>
        <time>2017-08-02T13:47:23Z</time>
      </trkpt>
      <trkpt lat="48.04675" lon="6.8175">
        <ele>982.12</ele>
        <time>2017-08-02T13:47:33Z</time>
      </trkpt>
      <trkpt lat="48.04671" lon="6.81766">
        <ele>981.64</ele>
        <time>2017-08-02T13:47:43Z</time>
      </trkpt>
      <trkpt lat="48.04668" lon="6.81784">
        <ele>982.12</ele>
        <time>2017-08-02T13:47:54Z</time>
      </trkpt>
      <trkpt lat="48.04667" lon="6.818">
        <ele>981.16</ele>
        <time>2017-08-02T13:48:17Z</time>
      </trkpt>
      <trkpt lat="48.04667" lon="6.8182">
        <ele>981.64</ele>
        <time>2017-08-02T13:48:35Z</time>
      </trkpt>
      <trkpt lat="48.04667" lon="6.81835">
        <ele>981.16</ele>
        <time>2017-08-02T13:48:48Z</time>
      </trkpt>
      <trkpt lat="48.04664" lon="6.81853">
        <ele>981.16</ele>
        <time>2017-08-02T13:49:06Z</time>
      </trkpt>
      <trkpt lat="48.04659" lon="6.81866">
        <ele>981.16</ele>
        <time>2017-08-02T13:49:15Z</time>
      </trkpt>
      <trkpt lat="48.04656" lon="6.81882">
        <ele>980.68</ele>
        <time>2017-08-02T13:49:25Z</time>
      </trkpt>
      <trkpt lat="48.04656" lon="6.819">
        <ele>980.2</ele>
        <time>2017-08-02T13:49:40Z</time>
      </trkpt>
      <trkpt lat="48.04654" lon="6.81918">
        <ele>980.68</ele>
        <time>2017-08-02T13:49:49Z</time>
      </trkpt>
      <trkpt lat="48.04658" lon="6.81937">
        <ele>980.2</ele>
        <time>2017-08-02T13:49:58Z</time>
      </trkpt>
      <trkpt lat="48.04658" lon="6.81953">
        <ele>979.72</ele>
        <time>2017-08-02T13:50:07Z</time>
      </trkpt>
      <trkpt lat="48.04659" lon="6.81968">
        <ele>979.24</ele>
        <time>2017-08-02T13:50:16Z</time>
      </trkpt>
      <trkpt lat="48.04662" lon="6.81983">
        <ele>979.24</ele>
        <time>2017-08-02T13:50:25Z</time>
      </trkpt>
      <trkpt lat="48.04665" lon="6.82001">
        <ele>979.72</ele>
        <time>2017-08-02T13:50:35Z</time>
      </trkpt>
      <trkpt lat="48.04664" lon="6.82022">
        <ele>979.72</ele>
        <time>2017-08-02T13:50:47Z</time>
      </trkpt>
      <trkpt lat="48.04666" lon="6.82044">
        <ele>979.24</ele>
        <time>2017-08-02T13:50:58Z</time>
      </trkpt>
      <trkpt lat="48.04668" lon="6.82061">
        <ele>978.28</ele>
        <time>2017-08-02T13:51:06Z</time>
      </trkpt>
      <trkpt lat="48.04668" lon="6.82079">
        <ele>978.28</ele>
        <time>2017-08-02T13:51:16Z</time>
      </trkpt>
      <trkpt lat="48.04667" lon="6.82098">
        <ele>977.8</ele>
        <time>2017-08-02T13:51:27Z</time>
      </trkpt>
      <trkpt lat="48.0467" lon="6.82114">
        <ele>977.8</ele>
        <time>2017-08-02T13:51:37Z</time>
      </trkpt>
      <trkpt lat="48.04671" lon="6.82134">
        <ele>978.76</ele>
        <time>2017-08-02T13:51:45Z</time>
      </trkpt>
      <trkpt lat="48.04672" lon="6.8215">
        <ele>977.8</ele>
        <time>2017-08-02T13:51:54Z</time>
      </trkpt>
      <trkpt lat="48.04674" lon="6.8217">
        <ele>977.32</ele>
        <time>2017-08-02T13:52:05Z</time>
      </trkpt>
      <trkpt lat="48.04677" lon="6.82189">
        <ele>976.84</ele>
        <time>2017-08-02T13:52:17Z</time>
      </trkpt>
      <trkpt lat="48.0468" lon="6.82206">
        <ele>976.84</ele>
        <time>2017-08-02T13:52:37Z</time>
      </trkpt>
      <trkpt lat="48.04678" lon="6.82227">
        <ele>976.84</ele>
        <time>2017-08-02T13:52:47Z</time>
      </trkpt>
      <trkpt lat="48.04679" lon="6.82248">
        <ele>976.84</ele>
        <time>2017-08-02T13:53:01Z</time>
      </trkpt>
      <trkpt lat="48.04678" lon="6.82273">
        <ele>978.28</ele>
        <time>2017-08-02T13:53:15Z</time>
      </trkpt>
      <trkpt lat="48.04679" lon="6.82291">
        <ele>978.76</ele>
        <time>2017-08-02T13:53:26Z</time>
      </trkpt>
      <trkpt lat="48.0468" lon="6.82309">
        <ele>978.76</ele>
        <time>2017-08-02T13:53:37Z</time>
      </trkpt>
      <trkpt lat="48.04678" lon="6.82327">
        <ele>979.24</ele>
        <time>2017-08-02T13:53:48Z</time>
      </trkpt>
      <trkpt lat="48.04678" lon="6.82343">
        <ele>980.2</ele>
        <time>2017-08-02T13:53:57Z</time>
      </trkpt>
      <trkpt lat="48.04674" lon="6.82359">
        <ele>980.2</ele>
        <time>2017-08-02T13:54:08Z</time>
      </trkpt>
      <trkpt lat="48.0467" lon="6.82375">
        <ele>980.2</ele>
        <time>2017-08-02T13:54:17Z</time>
      </trkpt>
      <trkpt lat="48.04666" lon="6.82391">
        <ele>980.68</ele>
        <time>2017-08-02T13:54:27Z</time>
      </trkpt>
      <trkpt lat="48.04662" lon="6.82409">
        <ele>981.64</ele>
        <time>2017-08-02T13:54:38Z</time>
      </trkpt>
      <trkpt lat="48.04655" lon="6.82424">
        <ele>981.64</ele>
        <time>2017-08-02T13:54:49Z</time>
      </trkpt>
      <trkpt lat="48.04651" lon="6.82439">
        <ele>981.16</ele>
        <time>2017-08-02T13:54:58Z</time>
      </trkpt>
      <trkpt lat="48.04646" lon="6.82454">
        <ele>982.12</ele>
        <time>2017-08-02T13:55:08Z</time>
      </trkpt>
      <trkpt lat="48.04641" lon="6.82474">
        <ele>982.6</ele>
        <time>2017-08-02T13:55:20Z</time>
      </trkpt>
      <trkpt lat="48.04635" lon="6.82488">
        <ele>983.09</ele>
        <time>2017-08-02T13:55:29Z</time>
      </trkpt>
      <trkpt lat="48.04629" lon="6.82504">
        <ele>983.57</ele>
        <time>2017-08-02T13:55:40Z</time>
      </trkpt>
      <trkpt lat="48.04621" lon="6.82519">
        <ele>983.57</ele>
        <time>2017-08-02T13:55:50Z</time>
      </trkpt>
      <trkpt lat="48.04614" lon="6.82535">
        <ele>984.05</ele>
        <time>2017-08-02T13:56:00Z</time>
      </trkpt>
      <trkpt lat="48.04607" lon="6.82551">
        <ele>984.53</ele>
        <time>2017-08-02T13:56:11Z</time>
      </trkpt>
      <trkpt lat="48.04602" lon="6.82571">
        <ele>985.01</ele>
        <time>2017-08-02T13:56:22Z</time>
      </trkpt>
      <trkpt lat="48.04598" lon="6.82589">
        <ele>985.01</ele>
        <time>2017-08-02T13:56:33Z</time>
      </trkpt>
      <trkpt lat="48.04594" lon="6.82607">
        <ele>985.01</ele>
        <time>2017-08-02T13:56:43Z</time>
      </trkpt>
      <trkpt lat="48.04594" lon="6.82623">
        <ele>985.01</ele>
        <time>2017-08-02T13:56:51Z</time>
      </trkpt>
      <trkpt lat="48.04596" lon="6.82639">
        <ele>985.97</ele>
        <time>2017-08-02T13:57:01Z</time>
      </trkpt>
      <trkpt lat="48.04595" lon="6.82657">
        <ele>985.97</ele>
        <time>2017-08-02T13:57:11Z</time>
      </trkpt>
      <trkpt lat="48.04597" lon="6.82671">
        <ele>985.97</ele>
        <time>2017-08-02T13:57:19Z</time>
      </trkpt>
      <trkpt lat="48.04601" lon="6.82684">
        <ele>985.49</ele>
        <time>2017-08-02T13:57:27Z</time>
      </trkpt>
      <trkpt lat="48.04605" lon="6.82699">
        <ele>985.49</ele>
        <time>2017-08-02T13:57:36Z</time>
      </trkpt>
      <trkpt lat="48.0461" lon="6.82714">
        <ele>984.53</ele>
        <time>2017-08-02T13:57:45Z</time>
      </trkpt>
      <trkpt lat="48.04614" lon="6.82729">
        <ele>983.09</ele>
        <time>2017-08-02T13:57:55Z</time>
      </trkpt>
      <trkpt lat="48.0462" lon="6.82744">
        <ele>983.09</ele>
        <time>2017-08-02T13:58:05Z</time>
      </trkpt>
      <trkpt lat="48.04626" lon="6.82759">
        <ele>981.64</ele>
        <time>2017-08-02T13:58:15Z</time>
      </trkpt>
      <trkpt lat="48.04632" lon="6.82773">
        <ele>979.72</ele>
        <time>2017-08-02T13:58:24Z</time>
      </trkpt>
      <trkpt lat="48.04642" lon="6.82787">
        <ele>979.24</ele>
        <time>2017-08-02T13:58:34Z</time>
      </trkpt>
      <trkpt lat="48.04657" lon="6.82796">
        <ele>978.76</ele>
        <time>2017-08-02T13:58:46Z</time>
      </trkpt>
      <trkpt lat="48.0467" lon="6.82812">
        <ele>978.28</ele>
        <time>2017-08-02T13:58:58Z</time>
      </trkpt>
      <trkpt lat="48.0468" lon="6.82825">
        <ele>976.36</ele>
        <time>2017-08-02T13:59:09Z</time>
      </trkpt>
      <trkpt lat="48.04692" lon="6.82839">
        <ele>975.39</ele>
        <time>2017-08-02T13:59:20Z</time>
      </trkpt>
      <trkpt lat="48.047" lon="6.82857">
        <ele>974.91</ele>
        <time>2017-08-02T13:59:31Z</time>
      </trkpt>
      <trkpt lat="48.04706" lon="6.82874">
        <ele>973.95</ele>
        <time>2017-08-02T13:59:41Z</time>
      </trkpt>
      <trkpt lat="48.04714" lon="6.82888">
        <ele>972.99</ele>
        <time>2017-08-02T13:59:50Z</time>
      </trkpt>
      <trkpt lat="48.04721" lon="6.82904">
        <ele>973.47</ele>
        <time>2017-08-02T14:00:00Z</time>
      </trkpt>
      <trkpt lat="48.04727" lon="6.8292">
        <ele>971.07</ele>
        <time>2017-08-02T14:00:12Z</time>
      </trkpt>
      <trkpt lat="48.04738" lon="6.82936">
        <ele>971.07</ele>
        <time>2017-08-02T14:00:22Z</time>
      </trkpt>
      <trkpt lat="48.04746" lon="6.82953">
        <ele>970.59</ele>
        <time>2017-08-02T14:00:33Z</time>
      </trkpt>
      <trkpt lat="48.04753" lon="6.82968">
        <ele>969.15</ele>
        <time>2017-08-02T14:00:41Z</time>
      </trkpt>
      <trkpt lat="48.04756" lon="6.82986">
        <ele>968.67</ele>
        <time>2017-08-02T14:00:51Z</time>
      </trkpt>
      <trkpt lat="48.0476" lon="6.83005">
        <ele>967.22</ele>
        <time>2017-08-02T14:01:02Z</time>
      </trkpt>
      <trkpt lat="48.04773" lon="6.83015">
        <ele>968.18</ele>
        <time>2017-08-02T14:01:16Z</time>
      </trkpt>
      <trkpt lat="48.04789" lon="6.83019">
        <ele>970.59</ele>
        <time>2017-08-02T14:01:30Z</time>
      </trkpt>
      <trkpt lat="48.04805" lon="6.8303">
        <ele>971.07</ele>
        <time>2017-08-02T14:01:44Z</time>
      </trkpt>
      <trkpt lat="48.04817" lon="6.83041">
        <ele>970.59</ele>
        <time>2017-08-02T14:01:55Z</time>
      </trkpt>
      <trkpt lat="48.04825" lon="6.8305">
        <ele>971.55</ele>
        <time>2017-08-02T14:02:06Z</time>
      </trkpt>
      <trkpt lat="48.04837" lon="6.83064">
        <ele>970.59</ele>
        <time>2017-08-02T14:02:17Z</time>
      </trkpt>
      <trkpt lat="48.04848" lon="6.83077">
        <ele>971.55</ele>
        <time>2017-08-02T14:02:27Z</time>
      </trkpt>
      <trkpt lat="48.04858" lon="6.83087">
        <ele>971.55</ele>
        <time>2017-08-02T14:02:35Z</time>
      </trkpt>
      <trkpt lat="48.04861" lon="6.83108">
        <ele>972.03</ele>
        <time>2017-08-02T14:02:47Z</time>
      </trkpt>
      <trkpt lat="48.04867" lon="6.83125">
        <ele>971.07</ele>
        <time>2017-08-02T14:02:56Z</time>
      </trkpt>
      <trkpt lat="48.0487" lon="6.8314">
        <ele>970.59</ele>
        <time>2017-08-02T14:03:04Z</time>
      </trkpt>
      <trkpt lat="48.04876" lon="6.83158">
        <ele>968.67</ele>
        <time>2017-08-02T14:03:14Z</time>
      </trkpt>
      <trkpt lat="48.0488" lon="6.83172">
        <ele>967.7</ele>
        <time>2017-08-02T14:03:23Z</time>
      </trkpt>
      <trkpt lat="48.04888" lon="6.83188">
        <ele>967.7</ele>
        <time>2017-08-02T14:03:32Z</time>
      </trkpt>
      <trkpt lat="48.04895" lon="6.83206">
        <ele>965.78</ele>
        <time>2017-08-02T14:03:43Z</time>
      </trkpt>
      <trkpt lat="48.04903" lon="6.8322">
        <ele>965.78</ele>
        <time>2017-08-02T14:03:53Z</time>
      </trkpt>
      <trkpt lat="48.0491" lon="6.83234">
        <ele>964.34</ele>
        <time>2017-08-02T14:04:02Z</time>
      </trkpt>
      <trkpt lat="48.04915" lon="6.8325">
        <ele>963.86</ele>
        <time>2017-08-02T14:04:13Z</time>
      </trkpt>
      <trkpt lat="48.04925" lon="6.83264">
        <ele>962.42</ele>
        <time>2017-08-02T14:04:22Z</time>
      </trkpt>
      <trkpt lat="48.04935" lon="6.8328">
        <ele>961.46</ele>
        <time>2017-08-02T14:04:36Z</time>
      </trkpt>
      <trkpt lat="48.04946" lon="6.83291">
        <ele>960.49</ele>
        <time>2017-08-02T14:04:46Z</time>
      </trkpt>
      <trkpt lat="48.04954" lon="6.833">
        <ele>959.53</ele>
        <time>2017-08-02T14:04:53Z</time>
      </trkpt>
      <trkpt lat="48.04963" lon="6.83309">
        <ele>959.53</ele>
        <time>2017-08-02T14:05:01Z</time>
      </trkpt>
      <trkpt lat="48.04974" lon="6.83311">
        <ele>959.05</ele>
        <time>2017-08-02T14:05:11Z</time>
      </trkpt>
      <trkpt lat="48.04991" lon="6.83309">
        <ele>959.53</ele>
        <time>2017-08-02T14:05:25Z</time>
      </trkpt>
      <trkpt lat="48.05" lon="6.833">
        <ele>958.57</ele>
        <time>2017-08-02T14:06:00Z</time>
      </trkpt>
      <trkpt lat="48.04998" lon="6.83307">
        <ele>959.05</ele>
        <time>2017-08-02T14:07:19Z</time>
      </trkpt>
      <trkpt lat="48.05001" lon="6.83297">
        <ele>960.01</ele>
        <time>2017-08-02T14:08:06Z</time>
      </trkpt>
      <trkpt lat="48.05002" lon="6.8328">
        <ele>961.46</ele>
        <time>2017-08-02T14:10:24Z</time>
      </trkpt>
      <trkpt lat="48.05006" lon="6.83264">
        <ele>962.9</ele>
        <time>2017-08-02T14:10:51Z</time>
      </trkpt>
      <trkpt lat="48.05014" lon="6.83243">
        <ele>964.82</ele>
        <time>2017-08-02T14:11:03Z</time>
      </trkpt>
      <trkpt lat="48.05019" lon="6.83225">
        <ele>965.3</ele>
        <time>2017-08-02T14:11:15Z</time>
      </trkpt>
      <trkpt lat="48.05018" lon="6.83205">
        <ele>966.74</ele>
        <time>2017-08-02T14:11:29Z</time>
      </trkpt>
      <trkpt lat="48.05015" lon="6.83186">
        <ele>968.18</ele>
        <time>2017-08-02T14:11:42Z</time>
      </trkpt>
      <trkpt lat="48.05013" lon="6.83162">
        <ele>968.18</ele>
        <time>2017-08-02T14:11:53Z</time>
      </trkpt>
      <trkpt lat="48.05012" lon="6.83143">
        <ele>968.18</ele>
        <time>2017-08-02T14:12:04Z</time>
      </trkpt>
      <trkpt lat="48.05013" lon="6.83124">
        <ele>970.11</ele>
        <time>2017-08-02T14:12:15Z</time>
      </trkpt>
      <trkpt lat="48.05019" lon="6.83109">
        <ele>970.59</ele>
        <time>2017-08-02T14:12:25Z</time>
      </trkpt>
      <trkpt lat="48.05021" lon="6.83091">
        <ele>971.07</ele>
        <time>2017-08-02T14:12:35Z</time>
      </trkpt>
      <trkpt lat="48.05022" lon="6.83076">
        <ele>970.59</ele>
        <time>2017-08-02T14:12:44Z</time>
      </trkpt>
      <trkpt lat="48.05021" lon="6.83058">
        <ele>970.11</ele>
        <time>2017-08-02T14:12:53Z</time>
      </trkpt>
      <trkpt lat="48.05016" lon="6.83044">
        <ele>969.63</ele>
        <time>2017-08-02T14:13:01Z</time>
      </trkpt>
      <trkpt lat="48.0501" lon="6.83029">
        <ele>969.15</ele>
        <time>2017-08-02T14:13:11Z</time>
      </trkpt>
      <trkpt lat="48.05006" lon="6.8301">
        <ele>968.18</ele>
        <time>2017-08-02T14:13:20Z</time>
      </trkpt>
      <trkpt lat="48.0501" lon="6.8299">
        <ele>969.15</ele>
        <time>2017-08-02T14:13:29Z</time>
      </trkpt>
      <trkpt lat="48.05013" lon="6.82977">
        <ele>968.67</ele>
        <time>2017-08-02T14:13:36Z</time>
      </trkpt>
      <trkpt lat="48.05016" lon="6.8296">
        <ele>967.22</ele>
        <time>2017-08-02T14:13:45Z</time>
      </trkpt>
      <trkpt lat="48.05021" lon="6.82942">
        <ele>967.7</ele>
        <time>2017-08-02T14:13:54Z</time>
      </trkpt>
      <trkpt lat="48.05028" lon="6.82931">
        <ele>966.26</ele>
        <time>2017-08-02T14:14:02Z</time>
      </trkpt>
      <trkpt lat="48.05029" lon="6.82914">
        <ele>966.74</ele>
        <time>2017-08-02T14:14:10Z</time>
      </trkpt>
      <trkpt lat="48.05039" lon="6.82902">
        <ele>965.78</ele>
        <time>2017-08-02T14:14:19Z</time>
      </trkpt>
      <trkpt lat="48.05048" lon="6.82888">
        <ele>965.3</ele>
        <time>2017-08-02T14:14:27Z</time>
      </trkpt>
      <trkpt lat="48.0505" lon="6.82874">
        <ele>965.3</ele>
        <time>2017-08-02T14:14:35Z</time>
      </trkpt>
      <trkpt lat="48.05057" lon="6.82858">
        <ele>964.82</ele>
        <time>2017-08-02T14:14:44Z</time>
      </trkpt>
      <trkpt lat="48.05064" lon="6.82844">
        <ele>964.82</ele>
        <time>2017-08-02T14:14:52Z</time>
      </trkpt>
      <trkpt lat="48.05071" lon="6.82831">
        <ele>964.82</ele>
        <time>2017-08-02T14:15:01Z</time>
      </trkpt>
      <trkpt lat="48.05089" lon="6.82829">
        <ele>964.34</ele>
        <time>2017-08-02T14:15:17Z</time>
      </trkpt>
      <trkpt lat="48.05113" lon="6.82827">
        <ele>963.38</ele>
        <time>2017-08-02T14:15:41Z</time>
      </trkpt>
      <trkpt lat="48.05133" lon="6.8283">
        <ele>961.94</ele>
        <time>2017-08-02T14:15:53Z</time>
      </trkpt>
      <trkpt lat="48.05148" lon="6.82826">
        <ele>961.94</ele>
        <time>2017-08-02T14:16:03Z</time>
      </trkpt>
      <trkpt lat="48.05165" lon="6.82822">
        <ele>959.53</ele>
        <time>2017-08-02T14:16:15Z</time>
      </trkpt>
      <trkpt lat="48.05178" lon="6.82828">
        <ele>959.05</ele>
        <time>2017-08-02T14:16:24Z</time>
      </trkpt>
      <trkpt lat="48.05189" lon="6.82839">
        <ele>958.57</ele>
        <time>2017-08-02T14:16:36Z</time>
      </trkpt>
      <trkpt lat="48.052" lon="6.8285">
        <ele>959.53</ele>
        <time>2017-08-02T14:16:47Z</time>
      </trkpt>
      <trkpt lat="48.05209" lon="6.82856">
        <ele>959.05</ele>
        <time>2017-08-02T14:16:54Z</time>
      </trkpt>
      <trkpt lat="48.05226" lon="6.82863">
        <ele>957.61</ele>
        <time>2017-08-02T14:17:07Z</time>
      </trkpt>
      <trkpt lat="48.05246" lon="6.82865">
        <ele>957.61</ele>
        <time>2017-08-02T14:17:19Z</time>
      </trkpt>
      <trkpt lat="48.05263" lon="6.82867">
        <ele>956.17</ele>
        <time>2017-08-02T14:17:32Z</time>
      </trkpt>
      <trkpt lat="48.05279" lon="6.82875">
        <ele>954.73</ele>
        <time>2017-08-02T14:17:44Z</time>
      </trkpt>
      <trkpt lat="48.05293" lon="6.82884">
        <ele>953.77</ele>
        <time>2017-08-02T14:17:56Z</time>
      </trkpt>
      <trkpt lat="48.0531" lon="6.82895">
        <ele>950.88</ele>
        <time>2017-08-02T14:18:07Z</time>
      </trkpt>
      <trkpt lat="48.05322" lon="6.82896">
        <ele>948.96</ele>
        <time>2017-08-02T14:18:21Z</time>
      </trkpt>
      <trkpt lat="48.05333" lon="6.82897">
        <ele>946.56</ele>
        <time>2017-08-02T14:18:32Z</time>
      </trkpt>
      <trkpt lat="48.05351" lon="6.82895">
        <ele>944.63</ele>
        <time>2017-08-02T14:18:45Z</time>
      </trkpt>
      <trkpt lat="48.05363" lon="6.82893">
        <ele>943.67</ele>
        <time>2017-08-02T14:18:54Z</time>
      </trkpt>
      <trkpt lat="48.05384" lon="6.82887">
        <ele>942.71</ele>
        <time>2017-08-02T14:19:09Z</time>
      </trkpt>
      <trkpt lat="48.05398" lon="6.82884">
        <ele>941.27</ele>
        <time>2017-08-02T14:19:18Z</time>
      </trkpt>
      <trkpt lat="48.05411" lon="6.8288">
        <ele>940.31</ele>
        <time>2017-08-02T14:19:26Z</time>
      </trkpt>
      <trkpt lat="48.05419" lon="6.82873">
        <ele>939.35</ele>
        <time>2017-08-02T14:19:35Z</time>
      </trkpt>
      <trkpt lat="48.05433" lon="6.8287">
        <ele>938.86</ele>
        <time>2017-08-02T14:19:51Z</time>
      </trkpt>
      <trkpt lat="48.05445" lon="6.82864">
        <ele>938.38</ele>
        <time>2017-08-02T14:20:03Z</time>
      </trkpt>
      <trkpt lat="48.05457" lon="6.82858">
        <ele>938.38</ele>
        <time>2017-08-02T14:20:11Z</time>
      </trkpt>
      <trkpt lat="48.05472" lon="6.82852">
        <ele>938.38</ele>
        <time>2017-08-02T14:20:19Z</time>
      </trkpt>
      <trkpt lat="48.05501" lon="6.82857">
        <ele>938.38</ele>
        <time>2017-08-02T14:20:35Z</time>
      </trkpt>
      <trkpt lat="48.05517" lon="6.82864">
        <ele>939.35</ele>
        <time>2017-08-02T14:20:46Z</time>
      </trkpt>
      <trkpt lat="48.05528" lon="6.82868">
        <ele>938.86</ele>
        <time>2017-08-02T14:20:57Z</time>
      </trkpt>
      <trkpt lat="48.0554" lon="6.82878">
        <ele>938.38</ele>
        <time>2017-08-02T14:21:10Z</time>
      </trkpt>
      <trkpt lat="48.05557" lon="6.82885">
        <ele>936.94</ele>
        <time>2017-08-02T14:21:21Z</time>
      </trkpt>
      <trkpt lat="48.05577" lon="6.82892">
        <ele>935.98</ele>
        <time>2017-08-02T14:21:34Z</time>
      </trkpt>
      <trkpt lat="48.05589" lon="6.82903">
        <ele>935.02</ele>
        <time>2017-08-02T14:21:43Z</time>
      </trkpt>
      <trkpt lat="48.05594" lon="6.82913">
        <ele>934.06</ele>
        <time>2017-08-02T14:21:50Z</time>
      </trkpt>
      <trkpt lat="48.05597" lon="6.82927">
        <ele>933.58</ele>
        <time>2017-08-02T14:21:58Z</time>
      </trkpt>
      <trkpt lat="48.05597" lon="6.82941">
        <ele>932.62</ele>
        <time>2017-08-02T14:22:06Z</time>
      </trkpt>
      <trkpt lat="48.05595" lon="6.8296">
        <ele>932.62</ele>
        <time>2017-08-02T14:22:15Z</time>
      </trkpt>
      <trkpt lat="48.05597" lon="6.82976">
        <ele>931.65</ele>
        <time>2017-08-02T14:22:23Z</time>
      </trkpt>
      <trkpt lat="48.05599" lon="6.82992">
        <ele>930.69</ele>
        <time>2017-08-02T14:22:31Z</time>
      </trkpt>
      <trkpt lat="48.05602" lon="6.83006">
        <ele>929.73</ele>
        <time>2017-08-02T14:22:39Z</time>
      </trkpt>
      <trkpt lat="48.05608" lon="6.83019">
        <ele>929.25</ele>
        <time>2017-08-02T14:22:47Z</time>
      </trkpt>
      <trkpt lat="48.05616" lon="6.83031">
        <ele>928.29</ele>
        <time>2017-08-02T14:22:56Z</time>
      </trkpt>
      <trkpt lat="48.05622" lon="6.83045">
        <ele>927.81</ele>
        <time>2017-08-02T14:23:05Z</time>
      </trkpt>
      <trkpt lat="48.05628" lon="6.83057">
        <ele>926.85</ele>
        <time>2017-08-02T14:23:13Z</time>
      </trkpt>
      <trkpt lat="48.05634" lon="6.83071">
        <ele>926.85</ele>
        <time>2017-08-02T14:23:21Z</time>
      </trkpt>
      <trkpt lat="48.0564" lon="6.83081">
        <ele>925.89</ele>
        <time>2017-08-02T14:23:29Z</time>
      </trkpt>
      <trkpt lat="48.05648" lon="6.83091">
        <ele>925.89</ele>
        <time>2017-08-02T14:23:39Z</time>
      </trkpt>
      <trkpt lat="48.05654" lon="6.83104">
        <ele>924.93</ele>
        <time>2017-08-02T14:24:35Z</time>
      </trkpt>
      <trkpt lat="48.05664" lon="6.83118">
        <ele>923.96</ele>
        <time>2017-08-02T14:24:48Z</time>
      </trkpt>
      <trkpt lat="48.05675" lon="6.83132">
        <ele>923</ele>
        <time>2017-08-02T14:25:12Z</time>
      </trkpt>
      <trkpt lat="48.05686" lon="6.83144">
        <ele>922.52</ele>
        <time>2017-08-02T14:25:25Z</time>
      </trkpt>
      <trkpt lat="48.05697" lon="6.83162">
        <ele>922.52</ele>
        <time>2017-08-02T14:25:36Z</time>
      </trkpt>
      <trkpt lat="48.05706" lon="6.83176">
        <ele>922.04</ele>
        <time>2017-08-02T14:25:47Z</time>
      </trkpt>
      <trkpt lat="48.05716" lon="6.83189">
        <ele>921.56</ele>
        <time>2017-08-02T14:25:57Z</time>
      </trkpt>
      <trkpt lat="48.05727" lon="6.83191">
        <ele>921.56</ele>
        <time>2017-08-02T14:26:08Z</time>
      </trkpt>
      <trkpt lat="48.0574" lon="6.83196">
        <ele>920.6</ele>
        <time>2017-08-02T14:26:47Z</time>
      </trkpt>
      <trkpt lat="48.05741" lon="6.83191">
        <ele>919.64</ele>
        <time>2017-08-02T14:28:11Z</time>
      </trkpt>
      <trkpt lat="48.05756" lon="6.83209">
        <ele>919.64</ele>
        <time>2017-08-02T14:28:23Z</time>
      </trkpt>
      <trkpt lat="48.05768" lon="6.83225">
        <ele>918.2</ele>
        <time>2017-08-02T14:28:37Z</time>
      </trkpt>
      <trkpt lat="48.05782" lon="6.83233">
        <ele>917.24</ele>
        <time>2017-08-02T14:28:48Z</time>
      </trkpt>
      <trkpt lat="48.05792" lon="6.83251">
        <ele>915.79</ele>
        <time>2017-08-02T14:29:01Z</time>
      </trkpt>
      <trkpt lat="48.05804" lon="6.83265">
        <ele>914.83</ele>
        <time>2017-08-02T14:29:13Z</time>
      </trkpt>
      <trkpt lat="48.05813" lon="6.83278">
        <ele>913.39</ele>
        <time>2017-08-02T14:29:24Z</time>
      </trkpt>
      <trkpt lat="48.05821" lon="6.83289">
        <ele>912.91</ele>
        <time>2017-08-02T14:29:33Z</time>
      </trkpt>
      <trkpt lat="48.05832" lon="6.83302">
        <ele>911.47</ele>
        <time>2017-08-02T14:29:45Z</time>
      </trkpt>
      <trkpt lat="48.05843" lon="6.83314">
        <ele>910.51</ele>
        <time>2017-08-02T14:29:54Z</time>
      </trkpt>
      <trkpt lat="48.05849" lon="6.83328">
        <ele>909.54</ele>
        <time>2017-08-02T14:30:04Z</time>
      </trkpt>
      <trkpt lat="48.05856" lon="6.83343">
        <ele>908.58</ele>
        <time>2017-08-02T14:30:14Z</time>
      </trkpt>
      <trkpt lat="48.05861" lon="6.8336">
        <ele>907.62</ele>
        <time>2017-08-02T14:30:24Z</time>
      </trkpt>
      <trkpt lat="48.05867" lon="6.83377">
        <ele>907.14</ele>
        <time>2017-08-02T14:30:37Z</time>
      </trkpt>
      <trkpt lat="48.05872" lon="6.83391">
        <ele>906.66</ele>
        <time>2017-08-02T14:30:46Z</time>
      </trkpt>
      <trkpt lat="48.05875" lon="6.83406">
        <ele>905.22</ele>
        <time>2017-08-02T14:30:54Z</time>
      </trkpt>
      <trkpt lat="48.05877" lon="6.83419">
        <ele>904.74</ele>
        <time>2017-08-02T14:31:02Z</time>
      </trkpt>
      <trkpt lat="48.0588" lon="6.83435">
        <ele>903.3</ele>
        <time>2017-08-02T14:31:11Z</time>
      </trkpt>
      <trkpt lat="48.05882" lon="6.83452">
        <ele>902.82</ele>
        <time>2017-08-02T14:31:20Z</time>
      </trkpt>
      <trkpt lat="48.05882" lon="6.83471">
        <ele>900.89</ele>
        <time>2017-08-02T14:31:31Z</time>
      </trkpt>
      <trkpt lat="48.05886" lon="6.83489">
        <ele>899.45</ele>
        <time>2017-08-02T14:31:41Z</time>
      </trkpt>
      <trkpt lat="48.05892" lon="6.83505">
        <ele>898.49</ele>
        <time>2017-08-02T14:31:50Z</time>
      </trkpt>
      <trkpt lat="48.05901" lon="6.8352">
        <ele>898.01</ele>
        <time>2017-08-02T14:32:00Z</time>
      </trkpt>
      <trkpt lat="48.05908" lon="6.83531">
        <ele>897.05</ele>
        <time>2017-08-02T14:32:10Z</time>
      </trkpt>
      <trkpt lat="48.05919" lon="6.8354">
        <ele>896.09</ele>
        <time>2017-08-02T14:32:18Z</time>
      </trkpt>
      <trkpt lat="48.0593" lon="6.83553">
        <ele>894.64</ele>
        <time>2017-08-02T14:32:28Z</time>
      </trkpt>
      <trkpt lat="48.05938" lon="6.83565">
        <ele>893.2</ele>
        <time>2017-08-02T14:32:37Z</time>
      </trkpt>
      <trkpt lat="48.05939" lon="6.83583">
        <ele>891.28</ele>
        <time>2017-08-02T14:32:47Z</time>
      </trkpt>
      <trkpt lat="48.0593" lon="6.83597">
        <ele>889.36</ele>
        <time>2017-08-02T14:32:57Z</time>
      </trkpt>
      <trkpt lat="48.05921" lon="6.83609">
        <ele>885.99</ele>
        <time>2017-08-02T14:33:08Z</time>
      </trkpt>
      <trkpt lat="48.05909" lon="6.83627">
        <ele>883.59</ele>
        <time>2017-08-02T14:33:21Z</time>
      </trkpt>
      <trkpt lat="48.05901" lon="6.83641">
        <ele>881.67</ele>
        <time>2017-08-02T14:33:33Z</time>
      </trkpt>
      <trkpt lat="48.05895" lon="6.83658">
        <ele>880.71</ele>
        <time>2017-08-02T14:33:41Z</time>
      </trkpt>
      <trkpt lat="48.05887" lon="6.83675">
        <ele>878.78</ele>
        <time>2017-08-02T14:33:51Z</time>
      </trkpt>
      <trkpt lat="48.05881" lon="6.83694">
        <ele>876.86</ele>
        <time>2017-08-02T14:34:02Z</time>
      </trkpt>
      <trkpt lat="48.05875" lon="6.83713">
        <ele>873.98</ele>
        <time>2017-08-02T14:34:14Z</time>
      </trkpt>
      <trkpt lat="48.0587" lon="6.8373">
        <ele>872.53</ele>
        <time>2017-08-02T14:34:24Z</time>
      </trkpt>
      <trkpt lat="48.05865" lon="6.83743">
        <ele>870.61</ele>
        <time>2017-08-02T14:34:33Z</time>
      </trkpt>
      <trkpt lat="48.05859" lon="6.83761">
        <ele>869.17</ele>
        <time>2017-08-02T14:34:43Z</time>
      </trkpt>
      <trkpt lat="48.05855" lon="6.83779">
        <ele>867.73</ele>
        <time>2017-08-02T14:34:58Z</time>
      </trkpt>
      <trkpt lat="48.05848" lon="6.83805">
        <ele>866.77</ele>
        <time>2017-08-02T14:35:12Z</time>
      </trkpt>
      <trkpt lat="48.05843" lon="6.83824">
        <ele>866.77</ele>
        <time>2017-08-02T14:35:21Z</time>
      </trkpt>
      <trkpt lat="48.05841" lon="6.83841">
        <ele>866.29</ele>
        <time>2017-08-02T14:35:30Z</time>
      </trkpt>
      <trkpt lat="48.05843" lon="6.8386">
        <ele>866.77</ele>
        <time>2017-08-02T14:35:39Z</time>
      </trkpt>
      <trkpt lat="48.05846" lon="6.83877">
        <ele>866.77</ele>
        <time>2017-08-02T14:35:47Z</time>
      </trkpt>
      <trkpt lat="48.05847" lon="6.83893">
        <ele>867.25</ele>
        <time>2017-08-02T14:35:56Z</time>
      </trkpt>
      <trkpt lat="48.05846" lon="6.83914">
        <ele>867.73</ele>
        <time>2017-08-02T14:36:07Z</time>
      </trkpt>
      <trkpt lat="48.05847" lon="6.83929">
        <ele>868.21</ele>
        <time>2017-08-02T14:36:16Z</time>
      </trkpt>
      <trkpt lat="48.05849" lon="6.83947">
        <ele>868.69</ele>
        <time>2017-08-02T14:36:26Z</time>
      </trkpt>
      <trkpt lat="48.05852" lon="6.83968">
        <ele>868.69</ele>
        <time>2017-08-02T14:36:35Z</time>
      </trkpt>
      <trkpt lat="48.05853" lon="6.83991">
        <ele>868.69</ele>
        <time>2017-08-02T14:36:47Z</time>
      </trkpt>
      <trkpt lat="48.0585" lon="6.84009">
        <ele>869.17</ele>
        <time>2017-08-02T14:36:58Z</time>
      </trkpt>
      <trkpt lat="48.05845" lon="6.84026">
        <ele>869.65</ele>
        <time>2017-08-02T14:37:07Z</time>
      </trkpt>
      <trkpt lat="48.05849" lon="6.84045">
        <ele>870.61</ele>
        <time>2017-08-02T14:37:17Z</time>
      </trkpt>
      <trkpt lat="48.05857" lon="6.84067">
        <ele>871.57</ele>
        <time>2017-08-02T14:37:29Z</time>
      </trkpt>
      <trkpt lat="48.0586" lon="6.84086">
        <ele>873.98</ele>
        <time>2017-08-02T14:37:40Z</time>
      </trkpt>
      <trkpt lat="48.05856" lon="6.84105">
        <ele>875.42</ele>
        <time>2017-08-02T14:37:53Z</time>
      </trkpt>
      <trkpt lat="48.05848" lon="6.84124">
        <ele>876.38</ele>
        <time>2017-08-02T14:38:03Z</time>
      </trkpt>
      <trkpt lat="48.05844" lon="6.84145">
        <ele>876.86</ele>
        <time>2017-08-02T14:38:13Z</time>
      </trkpt>
      <trkpt lat="48.05841" lon="6.84165">
        <ele>876.38</ele>
        <time>2017-08-02T14:38:24Z</time>
      </trkpt>
      <trkpt lat="48.05841" lon="6.84179">
        <ele>874.94</ele>
        <time>2017-08-02T14:38:34Z</time>
      </trkpt>
      <trkpt lat="48.05843" lon="6.84199">
        <ele>873.01</ele>
        <time>2017-08-02T14:38:45Z</time>
      </trkpt>
      <trkpt lat="48.05844" lon="6.84221">
        <ele>870.61</ele>
        <time>2017-08-02T14:38:57Z</time>
      </trkpt>
      <trkpt lat="48.05846" lon="6.84239">
        <ele>869.65</ele>
        <time>2017-08-02T14:39:06Z</time>
      </trkpt>
      <trkpt lat="48.05854" lon="6.84253">
        <ele>868.69</ele>
        <time>2017-08-02T14:39:15Z</time>
      </trkpt>
      <trkpt lat="48.05865" lon="6.84265">
        <ele>869.65</ele>
        <time>2017-08-02T14:39:25Z</time>
      </trkpt>
      <trkpt lat="48.0588" lon="6.8427">
        <ele>871.09</ele>
        <time>2017-08-02T14:39:38Z</time>
      </trkpt>
      <trkpt lat="48.05892" lon="6.84279">
        <ele>872.53</ele>
        <time>2017-08-02T14:39:53Z</time>
      </trkpt>
      <trkpt lat="48.05904" lon="6.84291">
        <ele>873.01</ele>
        <time>2017-08-02T14:40:03Z</time>
      </trkpt>
      <trkpt lat="48.05916" lon="6.84307">
        <ele>873.5</ele>
        <time>2017-08-02T14:40:16Z</time>
      </trkpt>
      <trkpt lat="48.05928" lon="6.84322">
        <ele>873.5</ele>
        <time>2017-08-02T14:40:26Z</time>
      </trkpt>
      <trkpt lat="48.05936" lon="6.84338">
        <ele>873.98</ele>
        <time>2017-08-02T14:40:36Z</time>
      </trkpt>
      <trkpt lat="48.05948" lon="6.84352">
        <ele>874.46</ele>
        <time>2017-08-02T14:40:48Z</time>
      </trkpt>
      <trkpt lat="48.0596" lon="6.84363">
        <ele>874.94</ele>
        <time>2017-08-02T14:40:59Z</time>
      </trkpt>
      <trkpt lat="48.05967" lon="6.84379">
        <ele>874.94</ele>
        <time>2017-08-02T14:41:10Z</time>
      </trkpt>
      <trkpt lat="48.0598" lon="6.84389">
        <ele>875.42</ele>
        <time>2017-08-02T14:41:21Z</time>
      </trkpt>
      <trkpt lat="48.05991" lon="6.84403">
        <ele>875.42</ele>
        <time>2017-08-02T14:41:34Z</time>
      </trkpt>
      <trkpt lat="48.06005" lon="6.8441">
        <ele>875.42</ele>
        <time>2017-08-02T14:41:44Z</time>
      </trkpt>
      <trkpt lat="48.06019" lon="6.84423">
        <ele>875.9</ele>
        <time>2017-08-02T14:41:55Z</time>
      </trkpt>
      <trkpt lat="48.06032" lon="6.84424">
        <ele>877.34</ele>
        <time>2017-08-02T14:42:08Z</time>
      </trkpt>
      <trkpt lat="48.0605" lon="6.84422">
        <ele>877.82</ele>
        <time>2017-08-02T14:42:22Z</time>
      </trkpt>
      <trkpt lat="48.06067" lon="6.84416">
        <ele>878.3</ele>
        <time>2017-08-02T14:42:34Z</time>
      </trkpt>
      <trkpt lat="48.06079" lon="6.84408">
        <ele>879.26</ele>
        <time>2017-08-02T14:42:44Z</time>
      </trkpt>
      <trkpt lat="48.06085" lon="6.84401">
        <ele>880.71</ele>
        <time>2017-08-02T14:42:53Z</time>
      </trkpt>
      <trkpt lat="48.06095" lon="6.84394">
        <ele>881.67</ele>
        <time>2017-08-02T14:43:04Z</time>
      </trkpt>
      <trkpt lat="48.06105" lon="6.84384">
        <ele>882.15</ele>
        <time>2017-08-02T14:43:27Z</time>
      </trkpt>
      <trkpt lat="48.06118" lon="6.84378">
        <ele>882.63</ele>
        <time>2017-08-02T14:43:53Z</time>
      </trkpt>
      <trkpt lat="48.06125" lon="6.84376">
        <ele>883.59</ele>
        <time>2017-08-02T14:44:28Z</time>
      </trkpt>
      <trkpt lat="48.06146" lon="6.84376">
        <ele>883.11</ele>
        <time>2017-08-02T14:44:44Z</time>
      </trkpt>
      <trkpt lat="48.06165" lon="6.8438">
        <ele>882.63</ele>
        <time>2017-08-02T14:44:55Z</time>
      </trkpt>
      <trkpt lat="48.06183" lon="6.84379">
        <ele>881.67</ele>
        <time>2017-08-02T14:45:08Z</time>
      </trkpt>
      <trkpt lat="48.06217" lon="6.84386">
        <ele>880.22</ele>
        <time>2017-08-02T14:45:31Z</time>
      </trkpt>
      <trkpt lat="48.06227" lon="6.844">
        <ele>880.22</ele>
        <time>2017-08-02T14:45:42Z</time>
      </trkpt>
      <trkpt lat="48.06236" lon="6.84407">
        <ele>881.19</ele>
        <time>2017-08-02T14:45:51Z</time>
      </trkpt>
      <trkpt lat="48.06246" lon="6.84419">
        <ele>882.63</ele>
        <time>2017-08-02T14:46:02Z</time>
      </trkpt>
      <trkpt lat="48.06266" lon="6.84416">
        <ele>885.51</ele>
        <time>2017-08-02T14:46:23Z</time>
      </trkpt>
      <trkpt lat="48.06285" lon="6.84407">
        <ele>887.43</ele>
        <time>2017-08-02T14:46:43Z</time>
      </trkpt>
      <trkpt lat="48.063" lon="6.84403">
        <ele>889.84</ele>
        <time>2017-08-02T14:46:59Z</time>
      </trkpt>
      <trkpt lat="48.06316" lon="6.84414">
        <ele>891.28</ele>
        <time>2017-08-02T14:47:12Z</time>
      </trkpt>
      <trkpt lat="48.06331" lon="6.84414">
        <ele>894.16</ele>
        <time>2017-08-02T14:47:38Z</time>
      </trkpt>
      <trkpt lat="48.06348" lon="6.84406">
        <ele>895.12</ele>
        <time>2017-08-02T14:47:51Z</time>
      </trkpt>
      <trkpt lat="48.0636" lon="6.84397">
        <ele>897.53</ele>
        <time>2017-08-02T14:48:16Z</time>
      </trkpt>
      <trkpt lat="48.06378" lon="6.84391">
        <ele>899.93</ele>
        <time>2017-08-02T14:48:34Z</time>
      </trkpt>
      <trkpt lat="48.06383" lon="6.84385">
        <ele>900.41</ele>
        <time>2017-08-02T14:49:10Z</time>
      </trkpt>
      <trkpt lat="48.06385" lon="6.84394">
        <ele>901.37</ele>
        <time>2017-08-02T14:51:19Z</time>
      </trkpt>
      <trkpt lat="48.06384" lon="6.84392">
        <ele>901.37</ele>
        <time>2017-08-02T14:52:19Z</time>
      </trkpt>
      <trkpt lat="48.0639" lon="6.84394">
        <ele>900.89</ele>
        <time>2017-08-02T14:52:50Z</time>
      </trkpt>
      <trkpt lat="48.0638" lon="6.84398">
        <ele>901.37</ele>
        <time>2017-08-02T14:54:26Z</time>
      </trkpt>
      <trkpt lat="48.06371" lon="6.84409">
        <ele>898.97</ele>
        <time>2017-08-02T14:55:16Z</time>
      </trkpt>
      <trkpt lat="48.06359" lon="6.84407">
        <ele>896.57</ele>
        <time>2017-08-02T14:56:15Z</time>
      </trkpt>
      <trkpt lat="48.06348" lon="6.8441">
        <ele>895.61</ele>
        <time>2017-08-02T14:56:45Z</time>
      </trkpt>
      <trkpt lat="48.06338" lon="6.8442">
        <ele>894.64</ele>
        <time>2017-08-02T14:56:56Z</time>
      </trkpt>
      <trkpt lat="48.0633" lon="6.84423">
        <ele>893.2</ele>
        <time>2017-08-02T14:57:07Z</time>
      </trkpt>
      <trkpt lat="48.06318" lon="6.84416">
        <ele>891.76</ele>
        <time>2017-08-02T14:57:19Z</time>
      </trkpt>
      <trkpt lat="48.06309" lon="6.84413">
        <ele>891.28</ele>
        <time>2017-08-02T14:57:26Z</time>
      </trkpt>
      <trkpt lat="48.063" lon="6.84408">
        <ele>890.32</ele>
        <time>2017-08-02T14:57:37Z</time>
      </trkpt>
      <trkpt lat="48.06289" lon="6.84409">
        <ele>888.4</ele>
        <time>2017-08-02T14:57:47Z</time>
      </trkpt>
      <trkpt lat="48.06278" lon="6.84416">
        <ele>886.95</ele>
        <time>2017-08-02T14:57:57Z</time>
      </trkpt>
      <trkpt lat="48.06268" lon="6.84411">
        <ele>885.51</ele>
        <time>2017-08-02T14:58:08Z</time>
      </trkpt>
      <trkpt lat="48.06263" lon="6.84432">
        <ele>884.55</ele>
        <time>2017-08-02T14:59:15Z</time>
      </trkpt>
      <trkpt lat="48.06263" lon="6.84446">
        <ele>883.11</ele>
        <time>2017-08-02T14:59:30Z</time>
      </trkpt>
      <trkpt lat="48.06263" lon="6.84466">
        <ele>880.71</ele>
        <time>2017-08-02T14:59:53Z</time>
      </trkpt>
      <trkpt lat="48.06263" lon="6.84485">
        <ele>873.5</ele>
        <time>2017-08-02T15:00:47Z</time>
      </trkpt>
      <trkpt lat="48.06264" lon="6.84504">
        <ele>869.65</ele>
        <time>2017-08-02T15:01:17Z</time>
      </trkpt>
      <trkpt lat="48.06264" lon="6.84524">
        <ele>864.84</ele>
        <time>2017-08-02T15:01:41Z</time>
      </trkpt>
      <trkpt lat="48.06266" lon="6.84549">
        <ele>861.48</ele>
        <time>2017-08-02T15:01:59Z</time>
      </trkpt>
      <trkpt lat="48.0626" lon="6.84569">
        <ele>859.08</ele>
        <time>2017-08-02T15:02:14Z</time>
      </trkpt>
      <trkpt lat="48.06251" lon="6.84581">
        <ele>857.15</ele>
        <time>2017-08-02T15:02:28Z</time>
      </trkpt>
      <trkpt lat="48.06248" lon="6.84592">
        <ele>853.79</ele>
        <time>2017-08-02T15:02:47Z</time>
      </trkpt>
      <trkpt lat="48.06237" lon="6.8461">
        <ele>850.42</ele>
        <time>2017-08-02T15:03:09Z</time>
      </trkpt>
      <trkpt lat="48.06225" lon="6.84627">
        <ele>848.98</ele>
        <time>2017-08-02T15:03:24Z</time>
      </trkpt>
      <trkpt lat="48.06218" lon="6.84642">
        <ele>845.14</ele>
        <time>2017-08-02T15:03:56Z</time>
      </trkpt>
      <trkpt lat="48.06211" lon="6.84653">
        <ele>841.77</ele>
        <time>2017-08-02T15:04:29Z</time>
      </trkpt>
      <trkpt lat="48.06201" lon="6.84673">
        <ele>834.56</ele>
        <time>2017-08-02T15:05:16Z</time>
      </trkpt>
      <trkpt lat="48.062" lon="6.847">
        <ele>831.68</ele>
        <time>2017-08-02T15:05:33Z</time>
      </trkpt>
      <trkpt lat="48.06197" lon="6.84718">
        <ele>827.35</ele>
        <time>2017-08-02T15:06:04Z</time>
      </trkpt>
      <trkpt lat="48.06201" lon="6.84732">
        <ele>824.95</ele>
        <time>2017-08-02T15:06:17Z</time>
      </trkpt>
      <trkpt lat="48.06207" lon="6.84716">
        <ele>825.43</ele>
        <time>2017-08-02T15:07:02Z</time>
      </trkpt>
      <trkpt lat="48.06195" lon="6.84737">
        <ele>823.51</ele>
        <time>2017-08-02T15:07:43Z</time>
      </trkpt>
      <trkpt lat="48.06185" lon="6.84751">
        <ele>821.58</ele>
        <time>2017-08-02T15:08:04Z</time>
      </trkpt>
      <trkpt lat="48.06176" lon="6.84767">
        <ele>820.62</ele>
        <time>2017-08-02T15:08:52Z</time>
      </trkpt>
      <trkpt lat="48.06165" lon="6.84793">
        <ele>818.7</ele>
        <time>2017-08-02T15:09:10Z</time>
      </trkpt>
      <trkpt lat="48.06153" lon="6.84805">
        <ele>816.78</ele>
        <time>2017-08-02T15:09:26Z</time>
      </trkpt>
      <trkpt lat="48.06141" lon="6.84814">
        <ele>814.85</ele>
        <time>2017-08-02T15:09:45Z</time>
      </trkpt>
      <trkpt lat="48.06129" lon="6.84825">
        <ele>812.45</ele>
        <time>2017-08-02T15:10:10Z</time>
      </trkpt>
      <trkpt lat="48.06121" lon="6.84831">
        <ele>808.61</ele>
        <time>2017-08-02T15:10:34Z</time>
      </trkpt>
      <trkpt lat="48.06111" lon="6.84833">
        <ele>805.72</ele>
        <time>2017-08-02T15:10:50Z</time>
      </trkpt>
      <trkpt lat="48.06099" lon="6.84837">
        <ele>803.32</ele>
        <time>2017-08-02T15:11:03Z</time>
      </trkpt>
      <trkpt lat="48.06087" lon="6.84842">
        <ele>801.4</ele>
        <time>2017-08-02T15:11:16Z</time>
      </trkpt>
      <trkpt lat="48.06076" lon="6.84853">
        <ele>797.55</ele>
        <time>2017-08-02T15:11:36Z</time>
      </trkpt>
      <trkpt lat="48.06063" lon="6.84859">
        <ele>795.15</ele>
        <time>2017-08-02T15:11:57Z</time>
      </trkpt>
      <trkpt lat="48.06053" lon="6.84866">
        <ele>792.26</ele>
        <time>2017-08-02T15:12:14Z</time>
      </trkpt>
      <trkpt lat="48.06042" lon="6.84865">
        <ele>789.38</ele>
        <time>2017-08-02T15:12:28Z</time>
      </trkpt>
      <trkpt lat="48.06033" lon="6.84871">
        <ele>785.53</ele>
        <time>2017-08-02T15:12:51Z</time>
      </trkpt>
      <trkpt lat="48.06024" lon="6.84877">
        <ele>782.65</ele>
        <time>2017-08-02T15:13:06Z</time>
      </trkpt>
      <trkpt lat="48.06012" lon="6.84884">
        <ele>778.32</ele>
        <time>2017-08-02T15:13:34Z</time>
      </trkpt>
      <trkpt lat="48.06003" lon="6.84898">
        <ele>775.44</ele>
        <time>2017-08-02T15:13:53Z</time>
      </trkpt>
      <trkpt lat="48.0599" lon="6.84899">
        <ele>775.92</ele>
        <time>2017-08-02T15:14:06Z</time>
      </trkpt>
      <trkpt lat="48.06003" lon="6.8491">
        <ele>769.67</ele>
        <time>2017-08-02T15:16:18Z</time>
      </trkpt>
      <trkpt lat="48.06021" lon="6.84923">
        <ele>767.27</ele>
        <time>2017-08-02T15:16:36Z</time>
      </trkpt>
      <trkpt lat="48.06037" lon="6.84931">
        <ele>765.83</ele>
        <time>2017-08-02T15:16:50Z</time>
      </trkpt>
      <trkpt lat="48.06052" lon="6.84941">
        <ele>763.9</ele>
        <time>2017-08-02T15:17:07Z</time>
      </trkpt>
      <trkpt lat="48.06066" lon="6.84943">
        <ele>761.02</ele>
        <time>2017-08-02T15:17:28Z</time>
      </trkpt>
      <trkpt lat="48.06077" lon="6.84948">
        <ele>758.14</ele>
        <time>2017-08-02T15:17:48Z</time>
      </trkpt>
      <trkpt lat="48.06088" lon="6.84955">
        <ele>755.73</ele>
        <time>2017-08-02T15:18:15Z</time>
      </trkpt>
      <trkpt lat="48.06104" lon="6.84965">
        <ele>754.29</ele>
        <time>2017-08-02T15:18:35Z</time>
      </trkpt>
      <trkpt lat="48.06113" lon="6.84971">
        <ele>749.97</ele>
        <time>2017-08-02T15:19:12Z</time>
      </trkpt>
      <trkpt lat="48.06129" lon="6.84972">
        <ele>749.49</ele>
        <time>2017-08-02T15:19:35Z</time>
      </trkpt>
      <trkpt lat="48.06139" lon="6.8498">
        <ele>745.64</ele>
        <time>2017-08-02T15:20:18Z</time>
      </trkpt>
      <trkpt lat="48.0615" lon="6.84992">
        <ele>745.16</ele>
        <time>2017-08-02T15:20:36Z</time>
      </trkpt>
      <trkpt lat="48.06159" lon="6.85006">
        <ele>742.76</ele>
        <time>2017-08-02T15:20:56Z</time>
      </trkpt>
      <trkpt lat="48.06166" lon="6.85014">
        <ele>739.87</ele>
        <time>2017-08-02T15:21:17Z</time>
      </trkpt>
      <trkpt lat="48.06173" lon="6.85032">
        <ele>738.43</ele>
        <time>2017-08-02T15:21:34Z</time>
      </trkpt>
      <trkpt lat="48.06184" lon="6.85045">
        <ele>734.58</ele>
        <time>2017-08-02T15:22:05Z</time>
      </trkpt>
      <trkpt lat="48.06196" lon="6.85055">
        <ele>731.22</ele>
        <time>2017-08-02T15:22:32Z</time>
      </trkpt>
      <trkpt lat="48.06208" lon="6.85061">
        <ele>728.34</ele>
        <time>2017-08-02T15:22:56Z</time>
      </trkpt>
      <trkpt lat="48.06218" lon="6.85074">
        <ele>722.09</ele>
        <time>2017-08-02T15:23:50Z</time>
      </trkpt>
      <trkpt lat="48.0623" lon="6.85076">
        <ele>719.68</ele>
        <time>2017-08-02T15:24:07Z</time>
      </trkpt>
      <trkpt lat="48.06241" lon="6.85089">
        <ele>715.84</ele>
        <time>2017-08-02T15:24:30Z</time>
      </trkpt>
      <trkpt lat="48.06257" lon="6.85106">
        <ele>710.07</ele>
        <time>2017-08-02T15:25:15Z</time>
      </trkpt>
      <trkpt lat="48.06268" lon="6.85115">
        <ele>705.26</ele>
        <time>2017-08-02T15:26:03Z</time>
      </trkpt>
      <trkpt lat="48.06272" lon="6.85143">
        <ele>700.94</ele>
        <time>2017-08-02T15:26:38Z</time>
      </trkpt>
      <trkpt lat="48.06273" lon="6.85141">
        <ele>699.98</ele>
        <time>2017-08-02T15:29:17Z</time>
      </trkpt>
      <trkpt lat="48.06274" lon="6.85145">
        <ele>699.02</ele>
        <time>2017-08-02T15:29:52Z</time>
      </trkpt>
      <trkpt lat="48.0631" lon="6.85146">
        <ele>697.09</ele>
        <time>2017-08-02T15:30:19Z</time>
      </trkpt>
      <trkpt lat="48.0632" lon="6.85153">
        <ele>695.65</ele>
        <time>2017-08-02T15:30:34Z</time>
      </trkpt>
      <trkpt lat="48.06329" lon="6.85158">
        <ele>694.21</ele>
        <time>2017-08-02T15:30:44Z</time>
      </trkpt>
      <trkpt lat="48.06346" lon="6.85164">
        <ele>691.33</ele>
        <time>2017-08-02T15:30:57Z</time>
      </trkpt>
      <trkpt lat="48.06358" lon="6.85166">
        <ele>690.36</ele>
        <time>2017-08-02T15:31:09Z</time>
      </trkpt>
      <trkpt lat="48.0637" lon="6.85171">
        <ele>688.44</ele>
        <time>2017-08-02T15:31:22Z</time>
      </trkpt>
      <trkpt lat="48.06383" lon="6.85172">
        <ele>687</ele>
        <time>2017-08-02T15:31:34Z</time>
      </trkpt>
      <trkpt lat="48.06391" lon="6.85179">
        <ele>685.08</ele>
        <time>2017-08-02T15:31:46Z</time>
      </trkpt>
      <trkpt lat="48.06401" lon="6.85188">
        <ele>683.63</ele>
        <time>2017-08-02T15:31:56Z</time>
      </trkpt>
      <trkpt lat="48.06406" lon="6.85191">
        <ele>682.67</ele>
        <time>2017-08-02T15:32:21Z</time>
      </trkpt>
      <trkpt lat="48.06406" lon="6.85201">
        <ele>682.19</ele>
        <time>2017-08-02T15:32:34Z</time>
      </trkpt>
      <trkpt lat="48.06412" lon="6.85215">
        <ele>681.23</ele>
        <time>2017-08-02T15:32:43Z</time>
      </trkpt>
      <trkpt lat="48.06418" lon="6.85226">
        <ele>680.75</ele>
        <time>2017-08-02T15:32:52Z</time>
      </trkpt>
      <trkpt lat="48.06425" lon="6.85235">
        <ele>680.75</ele>
        <time>2017-08-02T15:33:01Z</time>
      </trkpt>
      <trkpt lat="48.06431" lon="6.85247">
        <ele>680.75</ele>
        <time>2017-08-02T15:33:10Z</time>
      </trkpt>
      <trkpt lat="48.06435" lon="6.8526">
        <ele>680.27</ele>
        <time>2017-08-02T15:33:20Z</time>
      </trkpt>
      <trkpt lat="48.06441" lon="6.85272">
        <ele>680.27</ele>
        <time>2017-08-02T15:33:29Z</time>
      </trkpt>
      <trkpt lat="48.06451" lon="6.85277">
        <ele>679.79</ele>
        <time>2017-08-02T15:33:37Z</time>
      </trkpt>
      <trkpt lat="48.06459" lon="6.85287">
        <ele>679.79</ele>
        <time>2017-08-02T15:33:45Z</time>
      </trkpt>
      <trkpt lat="48.06464" lon="6.853">
        <ele>680.27</ele>
        <time>2017-08-02T15:33:54Z</time>
      </trkpt>
      <trkpt lat="48.06464" lon="6.85315">
        <ele>680.27</ele>
        <time>2017-08-02T15:34:11Z</time>
      </trkpt>
      <trkpt lat="48.06466" lon="6.8533">
        <ele>680.27</ele>
        <time>2017-08-02T15:34:21Z</time>
      </trkpt>
      <trkpt lat="48.06471" lon="6.85352">
        <ele>680.27</ele>
        <time>2017-08-02T15:34:38Z</time>
      </trkpt>
      <trkpt lat="48.06475" lon="6.85377">
        <ele>679.79</ele>
        <time>2017-08-02T15:34:52Z</time>
      </trkpt>
      <trkpt lat="48.06479" lon="6.85392">
        <ele>680.27</ele>
        <time>2017-08-02T15:35:02Z</time>
      </trkpt>
      <trkpt lat="48.06483" lon="6.85407">
        <ele>680.27</ele>
        <time>2017-08-02T15:35:12Z</time>
      </trkpt>
      <trkpt lat="48.06486" lon="6.85421">
        <ele>679.79</ele>
        <time>2017-08-02T15:35:21Z</time>
      </trkpt>
      <trkpt lat="48.06489" lon="6.85437">
        <ele>680.27</ele>
        <time>2017-08-02T15:35:30Z</time>
      </trkpt>
      <trkpt lat="48.06493" lon="6.85451">
        <ele>679.79</ele>
        <time>2017-08-02T15:35:39Z</time>
      </trkpt>
      <trkpt lat="48.06496" lon="6.85465">
        <ele>680.27</ele>
        <time>2017-08-02T15:35:49Z</time>
      </trkpt>
      <trkpt lat="48.06501" lon="6.8548">
        <ele>679.79</ele>
        <time>2017-08-02T15:35:58Z</time>
      </trkpt>
      <trkpt lat="48.06505" lon="6.85497">
        <ele>679.79</ele>
        <time>2017-08-02T15:36:09Z</time>
      </trkpt>
      <trkpt lat="48.0651" lon="6.85512">
        <ele>679.79</ele>
        <time>2017-08-02T15:36:18Z</time>
      </trkpt>
      <trkpt lat="48.06512" lon="6.85526">
        <ele>679.79</ele>
        <time>2017-08-02T15:36:27Z</time>
      </trkpt>
      <trkpt lat="48.06515" lon="6.8554">
        <ele>680.27</ele>
        <time>2017-08-02T15:36:36Z</time>
      </trkpt>
      <trkpt lat="48.06516" lon="6.85554">
        <ele>680.27</ele>
        <time>2017-08-02T15:36:45Z</time>
      </trkpt>
      <trkpt lat="48.06518" lon="6.8557">
        <ele>679.79</ele>
        <time>2017-08-02T15:36:54Z</time>
      </trkpt>
      <trkpt lat="48.06522" lon="6.85584">
        <ele>680.27</ele>
        <time>2017-08-02T15:37:05Z</time>
      </trkpt>
      <trkpt lat="48.06527" lon="6.85595">
        <ele>680.27</ele>
        <time>2017-08-02T15:37:21Z</time>
      </trkpt>
      <trkpt lat="48.06527" lon="6.85605">
        <ele>680.27</ele>
        <time>2017-08-02T15:38:26Z</time>
      </trkpt>
      <trkpt lat="48.06525" lon="6.85619">
        <ele>679.79</ele>
        <time>2017-08-02T15:39:02Z</time>
      </trkpt>
      <trkpt lat="48.06527" lon="6.85636">
        <ele>679.79</ele>
        <time>2017-08-02T15:39:13Z</time>
      </trkpt>
      <trkpt lat="48.06524" lon="6.85653">
        <ele>680.27</ele>
        <time>2017-08-02T15:39:26Z</time>
      </trkpt>
      <trkpt lat="48.06521" lon="6.85674">
        <ele>679.79</ele>
        <time>2017-08-02T15:39:37Z</time>
      </trkpt>
      <trkpt lat="48.06525" lon="6.8569">
        <ele>679.79</ele>
        <time>2017-08-02T15:39:53Z</time>
      </trkpt>
      <trkpt lat="48.0653" lon="6.85694">
        <ele>679.31</ele>
        <time>2017-08-02T15:40:06Z</time>
      </trkpt>
      <trkpt lat="48.06533" lon="6.85697">
        <ele>677.87</ele>
        <time>2017-08-02T15:42:03Z</time>
      </trkpt>
    </trkseg>
  </trk>
</gpx>